GFSWCAN_prec_precacc_072.txt.gz
Total_Precipitation_Accumulation
0.72 0.83 0.94 0.72 0.77 0.75 0.78 0.78 0.83 0.90 0.85 0.67 0.65 0.58 0.75 0.69 0.79 1.20 1.15 1.26 2.01 2.03 0.67 0.47 0.29 0.23 0.25 0.33 0.57 0.55 0.88 0.83 0.61 0.46 0.23 0.16 0.14 0.11 0.10 0.22 0.28 0.24 0.24 0.24 0.27 0.26 0.08 0.02 0.06 0.14 0.19 0.05 0.02 0.01
0.82 0.84 0.74 0.64 0.63 0.65 0.66 0.68 0.77 0.71 0.84 0.67 0.69 0.68 0.78 0.87 0.99 1.21 1.28 1.05 1.49 2.10 1.13 0.47 0.25 0.15 0.07 0.06 0.19 0.43 0.63 0.66 0.69 0.47 0.24 0.20 0.17 0.14 0.10 0.16 0.29 0.48 0.30 0.19 0.11 0.07 0.08 0.09 0.11 0.10 0.04 0.11 0.10 0.27
0.71 0.71 0.65 0.58 0.52 0.52 0.56 0.65 0.65 0.64 0.73 0.60 0.57 0.64 0.87 1.12 1.14 1.32 1.28 1.01 2.37 2.49 1.59 0.68 0.32 0.10 0.04 0.04 0.09 0.39 0.18 0.50 0.78 0.53 0.63 0.38 0.28 0.17 0.09 0.07 0.18 0.26 0.30 0.50 0.37 0.21 0.13 0.24 0.22 0.05 0.01 0.02 0.03 0.10
0.79 0.70 0.60 0.49 0.47 0.49 0.52 0.48 0.45 0.52 0.57 0.63 0.69 0.76 1.03 1.26 1.18 1.64 1.71 1.37 2.63 1.76 1.70 1.03 0.50 0.18 0.13 0.08 0.15 0.18 0.14 0.25 0.49 0.58 0.72 0.58 0.34 0.26 0.22 0.11 0.23 0.32 0.52 0.31 0.40 0.45 0.31 0.36 0.62 0.34 0.13 0.08 0.06 0.03
0.70 0.48 0.39 0.37 0.37 0.41 0.40 0.37 0.40 0.43 0.45 0.57 0.65 0.90 1.27 1.41 1.51 2.23 2.03 1.79 1.78 1.42 1.31 1.23 0.33 0.29 0.21 0.18 0.15 0.31 0.34 0.37 0.65 0.66 0.55 0.29 0.27 0.49 0.47 0.29 0.28 0.29 0.77 0.73 0.51 0.81 0.91 0.86 0.45 0.38 0.47 0.31 0.10 0.05
0.52 0.38 0.28 0.29 0.30 0.31 0.33 0.38 0.44 0.44 0.40 0.48 0.71 1.02 1.15 1.37 2.32 3.57 4.63 2.87 1.56 1.37 1.49 1.42 0.64 0.29 0.39 0.34 0.35 0.25 0.47 0.69 0.82 0.97 0.49 0.16 0.16 0.64 0.63 0.64 0.44 0.24 0.27 0.44 0.71 0.76 0.87 0.71 0.36 0.20 0.13 0.20 0.23 0.16
0.52 0.43 0.37 0.29 0.27 0.31 0.31 0.33 0.39 0.43 0.50 0.66 0.82 0.96 0.98 1.33 1.67 2.41 2.11 1.42 1.08 1.39 1.71 1.37 0.99 0.49 0.45 0.61 0.67 0.78 0.59 1.02 1.43 1.24 0.67 0.30 0.22 0.43 0.54 0.54 0.42 0.16 0.20 0.22 0.38 0.33 0.15 0.11 0.11 0.06 0.03 0.02 0.01 0.02
0.47 0.43 0.42 0.38 0.34 0.41 0.34 0.38 0.46 0.52 0.62 0.75 0.97 1.08 1.27 1.48 1.88 1.68 1.10 1.16 0.90 1.26 1.28 1.20 1.17 1.08 0.81 1.06 0.95 0.93 1.09 1.16 1.29 1.30 0.80 0.50 0.56 0.66 0.62 0.40 0.14 0.04 0.09 0.06 0.07 0.08 0.08 0.06 0.03 0.02 0.01 0.01 0.01 0.00
0.53 0.47 0.43 0.48 0.46 0.42 0.37 0.48 0.59 0.76 0.80 1.07 1.34 1.82 2.82 2.44 2.36 1.66 1.38 1.51 1.16 1.11 0.93 0.55 0.83 1.63 1.61 1.46 1.06 0.88 1.29 1.38 1.03 0.79 0.64 0.74 1.01 1.03 0.64 0.16 0.10 0.05 0.01 0.01 0.00 0.00 0.01 0.02 0.02 0.01 0.00 0.01 0.01 0.01
0.58 0.46 0.38 0.40 0.43 0.58 0.66 0.81 0.97 0.99 1.04 1.28 1.90 2.70 2.83 1.87 1.64 1.86 2.59 2.64 2.19 1.12 0.76 0.53 0.45 0.99 1.69 1.80 1.38 1.09 0.90 0.88 0.86 0.68 0.78 1.04 0.82 0.42 0.17 0.16 0.13 0.09 0.08 0.05 0.03 0.03 0.02 0.03 0.02 0.02 0.02 0.04 0.05 0.09
0.39 0.37 0.38 0.42 0.45 0.52 0.66 0.76 1.08 0.96 1.02 1.23 1.55 2.08 1.67 1.74 1.90 2.06 1.96 1.48 1.31 0.68 0.29 0.41 0.49 0.88 1.09 1.75 1.30 0.99 1.02 0.62 0.40 0.52 0.65 0.90 0.49 0.26 0.06 0.05 0.07 0.11 0.10 0.13 0.17 0.19 0.19 0.18 0.14 0.09 0.12 0.15 0.15 0.14
0.46 0.42 0.38 0.38 0.43 0.57 0.68 0.77 0.75 0.60 0.73 0.77 1.28 1.36 1.85 1.95 1.58 1.21 0.92 0.70 0.51 0.30 0.24 0.37 0.63 1.13 0.98 1.37 1.22 1.09 0.95 0.68 0.47 0.36 0.41 0.55 0.41 0.19 0.13 0.11 0.10 0.14 0.19 0.23 0.21 0.21 0.25 0.24 0.24 0.21 0.20 0.19 0.20 0.23
0.40 0.47 0.44 0.36 0.40 0.51 0.59 0.67 0.58 0.69 0.96 0.96 0.68 0.94 1.06 0.93 0.83 0.68 0.48 0.46 0.42 0.25 0.27 0.35 0.72 1.37 1.02 1.31 1.08 0.73 1.21 0.84 0.51 0.56 0.50 0.39 0.20 0.14 0.15 0.19 0.22 0.24 0.24 0.26 0.29 0.31 0.28 0.28 0.26 0.24 0.26 0.35 0.37 0.49
0.33 0.40 0.50 0.61 0.72 0.78 0.97 1.01 1.22 1.27 0.94 0.62 0.62 0.58 0.80 0.60 0.57 0.51 0.48 0.44 0.25 0.16 0.21 0.50 0.84 1.08 1.15 1.36 1.02 0.61 0.91 0.88 0.71 0.57 0.41 0.39 0.34 0.31 0.28 0.29 0.26 0.35 0.37 0.38 0.46 0.47 0.52 0.56 0.69 0.80 0.87 0.98 0.81 0.91
0.38 0.47 0.63 0.75 0.82 0.90 1.03 1.11 1.12 0.70 0.40 0.47 0.59 0.70 0.57 0.69 0.61 0.63 0.54 0.39 0.30 0.30 0.36 0.61 0.90 0.80 0.81 1.39 0.78 0.57 0.56 0.53 0.39 0.37 0.46 0.59 0.55 0.51 0.53 0.58 0.62 0.71 0.77 0.85 0.94 0.88 0.96 0.92 0.75 0.91 1.00 0.93 0.76 0.75
0.33 0.59 0.75 0.77 0.83 0.78 0.85 0.76 0.67 0.45 0.46 0.57 0.77 0.71 0.59 0.58 0.60 0.57 0.49 0.42 0.41 0.50 0.54 0.86 0.91 0.65 0.58 0.44 0.40 0.41 0.39 0.43 0.51 0.52 0.62 0.62 0.69 0.82 0.88 0.92 1.00 1.01 0.96 0.95 0.94 0.81 0.76 0.70 0.61 0.64 0.63 0.56 0.55 0.44
0.31 0.86 0.86 0.67 0.58 0.51 0.52 0.44 0.37 0.41 0.60 0.63 0.91 1.00 0.86 0.71 0.77 0.80 0.70 0.58 0.53 0.54 0.67 0.57 0.55 0.57 0.47 0.24 0.23 0.32 0.59 0.81 0.86 0.88 0.84 0.83 0.91 1.01 1.01 0.94 0.92 0.77 0.67 0.64 0.58 0.51 0.49 0.46 0.30 0.18 0.22 0.29 0.20 0.17
0.35 0.46 0.39 0.31 0.26 0.30 0.21 0.11 0.18 0.26 0.40 0.70 0.73 1.00 0.75 0.88 0.86 0.79 0.81 0.71 0.64 0.57 0.57 0.54 0.43 0.41 0.50 0.47 0.53 0.77 0.88 1.01 0.98 0.89 0.91 1.01 0.93 0.90 0.86 0.76 0.77 0.62 0.49 0.47 0.38 0.36 0.31 0.22 0.15 0.19 0.17 0.15 0.09 0.09
0.50 0.45 0.47 0.36 0.29 0.16 0.13 0.11 0.03 0.18 0.60 0.65 0.66 0.53 0.45 0.59 0.59 0.59 0.48 0.42 0.29 0.18 0.15 0.17 0.24 0.42 0.64 0.74 0.79 0.87 0.86 0.66 0.64 0.64 0.69 0.80 0.79 0.76 0.75 0.67 0.60 0.52 0.38 0.31 0.21 0.19 0.20 0.19 0.20 0.18 0.15 0.11 0.13 0.15
0.62 0.54 0.48 0.33 0.19 0.15 0.18 0.12 0.02 0.11 0.46 0.55 0.52 0.29 0.26 0.38 0.28 0.14 0.07 0.03 0.02 0.03 0.10 0.29 0.68 0.86 0.80 0.90 0.70 0.66 0.64 0.55 0.41 0.35 0.48 0.60 0.64 0.53 0.56 0.45 0.41 0.34 0.24 0.22 0.21 0.19 0.16 0.17 0.17 0.13 0.11 0.10 0.10 0.10
0.33 0.19 0.11 0.06 0.05 0.04 0.09 0.08 0.13 0.13 0.25 0.34 0.29 0.12 0.21 0.09 0.07 0.05 0.03 0.01 0.04 0.18 0.55 0.83 0.81 0.90 0.66 0.65 0.58 0.49 0.55 0.49 0.51 0.32 0.31 0.37 0.44 0.30 0.33 0.35 0.29 0.23 0.20 0.23 0.20 0.21 0.18 0.16 0.15 0.11 0.08 0.07 0.07 0.06
0.08 0.03 0.01 0.00 0.00 0.00 0.03 0.02 0.09 0.08 0.04 0.10 0.08 0.04 0.06 0.05 0.04 0.02 0.01 0.05 0.36 0.68 0.70 0.60 0.56 0.42 0.30 0.35 0.36 0.27 0.35 0.27 0.31 0.35 0.36 0.32 0.32 0.31 0.35 0.38 0.27 0.27 0.27 0.25 0.21 0.17 0.13 0.09 0.06 0.04 0.02 0.03 0.02 0.01
0.03 0.02 0.04 0.01 0.00 0.01 0.06 0.05 0.05 0.08 0.03 0.04 0.02 0.02 0.03 0.03 0.02 0.01 0.06 0.21 0.59 0.78 0.50 0.25 0.26 0.18 0.23 0.33 0.20 0.20 0.22 0.19 0.25 0.33 0.35 0.33 0.32 0.32 0.26 0.24 0.20 0.15 0.12 0.11 0.07 0.04 0.03 0.01 0.01 0.00 0.01 0.00 0.01 0.01
0.00 0.00 0.00 0.00 0.00 0.02 0.03 0.04 0.01 0.01 0.02 0.02 0.01 0.04 0.05 0.03 0.00 0.02 0.11 0.27 0.53 0.42 0.26 0.28 0.18 0.14 0.15 0.16 0.20 0.27 0.32 0.25 0.22 0.22 0.22 0.16 0.13 0.13 0.08 0.07 0.04 0.03 0.03 0.01 0.00 0.00 0.00 0.01 0.00 0.01 0.01 0.01 0.01 0.02
0.00 0.00 0.00 0.00 0.00 0.00 0.01 0.02 0.02 0.01 0.02 0.01 0.02 0.05 0.03 0.01 0.02 0.04 0.09 0.28 0.27 0.27 0.30 0.29 0.22 0.19 0.21 0.25 0.25 0.22 0.17 0.10 0.08 0.08 0.10 0.06 0.05 0.03 0.01 0.01 0.00 0.01 0.00 0.02 0.01 0.01 0.00 0.00 0.01 0.00 0.01 0.01 0.01 0.01
0.02 0.04 0.02 0.03 0.02 0.01 0.01 0.02 0.01 0.02 0.02 0.03 0.05 0.05 0.05 0.04 0.05 0.11 0.16 0.24 0.21 0.26 0.32 0.32 0.29 0.20 0.18 0.15 0.11 0.09 0.07 0.03 0.01 0.00 0.02 0.01 0.01 0.01 0.00 0.00 0.01 0.01 0.01 0.01 0.02 0.02 0.02 0.01 0.00 0.00 0.01 0.01 0.02 0.03
0.02 0.03 0.02 0.03 0.04 0.03 0.02 0.02 0.01 0.02 0.06 0.07 0.07 0.05 0.07 0.10 0.11 0.24 0.32 0.22 0.22 0.29 0.25 0.22 0.15 0.11 0.10 0.08 0.06 0.04 0.01 0.00 0.00 0.00 0.00 0.00 0.00 0.00 0.00 0.00 0.01 0.02 0.01 0.01 0.01 0.01 0.02 0.02 0.02 0.02 0.02 0.03 0.04 0.04
0.02 0.01 0.02 0.01 0.01 0.01 0.03 0.03 0.04 0.09 0.12 0.09 0.07 0.05 0.05 0.09 0.23 0.35 0.32 0.34 0.19 0.14 0.10 0.09 0.06 0.04 0.04 0.05 0.07 0.05 0.02 0.02 0.00 0.00 0.01 0.02 0.01 0.00 0.01 0.01 0.01 0.01 0.01 0.01 0.01 0.02 0.03 0.03 0.04 0.03 0.03 0.03 0.02 0.03
0.02 0.01 0.01 0.00 0.01 0.02 0.08 0.10 0.10 0.11 0.10 0.07 0.05 0.09 0.11 0.21 0.31 0.30 0.31 0.24 0.18 0.12 0.09 0.07 0.10 0.06 0.03 0.01 0.00 0.00 0.00 0.01 0.00 0.00 0.01 0.03 0.04 0.04 0.02 0.02 0.02 0.01 0.02 0.02 0.02 0.02 0.05 0.05 0.05 0.02 0.01 0.02 0.03 0.06
0.01 0.01 0.01 0.01 0.03 0.10 0.19 0.13 0.14 0.10 0.04 0.03 0.05 0.10 0.14 0.38 0.58 0.35 0.24 0.19 0.14 0.13 0.11 0.10 0.11 0.07 0.06 0.04 0.01 0.01 0.02 0.01 0.00 0.00 0.01 0.01 0.02 0.03 0.03 0.03 0.02 0.02 0.03 0.02 0.01 0.01 0.02 0.01 0.01 0.01 0.02 0.02 0.03 0.03
0.00 0.01 0.01 0.01 0.10 0.16 0.15 0.09 0.08 0.09 0.06 0.05 0.04 0.06 0.13 0.27 0.29 0.24 0.18 0.16 0.09 0.07 0.07 0.06 0.04 0.03 0.01 0.01 0.01 0.01 0.03 0.01 0.01 0.01 0.01 0.01 0.02 0.03 0.02 0.02 0.03 0.03 0.03 0.02 0.02 0.02 0.01 0.00 0.01 0.01 0.01 0.01 0.01 0.01
0.01 0.01 0.01 0.03 0.14 0.15 0.17 0.15 0.09 0.14 0.12 0.08 0.08 0.06 0.09 0.08 0.09 0.12 0.14 0.14 0.11 0.07 0.06 0.05 0.05 0.04 0.01 0.00 0.00 0.01 0.00 0.00 0.00 0.01 0.01 0.02 0.02 0.02 0.02 0.02 0.02 0.03 0.03 0.02 0.01 0.01 0.01 0.01 0.02 0.01 0.02 0.02 0.01 0.00
0.01 0.00 0.00 0.01 0.06 0.09 0.10 0.08 0.06 0.06 0.07 0.07 0.10 0.10 0.10 0.06 0.08 0.13 0.11 0.10 0.12 0.07 0.03 0.03 0.03 0.02 0.02 0.00 0.00 0.00 0.00 0.00 0.00 0.01 0.02 0.02 0.01 0.01 0.01 0.02 0.02 0.01 0.01 0.01 0.01 0.01 0.01 0.02 0.02 0.01 0.01 0.00 0.00 0.01

GFSWCAN_prec_precacc_075.txt.gz
Total_Precipitation_Accumulation
0.74 0.83 0.94 0.73 0.77 0.75 0.79 0.79 0.85 0.91 0.85 0.67 0.65 0.58 0.76 0.70 0.82 1.20 1.15 1.26 2.01 2.03 0.67 0.47 0.29 0.23 0.25 0.33 0.57 0.55 0.88 0.83 0.62 0.55 0.32 0.24 0.15 0.13 0.11 0.22 0.29 0.25 0.24 0.24 0.27 0.26 0.08 0.02 0.06 0.14 0.20 0.06 0.02 0.01
0.86 0.85 0.74 0.64 0.63 0.66 0.67 0.70 0.78 0.72 0.84 0.67 0.69 0.68 0.78 0.87 1.01 1.23 1.28 1.05 1.49 2.10 1.13 0.47 0.25 0.15 0.07 0.06 0.19 0.43 0.63 0.67 0.72 0.51 0.28 0.23 0.19 0.15 0.11 0.17 0.31 0.49 0.30 0.19 0.11 0.07 0.08 0.09 0.11 0.10 0.05 0.12 0.11 0.28
0.73 0.74 0.66 0.58 0.52 0.53 0.59 0.67 0.66 0.64 0.73 0.60 0.57 0.65 0.88 1.14 1.16 1.35 1.30 1.01 2.40 2.55 1.60 0.68 0.32 0.10 0.04 0.04 0.09 0.39 0.18 0.50 0.81 0.58 0.70 0.43 0.30 0.18 0.09 0.07 0.18 0.27 0.31 0.58 0.56 0.34 0.14 0.24 0.22 0.06 0.03 0.04 0.05 0.10
0.79 0.71 0.60 0.49 0.48 0.50 0.53 0.49 0.46 0.53 0.58 0.63 0.69 0.76 1.03 1.27 1.22 1.69 1.72 1.38 2.64 1.79 1.70 1.03 0.50 0.18 0.13 0.08 0.15 0.18 0.14 0.25 0.50 0.60 0.77 0.64 0.35 0.27 0.22 0.11 0.24 0.32 0.56 0.42 0.57 0.57 0.35 0.39 0.64 0.37 0.17 0.13 0.13 0.10
0.72 0.49 0.39 0.37 0.38 0.43 0.42 0.38 0.41 0.44 0.45 0.57 0.65 0.90 1.27 1.41 1.52 2.29 2.18 1.91 1.78 1.44 1.32 1.23 0.33 0.29 0.21 0.18 0.15 0.31 0.34 0.37 0.65 0.66 0.57 0.30 0.28 0.50 0.48 0.31 0.30 0.34 0.86 0.78 0.57 0.87 0.95 0.93 0.52 0.44 0.52 0.38 0.21 0.10
0.53 0.38 0.28 0.29 0.30 0.31 0.34 0.38 0.44 0.44 0.40 0.49 0.71 1.03 1.17 1.41 2.46 4.00 5.05 3.08 1.67 1.44 1.63 1.46 0.64 0.29 0.39 0.34 0.35 0.25 0.47 0.69 0.82 0.98 0.51 0.16 0.16 0.65 0.64 0.67 0.48 0.39 0.37 0.50 0.78 0.84 0.93 0.77 0.41 0.25 0.16 0.23 0.26 0.18
0.52 0.44 0.39 0.31 0.28 0.32 0.31 0.33 0.39 0.43 0.50 0.66 0.82 0.98 1.00 1.38 1.85 2.82 2.41 1.48 1.16 1.53 1.90 1.42 0.99 0.49 0.45 0.61 0.67 0.78 0.59 1.02 1.43 1.24 0.67 0.30 0.22 0.46 0.59 0.60 0.51 0.29 0.33 0.32 0.48 0.43 0.23 0.17 0.14 0.08 0.04 0.02 0.02 0.02
0.48 0.46 0.44 0.41 0.36 0.42 0.34 0.39 0.46 0.52 0.62 0.77 1.05 1.21 1.35 1.56 2.00 1.81 1.13 1.18 0.97 1.39 1.32 1.20 1.17 1.08 0.81 1.06 0.95 0.93 1.09 1.16 1.29 1.30 0.80 0.50 0.56 0.68 0.69 0.51 0.28 0.12 0.16 0.13 0.12 0.11 0.10 0.07 0.03 0.02 0.01 0.01 0.01 0.00
0.55 0.49 0.45 0.49 0.47 0.43 0.37 0.49 0.59 0.77 0.82 1.20 1.50 1.93 2.88 2.46 2.39 1.68 1.41 1.56 1.19 1.12 0.93 0.55 0.83 1.63 1.61 1.46 1.06 0.90 1.30 1.38 1.03 0.80 0.64 0.75 1.01 1.04 0.66 0.20 0.16 0.08 0.03 0.03 0.00 0.00 0.01 0.02 0.02 0.01 0.00 0.01 0.01 0.01
0.60 0.47 0.38 0.40 0.43 0.58 0.66 0.81 0.99 1.06 1.20 1.51 1.97 2.71 2.85 1.89 1.64 1.87 2.62 2.65 2.19 1.12 0.76 0.53 0.45 0.99 1.70 1.82 1.41 1.11 0.92 0.88 0.86 0.68 0.78 1.05 0.83 0.43 0.17 0.16 0.14 0.09 0.08 0.05 0.03 0.03 0.03 0.03 0.02 0.02 0.03 0.04 0.05 0.09
0.40 0.37 0.39 0.42 0.45 0.52 0.66 0.78 1.24 1.14 1.14 1.28 1.57 2.10 1.70 1.75 1.90 2.06 1.97 1.48 1.31 0.68 0.29 0.41 0.49 0.88 1.09 1.76 1.34 0.99 1.03 0.62 0.40 0.53 0.67 0.92 0.49 0.27 0.07 0.05 0.07 0.11 0.10 0.13 0.17 0.19 0.19 0.18 0.14 0.09 0.13 0.15 0.15 0.14
0.46 0.42 0.39 0.38 0.44 0.58 0.70 0.91 1.07 0.67 0.78 0.78 1.28 1.39 1.88 1.95 1.58 1.21 0.93 0.71 0.52 0.30 0.24 0.37 0.64 1.14 0.99 1.38 1.32 1.16 1.02 0.73 0.53 0.38 0.44 0.55 0.41 0.20 0.14 0.11 0.10 0.14 0.19 0.23 0.21 0.21 0.25 0.24 0.24 0.21 0.20 0.19 0.20 0.24
0.41 0.47 0.45 0.38 0.43 0.54 0.64 0.85 0.77 0.73 0.96 0.96 0.68 0.94 1.06 0.93 0.84 0.69 0.49 0.47 0.42 0.25 0.27 0.38 0.79 1.39 1.04 1.40 1.28 0.82 1.25 0.86 0.55 0.59 0.51 0.39 0.21 0.15 0.16 0.19 0.23 0.24 0.24 0.26 0.29 0.31 0.28 0.28 0.26 0.24 0.26 0.35 0.37 0.50
0.34 0.43 0.54 0.66 0.78 0.86 1.08 1.17 1.33 1.29 0.94 0.62 0.62 0.58 0.80 0.60 0.57 0.51 0.48 0.44 0.25 0.16 0.22 0.59 0.86 1.11 1.17 1.38 1.04 0.61 0.93 0.90 0.72 0.58 0.41 0.40 0.35 0.31 0.28 0.29 0.26 0.35 0.37 0.38 0.46 0.47 0.52 0.57 0.69 0.80 0.87 0.98 0.81 0.92
0.41 0.55 0.75 0.86 0.94 1.03 1.15 1.19 1.15 0.70 0.40 0.47 0.59 0.70 0.57 0.69 0.61 0.64 0.54 0.39 0.30 0.31 0.40 0.67 0.91 0.81 0.81 1.39 0.78 0.57 0.56 0.53 0.39 0.37 0.46 0.60 0.55 0.51 0.53 0.58 0.62 0.71 0.77 0.85 0.94 0.88 0.96 0.93 0.75 0.91 1.01 0.94 0.76 0.75
0.39 0.75 0.93 0.93 0.95 0.88 0.95 0.80 0.68 0.45 0.46 0.57 0.77 0.71 0.60 0.59 0.61 0.58 0.50 0.42 0.42 0.52 0.57 0.87 0.92 0.65 0.58 0.44 0.40 0.41 0.39 0.43 0.51 0.52 0.62 0.62 0.69 0.82 0.88 0.92 1.00 1.01 0.96 0.95 0.94 0.82 0.76 0.71 0.61 0.64 0.63 0.56 0.55 0.44
0.46 1.01 1.00 0.79 0.68 0.59 0.54 0.44 0.38 0.41 0.60 0.63 0.91 1.00 0.86 0.72 0.78 0.80 0.71 0.58 0.55 0.56 0.68 0.57 0.55 0.57 0.47 0.24 0.23 0.32 0.59 0.81 0.86 0.89 0.84 0.83 0.91 1.01 1.01 0.94 0.92 0.77 0.67 0.64 0.58 0.51 0.49 0.46 0.30 0.18 0.22 0.29 0.20 0.17
0.45 0.52 0.48 0.38 0.28 0.30 0.21 0.12 0.24 0.26 0.40 0.70 0.73 1.01 0.76 0.88 0.86 0.80 0.81 0.72 0.64 0.57 0.57 0.54 0.43 0.41 0.50 0.47 0.53 0.77 0.88 1.01 0.98 0.89 0.91 1.01 0.93 0.90 0.86 0.76 0.77 0.62 0.49 0.47 0.38 0.36 0.31 0.22 0.15 0.19 0.17 0.15 0.09 0.09
0.55 0.49 0.49 0.36 0.29 0.16 0.13 0.11 0.05 0.18 0.61 0.65 0.66 0.53 0.45 0.59 0.59 0.60 0.48 0.42 0.29 0.18 0.15 0.17 0.24 0.42 0.64 0.74 0.79 0.87 0.86 0.66 0.64 0.65 0.69 0.80 0.79 0.76 0.75 0.67 0.60 0.52 0.38 0.31 0.21 0.19 0.21 0.19 0.20 0.18 0.15 0.11 0.13 0.15
0.63 0.54 0.48 0.33 0.19 0.15 0.18 0.12 0.02 0.11 0.46 0.55 0.52 0.29 0.26 0.38 0.28 0.14 0.07 0.03 0.02 0.03 0.10 0.29 0.68 0.86 0.80 0.90 0.70 0.66 0.64 0.55 0.41 0.35 0.48 0.61 0.65 0.53 0.57 0.45 0.41 0.35 0.24 0.22 0.21 0.19 0.16 0.17 0.17 0.13 0.11 0.11 0.11 0.10
0.33 0.19 0.11 0.06 0.05 0.04 0.09 0.08 0.13 0.13 0.25 0.34 0.29 0.12 0.21 0.09 0.07 0.05 0.03 0.01 0.04 0.18 0.55 0.83 0.81 0.91 0.66 0.65 0.58 0.49 0.55 0.49 0.51 0.32 0.31 0.37 0.45 0.30 0.33 0.35 0.29 0.23 0.20 0.23 0.20 0.21 0.18 0.16 0.15 0.11 0.08 0.07 0.07 0.06
0.08 0.03 0.01 0.00 0.00 0.00 0.03 0.02 0.09 0.08 0.04 0.10 0.08 0.04 0.06 0.05 0.04 0.02 0.01 0.05 0.36 0.68 0.70 0.60 0.56 0.42 0.30 0.35 0.36 0.27 0.35 0.27 0.31 0.35 0.36 0.32 0.32 0.31 0.35 0.38 0.27 0.27 0.27 0.25 0.21 0.17 0.13 0.09 0.06 0.04 0.02 0.03 0.02 0.01
0.03 0.03 0.05 0.02 0.01 0.01 0.06 0.05 0.05 0.08 0.03 0.05 0.02 0.02 0.03 0.03 0.02 0.01 0.06 0.21 0.59 0.78 0.51 0.26 0.26 0.18 0.23 0.33 0.20 0.20 0.22 0.19 0.25 0.33 0.35 0.33 0.32 0.32 0.26 0.24 0.20 0.15 0.12 0.11 0.07 0.04 0.03 0.01 0.01 0.00 0.01 0.00 0.01 0.01
0.01 0.01 0.02 0.01 0.00 0.03 0.04 0.04 0.01 0.01 0.02 0.02 0.01 0.04 0.05 0.03 0.00 0.02 0.11 0.27 0.54 0.43 0.26 0.29 0.18 0.14 0.15 0.17 0.20 0.27 0.32 0.25 0.22 0.22 0.22 0.16 0.13 0.13 0.08 0.07 0.04 0.03 0.03 0.01 0.00 0.00 0.00 0.01 0.00 0.01 0.01 0.01 0.01 0.02
0.03 0.02 0.01 0.00 0.00 0.00 0.01 0.02 0.02 0.01 0.02 0.01 0.02 0.05 0.03 0.01 0.02 0.04 0.09 0.29 0.28 0.28 0.31 0.29 0.22 0.19 0.21 0.25 0.25 0.22 0.17 0.10 0.08 0.08 0.10 0.06 0.05 0.03 0.01 0.01 0.00 0.01 0.00 0.02 0.01 0.01 0.00 0.00 0.01 0.00 0.01 0.01 0.01 0.01
0.04 0.05 0.02 0.04 0.03 0.01 0.01 0.02 0.01 0.02 0.02 0.03 0.05 0.05 0.05 0.04 0.05 0.11 0.16 0.24 0.21 0.27 0.32 0.33 0.29 0.20 0.18 0.15 0.11 0.09 0.07 0.03 0.01 0.00 0.02 0.01 0.01 0.01 0.00 0.00 0.01 0.01 0.01 0.01 0.02 0.02 0.02 0.01 0.01 0.00 0.01 0.01 0.02 0.03
0.02 0.03 0.02 0.03 0.04 0.03 0.02 0.02 0.01 0.02 0.06 0.07 0.08 0.05 0.07 0.10 0.11 0.24 0.33 0.23 0.22 0.29 0.25 0.22 0.15 0.11 0.10 0.08 0.06 0.04 0.01 0.00 0.00 0.00 0.00 0.00 0.00 0.00 0.00 0.00 0.01 0.02 0.01 0.01 0.01 0.01 0.02 0.02 0.02 0.02 0.02 0.03 0.04 0.04
0.02 0.01 0.02 0.02 0.01 0.01 0.03 0.03 0.04 0.09 0.12 0.09 0.07 0.05 0.05 0.09 0.23 0.36 0.33 0.34 0.19 0.14 0.10 0.09 0.06 0.04 0.04 0.05 0.07 0.05 0.02 0.02 0.00 0.00 0.01 0.02 0.01 0.00 0.01 0.01 0.01 0.01 0.01 0.01 0.01 0.02 0.03 0.03 0.04 0.03 0.03 0.03 0.02 0.03
0.02 0.01 0.01 0.01 0.01 0.02 0.08 0.10 0.10 0.11 0.11 0.07 0.05 0.09 0.11 0.21 0.31 0.31 0.31 0.25 0.18 0.12 0.09 0.07 0.10 0.06 0.03 0.01 0.00 0.00 0.00 0.01 0.00 0.00 0.01 0.03 0.04 0.04 0.02 0.02 0.02 0.01 0.02 0.02 0.02 0.02 0.05 0.05 0.05 0.02 0.01 0.02 0.03 0.06
0.01 0.01 0.01 0.01 0.03 0.10 0.19 0.13 0.14 0.10 0.04 0.03 0.05 0.10 0.14 0.39 0.60 0.36 0.25 0.20 0.15 0.13 0.11 0.10 0.11 0.07 0.06 0.04 0.01 0.01 0.02 0.01 0.00 0.00 0.01 0.01 0.02 0.03 0.03 0.03 0.02 0.02 0.03 0.02 0.01 0.01 0.02 0.01 0.01 0.01 0.02 0.02 0.03 0.03
0.00 0.01 0.01 0.01 0.10 0.16 0.15 0.09 0.08 0.09 0.06 0.05 0.04 0.06 0.14 0.28 0.30 0.26 0.20 0.17 0.10 0.07 0.07 0.06 0.04 0.03 0.01 0.01 0.01 0.01 0.03 0.01 0.01 0.01 0.01 0.01 0.02 0.03 0.02 0.02 0.03 0.03 0.03 0.02 0.02 0.02 0.01 0.00 0.01 0.01 0.01 0.01 0.01 0.01
0.01 0.01 0.01 0.03 0.14 0.15 0.17 0.15 0.09 0.15 0.13 0.08 0.08 0.06 0.09 0.08 0.09 0.13 0.15 0.15 0.12 0.07 0.06 0.05 0.05 0.04 0.01 0.00 0.00 0.01 0.00 0.00 0.00 0.01 0.01 0.02 0.02 0.02 0.02 0.02 0.02 0.03 0.03 0.02 0.01 0.01 0.01 0.01 0.02 0.01 0.02 0.02 0.01 0.00
0.01 0.00 0.00 0.01 0.06 0.09 0.10 0.08 0.06 0.06 0.07 0.07 0.10 0.10 0.10 0.06 0.08 0.14 0.12 0.10 0.13 0.07 0.03 0.03 0.03 0.02 0.02 0.00 0.00 0.00 0.00 0.00 0.00 0.01 0.02 0.02 0.01 0.01 0.01 0.02 0.02 0.01 0.01 0.01 0.01 0.01 0.01 0.02 0.02 0.01 0.01 0.00 0.00 0.01

GFSWCAN_prec_precacc_078.txt.gz
Total_Precipitation_Accumulation
0.76 0.84 0.94 0.73 0.78 0.75 0.80 0.80 0.86 0.92 0.86 0.67 0.65 0.59 0.76 0.72 0.83 1.20 1.15 1.26 2.01 2.03 0.67 0.47 0.29 0.23 0.25 0.34 0.57 0.55 0.88 0.83 0.62 0.57 0.38 0.47 0.32 0.15 0.15 0.26 0.33 0.29 0.27 0.25 0.28 0.26 0.08 0.02 0.06 0.14 0.20 0.06 0.02 0.01
0.91 0.87 0.75 0.64 0.63 0.67 0.68 0.71 0.81 0.73 0.86 0.68 0.69 0.68 0.78 0.88 1.02 1.23 1.29 1.05 1.50 2.10 1.13 0.47 0.25 0.15 0.07 0.06 0.19 0.43 0.63 0.67 0.73 0.55 0.30 0.27 0.25 0.16 0.13 0.22 0.36 0.52 0.33 0.23 0.12 0.08 0.08 0.09 0.11 0.10 0.06 0.12 0.11 0.28
0.84 0.80 0.68 0.58 0.52 0.53 0.60 0.69 0.69 0.66 0.75 0.61 0.57 0.65 0.89 1.15 1.19 1.37 1.30 1.01 2.41 2.57 1.61 0.68 0.32 0.10 0.04 0.04 0.09 0.39 0.18 0.51 0.83 0.62 0.74 0.47 0.34 0.19 0.12 0.11 0.22 0.29 0.32 0.59 0.59 0.43 0.19 0.25 0.22 0.06 0.04 0.05 0.05 0.12
0.85 0.77 0.63 0.50 0.48 0.50 0.54 0.50 0.48 0.55 0.59 0.63 0.69 0.76 1.03 1.28 1.25 1.74 1.73 1.38 2.65 1.81 1.70 1.03 0.50 0.18 0.13 0.08 0.15 0.18 0.14 0.26 0.51 0.61 0.78 0.66 0.36 0.28 0.23 0.13 0.25 0.33 0.56 0.43 0.71 0.75 0.50 0.45 0.67 0.38 0.19 0.14 0.15 0.16
0.74 0.51 0.41 0.37 0.38 0.43 0.42 0.38 0.41 0.45 0.46 0.57 0.65 0.90 1.28 1.41 1.53 2.34 2.22 1.95 1.78 1.45 1.33 1.23 0.33 0.29 0.21 0.18 0.15 0.31 0.34 0.37 0.65 0.66 0.59 0.31 0.28 0.52 0.50 0.34 0.32 0.35 0.88 0.81 0.68 0.94 1.03 0.97 0.55 0.46 0.54 0.40 0.26 0.13
0.56 0.40 0.30 0.31 0.30 0.32 0.34 0.40 0.45 0.44 0.40 0.49 0.72 1.03 1.18 1.42 2.49 4.08 5.13 3.13 1.70 1.49 1.75 1.50 0.64 0.29 0.39 0.34 0.35 0.25 0.47 0.69 0.82 0.99 0.52 0.17 0.17 0.67 0.66 0.70 0.50 0.42 0.42 0.57 0.83 0.89 0.95 0.79 0.43 0.27 0.18 0.25 0.27 0.19
0.54 0.46 0.40 0.32 0.28 0.32 0.32 0.35 0.40 0.43 0.50 0.66 0.82 0.98 1.01 1.41 2.01 3.06 2.51 1.50 1.20 1.63 2.16 1.54 1.01 0.49 0.45 0.61 0.67 0.78 0.59 1.02 1.43 1.25 0.68 0.31 0.22 0.47 0.62 0.65 0.54 0.38 0.43 0.39 0.55 0.47 0.26 0.19 0.16 0.09 0.04 0.03 0.02 0.02
0.50 0.46 0.44 0.41 0.37 0.43 0.35 0.39 0.47 0.52 0.62 0.77 1.05 1.22 1.39 1.63 2.12 1.96 1.24 1.27 1.06 1.62 1.49 1.25 1.17 1.08 0.82 1.07 0.96 0.93 1.10 1.17 1.30 1.31 0.81 0.50 0.57 0.70 0.73 0.58 0.33 0.22 0.30 0.22 0.20 0.15 0.12 0.08 0.04 0.02 0.01 0.01 0.01 0.00
0.57 0.50 0.46 0.51 0.49 0.45 0.38 0.49 0.59 0.77 0.83 1.23 1.56 2.02 2.98 2.55 2.46 1.71 1.47 1.62 1.22 1.16 0.94 0.56 0.83 1.63 1.61 1.48 1.08 0.90 1.31 1.39 1.04 0.81 0.64 0.75 1.01 1.05 0.69 0.27 0.24 0.16 0.10 0.09 0.03 0.01 0.01 0.02 0.02 0.01 0.00 0.01 0.01 0.01
0.61 0.49 0.40 0.43 0.45 0.59 0.67 0.81 0.99 1.06 1.30 1.66 2.03 2.77 2.93 1.95 1.66 1.89 2.64 2.66 2.20 1.12 0.76 0.53 0.45 0.99 1.70 1.82 1.42 1.13 0.94 0.89 0.87 0.68 0.79 1.06 0.83 0.43 0.18 0.17 0.16 0.11 0.09 0.06 0.04 0.04 0.03 0.03 0.02 0.02 0.03 0.04 0.05 0.09
0.40 0.39 0.40 0.43 0.46 0.53 0.66 0.78 1.24 1.24 1.46 1.36 1.63 2.16 1.73 1.77 1.90 2.07 1.97 1.48 1.31 0.68 0.29 0.41 0.49 0.88 1.10 1.76 1.37 1.00 1.04 0.62 0.40 0.53 0.67 0.93 0.50 0.28 0.08 0.05 0.07 0.12 0.10 0.13 0.17 0.20 0.19 0.18 0.14 0.09 0.13 0.15 0.15 0.14
0.47 0.43 0.40 0.39 0.44 0.58 0.70 0.92 1.12 0.77 0.89 0.81 1.30 1.43 1.91 1.96 1.58 1.21 0.93 0.71 0.52 0.30 0.24 0.37 0.64 1.14 0.99 1.38 1.34 1.18 1.03 0.76 0.56 0.40 0.45 0.56 0.42 0.21 0.14 0.12 0.10 0.14 0.19 0.23 0.21 0.21 0.25 0.25 0.24 0.21 0.20 0.20 0.21 0.24
0.41 0.48 0.46 0.38 0.43 0.54 0.65 0.89 0.93 0.84 0.99 0.98 0.69 0.96 1.07 0.93 0.84 0.69 0.49 0.47 0.43 0.25 0.27 0.39 0.81 1.39 1.05 1.42 1.37 0.92 1.30 0.92 0.58 0.63 0.52 0.39 0.21 0.15 0.16 0.19 0.23 0.25 0.24 0.26 0.30 0.31 0.28 0.28 0.27 0.24 0.26 0.36 0.38 0.50
0.35 0.43 0.55 0.66 0.78 0.87 1.10 1.30 1.57 1.42 0.99 0.63 0.63 0.58 0.80 0.60 0.57 0.51 0.48 0.44 0.25 0.16 0.23 0.68 0.90 1.14 1.19 1.44 1.13 0.69 0.97 0.94 0.74 0.59 0.41 0.40 0.35 0.31 0.28 0.29 0.26 0.35 0.38 0.39 0.46 0.47 0.53 0.57 0.69 0.81 0.88 0.99 0.82 0.92
0.41 0.56 0.76 0.87 0.96 1.06 1.23 1.34 1.25 0.75 0.41 0.47 0.59 0.70 0.57 0.69 0.61 0.64 0.54 0.39 0.30 0.31 0.43 0.79 0.94 0.86 0.83 1.41 0.80 0.58 0.57 0.55 0.40 0.38 0.46 0.60 0.56 0.51 0.53 0.58 0.62 0.71 0.77 0.85 0.94 0.88 0.97 0.93 0.76 0.92 1.01 0.94 0.76 0.75
0.41 0.81 0.97 0.95 1.00 0.96 1.07 0.92 0.73 0.46 0.46 0.57 0.77 0.71 0.60 0.59 0.61 0.58 0.50 0.43 0.42 0.53 0.59 0.91 0.93 0.65 0.58 0.44 0.40 0.41 0.39 0.43 0.51 0.52 0.62 0.63 0.69 0.82 0.88 0.92 1.00 1.01 0.97 0.95 0.94 0.82 0.77 0.71 0.62 0.65 0.63 0.56 0.55 0.44
0.57 1.12 1.06 0.86 0.77 0.73 0.65 0.47 0.38 0.41 0.60 0.63 0.91 1.01 0.86 0.72 0.78 0.81 0.71 0.59 0.55 0.57 0.68 0.57 0.55 0.57 0.47 0.24 0.23 0.32 0.59 0.81 0.86 0.89 0.84 0.83 0.91 1.01 1.01 0.94 0.92 0.77 0.67 0.64 0.59 0.52 0.49 0.46 0.30 0.18 0.22 0.29 0.20 0.17
0.57 0.58 0.56 0.48 0.38 0.37 0.24 0.12 0.24 0.26 0.40 0.70 0.73 1.01 0.76 0.89 0.87 0.81 0.82 0.72 0.64 0.57 0.57 0.54 0.43 0.41 0.50 0.47 0.53 0.77 0.88 1.01 0.99 0.89 0.91 1.01 0.93 0.90 0.86 0.76 0.77 0.62 0.49 0.47 0.38 0.36 0.31 0.22 0.15 0.19 0.17 0.15 0.09 0.09
0.62 0.53 0.53 0.37 0.30 0.16 0.13 0.11 0.05 0.18 0.61 0.66 0.67 0.54 0.45 0.60 0.60 0.60 0.48 0.42 0.29 0.18 0.15 0.17 0.24 0.42 0.64 0.74 0.79 0.88 0.87 0.66 0.64 0.65 0.69 0.80 0.79 0.76 0.75 0.67 0.60 0.52 0.38 0.32 0.21 0.19 0.21 0.19 0.20 0.18 0.15 0.11 0.13 0.15
0.68 0.57 0.49 0.33 0.19 0.15 0.18 0.12 0.02 0.11 0.47 0.56 0.52 0.29 0.26 0.38 0.28 0.14 0.07 0.03 0.02 0.03 0.10 0.29 0.68 0.86 0.80 0.90 0.70 0.66 0.64 0.55 0.41 0.36 0.49 0.61 0.65 0.53 0.57 0.45 0.41 0.35 0.25 0.23 0.21 0.19 0.16 0.17 0.17 0.13 0.11 0.11 0.11 0.11
0.36 0.20 0.11 0.06 0.05 0.04 0.09 0.08 0.13 0.13 0.25 0.34 0.29 0.12 0.21 0.09 0.07 0.05 0.03 0.01 0.05 0.18 0.55 0.84 0.81 0.91 0.66 0.65 0.58 0.49 0.55 0.49 0.51 0.32 0.31 0.38 0.45 0.30 0.34 0.36 0.29 0.23 0.20 0.23 0.20 0.21 0.18 0.16 0.15 0.11 0.08 0.07 0.07 0.06
0.08 0.03 0.01 0.00 0.00 0.00 0.03 0.02 0.09 0.08 0.04 0.10 0.08 0.04 0.06 0.05 0.04 0.02 0.01 0.05 0.36 0.68 0.70 0.60 0.56 0.42 0.30 0.35 0.36 0.27 0.35 0.27 0.31 0.35 0.36 0.32 0.33 0.31 0.35 0.39 0.27 0.27 0.27 0.25 0.21 0.17 0.13 0.09 0.06 0.04 0.02 0.03 0.02 0.01
0.03 0.03 0.05 0.02 0.01 0.01 0.06 0.05 0.05 0.08 0.03 0.05 0.02 0.02 0.03 0.03 0.02 0.01 0.06 0.21 0.59 0.78 0.51 0.26 0.26 0.18 0.24 0.33 0.20 0.20 0.22 0.19 0.25 0.33 0.35 0.33 0.32 0.32 0.26 0.24 0.20 0.15 0.12 0.11 0.07 0.04 0.03 0.01 0.01 0.00 0.01 0.01 0.01 0.02
0.01 0.01 0.02 0.01 0.00 0.03 0.04 0.04 0.01 0.01 0.02 0.02 0.01 0.04 0.05 0.03 0.00 0.02 0.11 0.27 0.54 0.44 0.26 0.29 0.18 0.14 0.15 0.17 0.20 0.27 0.32 0.25 0.22 0.22 0.22 0.16 0.13 0.13 0.08 0.07 0.04 0.03 0.03 0.01 0.00 0.00 0.00 0.01 0.00 0.01 0.01 0.01 0.01 0.02
0.04 0.04 0.01 0.00 0.00 0.00 0.01 0.02 0.02 0.01 0.02 0.01 0.02 0.05 0.03 0.01 0.02 0.04 0.09 0.29 0.28 0.29 0.31 0.30 0.22 0.19 0.22 0.25 0.25 0.23 0.17 0.10 0.08 0.08 0.10 0.06 0.05 0.03 0.01 0.01 0.00 0.01 0.00 0.02 0.01 0.01 0.00 0.00 0.01 0.00 0.01 0.01 0.01 0.01
0.05 0.05 0.02 0.04 0.03 0.01 0.01 0.02 0.01 0.02 0.02 0.03 0.05 0.05 0.05 0.04 0.05 0.11 0.16 0.24 0.21 0.27 0.32 0.33 0.29 0.20 0.18 0.15 0.11 0.09 0.07 0.03 0.01 0.00 0.02 0.01 0.01 0.01 0.00 0.00 0.01 0.01 0.01 0.01 0.02 0.02 0.02 0.01 0.01 0.00 0.01 0.01 0.02 0.03
0.03 0.04 0.03 0.03 0.05 0.03 0.02 0.02 0.01 0.02 0.06 0.07 0.08 0.05 0.07 0.10 0.11 0.24 0.33 0.23 0.22 0.29 0.25 0.22 0.15 0.11 0.10 0.08 0.06 0.04 0.01 0.00 0.00 0.00 0.00 0.00 0.00 0.00 0.00 0.00 0.01 0.02 0.01 0.01 0.01 0.01 0.02 0.02 0.03 0.02 0.02 0.03 0.05 0.04
0.02 0.02 0.02 0.02 0.01 0.01 0.03 0.03 0.04 0.09 0.12 0.09 0.07 0.06 0.05 0.09 0.24 0.36 0.33 0.34 0.19 0.14 0.10 0.09 0.06 0.04 0.04 0.05 0.07 0.05 0.02 0.02 0.00 0.00 0.01 0.02 0.01 0.00 0.01 0.01 0.01 0.01 0.01 0.01 0.01 0.02 0.03 0.03 0.04 0.03 0.03 0.03 0.02 0.03
0.02 0.01 0.01 0.01 0.01 0.02 0.08 0.10 0.11 0.11 0.11 0.08 0.05 0.09 0.11 0.21 0.31 0.31 0.32 0.25 0.18 0.12 0.09 0.07 0.10 0.06 0.03 0.01 0.00 0.00 0.00 0.01 0.00 0.00 0.01 0.03 0.04 0.04 0.02 0.02 0.02 0.01 0.02 0.02 0.02 0.02 0.05 0.05 0.05 0.03 0.01 0.02 0.04 0.06
0.01 0.01 0.01 0.01 0.03 0.10 0.19 0.13 0.14 0.11 0.04 0.03 0.05 0.11 0.14 0.39 0.60 0.37 0.26 0.21 0.15 0.13 0.11 0.10 0.11 0.07 0.06 0.04 0.01 0.01 0.02 0.01 0.00 0.00 0.01 0.01 0.02 0.03 0.03 0.03 0.02 0.02 0.03 0.02 0.01 0.01 0.02 0.01 0.02 0.01 0.02 0.02 0.03 0.03
0.00 0.01 0.01 0.01 0.10 0.16 0.15 0.09 0.08 0.09 0.06 0.05 0.04 0.06 0.14 0.29 0.31 0.27 0.21 0.19 0.11 0.08 0.07 0.06 0.04 0.03 0.01 0.01 0.01 0.01 0.03 0.01 0.01 0.01 0.01 0.01 0.02 0.03 0.02 0.02 0.03 0.03 0.03 0.02 0.02 0.02 0.01 0.00 0.01 0.01 0.01 0.01 0.01 0.01
0.01 0.01 0.01 0.03 0.14 0.15 0.18 0.15 0.09 0.15 0.13 0.08 0.09 0.06 0.10 0.08 0.10 0.14 0.16 0.16 0.13 0.08 0.06 0.05 0.05 0.04 0.01 0.00 0.00 0.01 0.00 0.00 0.00 0.01 0.01 0.02 0.02 0.02 0.02 0.02 0.02 0.03 0.03 0.02 0.01 0.01 0.01 0.01 0.02 0.01 0.02 0.02 0.01 0.00
0.01 0.00 0.00 0.01 0.07 0.09 0.10 0.08 0.06 0.06 0.07 0.07 0.10 0.11 0.10 0.06 0.09 0.14 0.13 0.11 0.14 0.08 0.03 0.03 0.03 0.02 0.02 0.00 0.00 0.00 0.00 0.00 0.00 0.01 0.02 0.02 0.01 0.01 0.01 0.02 0.02 0.01 0.01 0.01 0.01 0.01 0.01 0.02 0.02 0.01 0.01 0.00 0.00 0.01

GFSWCAN_prec_precacc_081.txt.gz
Total_Precipitation_Accumulation
0.79 0.87 0.95 0.73 0.78 0.75 0.80 0.81 0.87 0.93 0.87 0.69 0.65 0.59 0.76 0.73 0.84 1.21 1.17 1.26 2.02 2.04 0.68 0.47 0.29 0.23 0.25 0.34 0.58 0.56 0.89 0.85 0.63 0.61 0.41 0.55 0.63 0.24 0.21 0.29 0.37 0.33 0.31 0.28 0.31 0.29 0.10 0.02 0.06 0.14 0.20 0.06 0.02 0.01
0.94 0.90 0.75 0.64 0.63 0.67 0.68 0.72 0.82 0.75 0.87 0.69 0.69 0.69 0.78 0.89 1.03 1.24 1.31 1.06 1.50 2.11 1.14 0.47 0.25 0.15 0.07 0.06 0.19 0.44 0.64 0.67 0.74 0.58 0.33 0.32 0.36 0.22 0.19 0.31 0.42 0.58 0.38 0.31 0.20 0.14 0.08 0.09 0.11 0.10 0.06 0.12 0.11 0.28
0.87 0.84 0.69 0.59 0.53 0.53 0.60 0.70 0.69 0.67 0.76 0.62 0.58 0.65 0.89 1.15 1.20 1.37 1.32 1.02 2.42 2.58 1.61 0.68 0.32 0.10 0.04 0.04 0.09 0.39 0.19 0.52 0.86 0.66 0.77 0.49 0.40 0.23 0.17 0.20 0.31 0.34 0.32 0.60 0.60 0.43 0.19 0.26 0.22 0.06 0.04 0.05 0.05 0.12
0.87 0.85 0.67 0.51 0.48 0.50 0.54 0.51 0.48 0.56 0.60 0.64 0.70 0.76 1.03 1.29 1.27 1.75 1.76 1.39 2.65 1.82 1.71 1.03 0.50 0.18 0.13 0.08 0.15 0.18 0.14 0.26 0.51 0.62 0.80 0.68 0.40 0.31 0.26 0.16 0.28 0.34 0.57 0.43 0.73 0.77 0.53 0.48 0.70 0.39 0.19 0.14 0.16 0.18
0.75 0.58 0.51 0.39 0.38 0.43 0.42 0.39 0.42 0.46 0.47 0.59 0.66 0.90 1.28 1.41 1.55 2.38 2.27 1.97 1.79 1.45 1.34 1.23 0.33 0.29 0.21 0.18 0.15 0.31 0.34 0.37 0.66 0.67 0.60 0.33 0.31 0.56 0.53 0.39 0.34 0.35 0.88 0.82 0.72 0.96 1.09 1.06 0.60 0.48 0.55 0.41 0.29 0.16
0.57 0.42 0.40 0.34 0.31 0.32 0.34 0.40 0.46 0.45 0.41 0.50 0.72 1.03 1.18 1.43 2.51 4.14 5.18 3.14 1.70 1.50 1.79 1.52 0.64 0.29 0.39 0.34 0.35 0.25 0.47 0.70 0.82 0.99 0.53 0.19 0.20 0.69 0.67 0.78 0.52 0.42 0.43 0.59 0.86 0.94 1.00 0.83 0.47 0.28 0.19 0.25 0.28 0.20
0.55 0.47 0.43 0.35 0.29 0.32 0.32 0.35 0.41 0.44 0.50 0.66 0.82 0.98 1.02 1.42 2.05 3.08 2.53 1.51 1.21 1.67 2.32 1.61 1.02 0.49 0.45 0.61 0.69 0.79 0.59 1.02 1.44 1.26 0.69 0.31 0.23 0.48 0.65 0.71 0.57 0.39 0.46 0.45 0.60 0.51 0.29 0.21 0.17 0.10 0.04 0.03 0.02 0.02
0.52 0.47 0.46 0.43 0.38 0.43 0.35 0.40 0.47 0.53 0.62 0.77 1.05 1.22 1.40 1.68 2.20 2.02 1.25 1.30 1.16 1.80 1.63 1.33 1.19 1.09 0.82 1.09 0.99 0.94 1.11 1.18 1.32 1.33 0.83 0.52 0.58 0.73 0.76 0.59 0.35 0.25 0.36 0.28 0.25 0.17 0.13 0.09 0.04 0.02 0.01 0.01 0.01 0.00
0.60 0.52 0.48 0.52 0.49 0.45 0.38 0.50 0.60 0.78 0.83 1.24 1.57 2.06 3.03 2.63 2.50 1.73 1.50 1.69 1.34 1.28 1.01 0.57 0.85 1.67 1.62 1.52 1.14 0.93 1.34 1.41 1.05 0.83 0.65 0.76 1.02 1.06 0.70 0.30 0.27 0.21 0.19 0.18 0.08 0.02 0.01 0.02 0.02 0.01 0.00 0.01 0.01 0.01
0.64 0.51 0.42 0.43 0.46 0.60 0.68 0.83 1.00 1.07 1.30 1.69 2.11 2.89 3.04 2.00 1.69 1.92 2.69 2.71 2.26 1.16 0.78 0.53 0.45 1.02 1.71 1.84 1.43 1.16 0.97 0.91 0.89 0.69 0.80 1.07 0.84 0.44 0.18 0.18 0.16 0.12 0.12 0.09 0.05 0.04 0.03 0.03 0.02 0.02 0.03 0.04 0.05 0.09
0.42 0.40 0.41 0.44 0.47 0.55 0.69 0.80 1.25 1.25 1.53 1.45 1.74 2.23 1.76 1.79 1.93 2.09 1.98 1.50 1.33 0.69 0.29 0.41 0.49 0.89 1.11 1.79 1.40 1.02 1.07 0.64 0.41 0.54 0.68 0.95 0.52 0.28 0.08 0.05 0.07 0.12 0.10 0.13 0.17 0.20 0.19 0.18 0.14 0.09 0.13 0.15 0.15 0.14
0.48 0.44 0.40 0.40 0.46 0.60 0.72 0.93 1.12 0.80 0.96 0.88 1.31 1.47 1.96 1.98 1.59 1.22 0.93 0.72 0.52 0.30 0.24 0.37 0.64 1.15 1.01 1.41 1.39 1.21 1.05 0.77 0.58 0.43 0.46 0.59 0.43 0.21 0.14 0.12 0.10 0.14 0.19 0.23 0.21 0.21 0.25 0.25 0.24 0.21 0.21 0.20 0.21 0.24
0.42 0.48 0.48 0.40 0.44 0.55 0.66 0.90 0.94 0.86 1.06 1.05 0.73 0.99 1.08 0.94 0.85 0.69 0.49 0.47 0.43 0.26 0.28 0.40 0.81 1.40 1.06 1.43 1.38 0.95 1.31 0.97 0.60 0.67 0.55 0.40 0.22 0.15 0.16 0.19 0.23 0.25 0.24 0.26 0.30 0.32 0.29 0.29 0.27 0.24 0.26 0.36 0.38 0.50
0.36 0.45 0.58 0.67 0.79 0.87 1.11 1.33 1.65 1.51 1.06 0.67 0.64 0.59 0.81 0.60 0.57 0.51 0.48 0.45 0.26 0.17 0.24 0.70 0.92 1.15 1.21 1.46 1.17 0.79 1.03 0.98 0.78 0.62 0.42 0.40 0.35 0.32 0.29 0.29 0.26 0.35 0.38 0.39 0.47 0.47 0.53 0.57 0.70 0.81 0.88 0.99 0.82 0.92
0.42 0.58 0.77 0.88 0.96 1.07 1.25 1.42 1.47 0.87 0.45 0.48 0.59 0.70 0.57 0.69 0.61 0.64 0.55 0.40 0.31 0.32 0.44 0.82 0.97 0.89 0.86 1.47 0.86 0.65 0.62 0.61 0.43 0.40 0.47 0.61 0.56 0.51 0.53 0.58 0.62 0.71 0.77 0.86 0.94 0.89 0.97 0.93 0.76 0.92 1.02 0.94 0.76 0.75
0.42 0.83 0.99 0.96 1.01 0.98 1.16 1.10 0.89 0.48 0.46 0.57 0.77 0.71 0.60 0.59 0.61 0.58 0.51 0.43 0.42 0.54 0.62 0.96 0.99 0.69 0.61 0.45 0.41 0.41 0.39 0.44 0.52 0.53 0.63 0.63 0.70 0.82 0.88 0.93 1.00 1.02 0.97 0.95 0.94 0.82 0.77 0.71 0.62 0.65 0.63 0.56 0.55 0.44
0.59 1.13 1.06 0.87 0.78 0.80 0.87 0.59 0.40 0.41 0.60 0.63 0.91 1.01 0.87 0.72 0.78 0.81 0.71 0.59 0.55 0.58 0.71 0.59 0.56 0.58 0.48 0.24 0.23 0.32 0.59 0.82 0.86 0.89 0.85 0.84 0.91 1.02 1.02 0.94 0.92 0.78 0.67 0.65 0.59 0.52 0.49 0.46 0.30 0.18 0.22 0.29 0.20 0.17
0.58 0.59 0.57 0.50 0.48 0.54 0.35 0.13 0.24 0.26 0.40 0.71 0.73 1.01 0.76 0.89 0.87 0.81 0.82 0.72 0.65 0.57 0.57 0.54 0.43 0.41 0.50 0.47 0.53 0.77 0.88 1.02 0.99 0.89 0.91 1.01 0.93 0.90 0.86 0.76 0.78 0.62 0.49 0.47 0.39 0.36 0.31 0.22 0.15 0.19 0.17 0.15 0.09 0.09
0.65 0.55 0.55 0.40 0.31 0.18 0.16 0.12 0.05 0.18 0.61 0.66 0.67 0.54 0.45 0.60 0.60 0.60 0.48 0.42 0.29 0.18 0.15 0.17 0.24 0.42 0.64 0.74 0.79 0.88 0.87 0.67 0.65 0.65 0.69 0.80 0.79 0.76 0.75 0.67 0.60 0.53 0.39 0.32 0.21 0.20 0.21 0.19 0.20 0.18 0.16 0.11 0.13 0.16
0.72 0.60 0.52 0.35 0.20 0.16 0.18 0.12 0.02 0.11 0.47 0.56 0.52 0.29 0.26 0.39 0.28 0.15 0.07 0.03 0.02 0.03 0.10 0.29 0.68 0.86 0.80 0.90 0.70 0.66 0.64 0.55 0.41 0.36 0.50 0.62 0.65 0.54 0.57 0.46 0.42 0.35 0.25 0.23 0.22 0.19 0.16 0.17 0.17 0.13 0.11 0.11 0.11 0.11
0.50 0.29 0.14 0.07 0.06 0.04 0.09 0.08 0.13 0.13 0.25 0.34 0.29 0.12 0.21 0.09 0.07 0.05 0.03 0.01 0.05 0.18 0.55 0.84 0.81 0.91 0.66 0.65 0.58 0.49 0.55 0.49 0.51 0.32 0.32 0.38 0.45 0.30 0.34 0.36 0.30 0.23 0.21 0.24 0.20 0.22 0.18 0.16 0.15 0.11 0.08 0.07 0.07 0.06
0.10 0.05 0.02 0.00 0.00 0.00 0.03 0.02 0.09 0.08 0.04 0.10 0.08 0.04 0.06 0.06 0.04 0.02 0.01 0.05 0.36 0.68 0.70 0.60 0.56 0.42 0.30 0.35 0.36 0.27 0.35 0.27 0.31 0.35 0.36 0.32 0.33 0.31 0.36 0.39 0.27 0.27 0.27 0.26 0.21 0.17 0.13 0.09 0.06 0.04 0.03 0.03 0.02 0.01
0.03 0.03 0.05 0.02 0.01 0.01 0.06 0.05 0.05 0.08 0.03 0.05 0.02 0.02 0.03 0.03 0.02 0.01 0.06 0.21 0.59 0.79 0.51 0.26 0.26 0.18 0.24 0.33 0.20 0.20 0.22 0.19 0.25 0.33 0.36 0.33 0.33 0.32 0.26 0.24 0.20 0.16 0.12 0.11 0.07 0.04 0.03 0.01 0.01 0.00 0.01 0.01 0.02 0.02
0.01 0.01 0.02 0.01 0.00 0.03 0.04 0.04 0.01 0.01 0.02 0.02 0.01 0.04 0.05 0.03 0.00 0.02 0.11 0.27 0.55 0.45 0.27 0.29 0.18 0.14 0.15 0.17 0.20 0.27 0.32 0.25 0.22 0.23 0.22 0.16 0.14 0.13 0.08 0.07 0.04 0.03 0.03 0.01 0.00 0.00 0.00 0.01 0.00 0.01 0.01 0.01 0.02 0.02
0.04 0.04 0.01 0.00 0.00 0.00 0.01 0.02 0.02 0.01 0.02 0.01 0.02 0.05 0.03 0.01 0.02 0.04 0.09 0.29 0.29 0.30 0.32 0.30 0.22 0.19 0.22 0.26 0.26 0.23 0.17 0.10 0.08 0.08 0.10 0.06 0.05 0.03 0.01 0.01 0.00 0.01 0.00 0.02 0.02 0.01 0.01 0.01 0.01 0.01 0.01 0.01 0.01 0.02
0.05 0.06 0.02 0.04 0.03 0.01 0.01 0.02 0.01 0.02 0.02 0.03 0.05 0.05 0.05 0.04 0.05 0.11 0.16 0.25 0.22 0.28 0.33 0.33 0.29 0.21 0.18 0.15 0.11 0.09 0.07 0.03 0.01 0.00 0.02 0.01 0.01 0.01 0.00 0.00 0.01 0.01 0.01 0.01 0.02 0.02 0.02 0.01 0.01 0.00 0.01 0.02 0.02 0.03
0.03 0.04 0.03 0.03 0.05 0.03 0.02 0.02 0.01 0.02 0.06 0.07 0.08 0.06 0.07 0.10 0.11 0.24 0.33 0.24 0.24 0.29 0.25 0.23 0.16 0.11 0.10 0.08 0.06 0.04 0.01 0.00 0.00 0.00 0.00 0.00 0.00 0.00 0.00 0.00 0.01 0.02 0.01 0.01 0.01 0.01 0.02 0.02 0.03 0.02 0.02 0.03 0.05 0.05
0.02 0.02 0.02 0.02 0.01 0.01 0.03 0.03 0.04 0.09 0.12 0.09 0.07 0.06 0.05 0.09 0.24 0.37 0.34 0.35 0.21 0.15 0.10 0.09 0.06 0.04 0.04 0.05 0.07 0.05 0.02 0.02 0.00 0.00 0.01 0.02 0.01 0.00 0.01 0.01 0.01 0.01 0.01 0.01 0.01 0.02 0.03 0.03 0.04 0.03 0.03 0.03 0.02 0.03
0.02 0.01 0.01 0.01 0.01 0.02 0.08 0.10 0.11 0.11 0.11 0.08 0.05 0.09 0.11 0.22 0.32 0.31 0.32 0.26 0.19 0.13 0.09 0.07 0.10 0.06 0.03 0.01 0.00 0.00 0.00 0.01 0.00 0.00 0.01 0.03 0.04 0.04 0.02 0.02 0.02 0.01 0.02 0.02 0.02 0.02 0.05 0.05 0.05 0.03 0.01 0.02 0.04 0.06
0.01 0.01 0.01 0.01 0.03 0.10 0.19 0.13 0.14 0.11 0.04 0.04 0.05 0.11 0.14 0.40 0.61 0.37 0.27 0.22 0.17 0.15 0.12 0.10 0.11 0.07 0.06 0.04 0.01 0.01 0.02 0.01 0.00 0.00 0.01 0.01 0.02 0.03 0.03 0.03 0.02 0.02 0.03 0.02 0.01 0.01 0.02 0.01 0.02 0.01 0.02 0.02 0.03 0.03
0.00 0.01 0.01 0.01 0.10 0.17 0.16 0.10 0.09 0.09 0.06 0.05 0.05 0.06 0.14 0.29 0.32 0.28 0.22 0.20 0.12 0.09 0.07 0.06 0.04 0.03 0.01 0.01 0.01 0.01 0.03 0.01 0.01 0.01 0.01 0.01 0.02 0.03 0.02 0.02 0.03 0.03 0.03 0.02 0.02 0.02 0.01 0.00 0.01 0.01 0.01 0.01 0.01 0.01
0.01 0.01 0.01 0.03 0.15 0.16 0.18 0.15 0.09 0.15 0.13 0.08 0.09 0.07 0.10 0.09 0.11 0.15 0.17 0.18 0.14 0.09 0.06 0.05 0.05 0.04 0.01 0.00 0.00 0.01 0.00 0.00 0.00 0.01 0.01 0.02 0.02 0.02 0.02 0.02 0.02 0.03 0.03 0.02 0.01 0.01 0.01 0.01 0.02 0.01 0.02 0.02 0.01 0.00
0.01 0.00 0.00 0.01 0.07 0.10 0.11 0.08 0.06 0.07 0.08 0.08 0.11 0.11 0.10 0.07 0.09 0.15 0.14 0.12 0.16 0.09 0.04 0.04 0.03 0.02 0.02 0.00 0.00 0.00 0.00 0.00 0.00 0.01 0.02 0.02 0.01 0.01 0.01 0.02 0.02 0.01 0.01 0.01 0.01 0.01 0.01 0.02 0.02 0.01 0.01 0.00 0.00 0.01

GFSWCAN_prec_precacc_084.txt.gz
Total_Precipitation_Accumulation
0.82 0.90 0.99 0.77 0.78 0.76 0.80 0.81 0.88 0.93 0.88 0.70 0.66 0.59 0.76 0.73 0.84 1.22 1.18 1.26 2.02 2.04 0.68 0.47 0.29 0.23 0.25 0.34 0.59 0.58 0.91 0.89 0.64 0.63 0.49 0.59 0.70 0.36 0.31 0.34 0.40 0.37 0.35 0.31 0.36 0.38 0.17 0.02 0.07 0.14 0.21 0.07 0.02 0.01
0.97 0.94 0.77 0.68 0.64 0.67 0.68 0.72 0.83 0.75 0.88 0.71 0.71 0.69 0.78 0.89 1.03 1.25 1.34 1.06 1.50 2.11 1.14 0.47 0.25 0.15 0.07 0.06 0.19 0.44 0.64 0.69 0.76 0.61 0.35 0.35 0.42 0.34 0.35 0.48 0.50 0.66 0.44 0.55 0.31 0.26 0.11 0.09 0.11 0.10 0.06 0.12 0.11 0.28
0.89 0.88 0.73 0.61 0.53 0.54 0.60 0.70 0.70 0.68 0.77 0.63 0.59 0.65 0.89 1.15 1.20 1.38 1.36 1.02 2.43 2.59 1.61 0.68 0.32 0.10 0.04 0.04 0.09 0.39 0.22 0.54 0.88 0.69 0.80 0.50 0.44 0.28 0.24 0.34 0.46 0.40 0.33 0.66 0.64 0.45 0.19 0.26 0.23 0.06 0.04 0.05 0.05 0.12
0.88 0.88 0.71 0.53 0.49 0.50 0.54 0.51 0.49 0.56 0.61 0.65 0.71 0.76 1.03 1.29 1.27 1.75 1.78 1.42 2.66 1.83 1.71 1.04 0.50 0.18 0.13 0.08 0.15 0.18 0.16 0.26 0.51 0.63 0.81 0.69 0.42 0.36 0.30 0.20 0.33 0.35 0.57 0.44 0.75 0.77 0.54 0.49 0.72 0.41 0.20 0.15 0.17 0.19
0.75 0.60 0.55 0.42 0.39 0.43 0.42 0.39 0.42 0.46 0.47 0.59 0.66 0.91 1.28 1.42 1.55 2.39 2.28 2.00 1.80 1.47 1.38 1.24 0.34 0.29 0.21 0.18 0.15 0.31 0.34 0.38 0.66 0.67 0.60 0.34 0.32 0.61 0.56 0.46 0.39 0.36 0.88 0.83 0.75 0.96 1.10 1.08 0.63 0.49 0.57 0.43 0.31 0.16
0.57 0.42 0.43 0.39 0.32 0.32 0.34 0.40 0.46 0.46 0.41 0.51 0.73 1.03 1.18 1.43 2.52 4.17 5.20 3.15 1.70 1.52 1.81 1.53 0.65 0.29 0.39 0.34 0.35 0.25 0.47 0.70 0.82 0.99 0.53 0.19 0.21 0.73 0.68 0.87 0.58 0.42 0.43 0.59 0.87 0.95 1.02 0.87 0.51 0.30 0.21 0.27 0.29 0.21
0.55 0.47 0.47 0.43 0.30 0.32 0.32 0.35 0.42 0.46 0.52 0.67 0.83 0.98 1.02 1.42 2.06 3.12 2.56 1.54 1.21 1.68 2.34 1.63 1.02 0.49 0.45 0.61 0.70 0.81 0.59 1.02 1.44 1.27 0.69 0.32 0.24 0.50 0.67 0.76 0.58 0.39 0.46 0.46 0.63 0.56 0.34 0.26 0.21 0.12 0.05 0.03 0.02 0.02
0.53 0.48 0.47 0.54 0.39 0.43 0.35 0.40 0.48 0.55 0.64 0.78 1.05 1.22 1.40 1.69 2.22 2.04 1.26 1.30 1.16 1.84 1.69 1.36 1.20 1.10 0.82 1.11 1.03 0.98 1.11 1.18 1.32 1.34 0.85 0.54 0.59 0.76 0.79 0.60 0.35 0.25 0.38 0.32 0.30 0.22 0.16 0.10 0.04 0.02 0.01 0.01 0.01 0.00
0.61 0.54 0.49 0.58 0.51 0.45 0.38 0.50 0.61 0.80 0.85 1.24 1.58 2.07 3.06 2.65 2.52 1.74 1.51 1.69 1.36 1.40 1.08 0.59 0.86 1.73 1.64 1.56 1.22 0.98 1.36 1.43 1.07 0.85 0.67 0.77 1.05 1.07 0.71 0.30 0.27 0.22 0.24 0.25 0.13 0.04 0.02 0.02 0.02 0.01 0.00 0.01 0.01 0.01
0.66 0.54 0.44 0.45 0.47 0.61 0.68 0.83 1.01 1.09 1.31 1.70 2.12 2.93 3.07 2.01 1.70 1.93 2.71 2.74 2.31 1.22 0.81 0.55 0.46 1.09 1.73 1.85 1.47 1.21 1.01 0.93 0.92 0.71 0.80 1.08 0.85 0.44 0.18 0.18 0.17 0.12 0.14 0.13 0.09 0.05 0.03 0.03 0.02 0.02 0.03 0.04 0.05 0.09
0.44 0.43 0.44 0.44 0.48 0.55 0.69 0.81 1.27 1.28 1.55 1.46 1.80 2.34 1.81 1.81 1.96 2.15 2.01 1.53 1.35 0.72 0.30 0.41 0.50 0.93 1.13 1.80 1.42 1.04 1.11 0.67 0.43 0.56 0.69 0.96 0.54 0.28 0.08 0.06 0.07 0.12 0.10 0.13 0.17 0.20 0.19 0.18 0.14 0.09 0.13 0.16 0.15 0.15
0.49 0.46 0.43 0.41 0.46 0.61 0.73 0.94 1.14 0.81 0.97 0.90 1.38 1.52 2.00 2.02 1.65 1.25 0.94 0.73 0.54 0.31 0.24 0.37 0.64 1.16 1.05 1.44 1.46 1.26 1.07 0.79 0.59 0.47 0.47 0.62 0.44 0.21 0.14 0.12 0.10 0.14 0.19 0.23 0.21 0.21 0.25 0.25 0.25 0.21 0.21 0.20 0.21 0.25
0.44 0.50 0.50 0.41 0.45 0.56 0.68 0.91 0.94 0.86 1.10 1.16 0.80 1.03 1.13 0.97 0.86 0.70 0.50 0.47 0.43 0.26 0.29 0.40 0.82 1.40 1.09 1.45 1.41 0.98 1.33 0.99 0.64 0.72 0.60 0.42 0.22 0.15 0.16 0.19 0.23 0.25 0.24 0.26 0.30 0.32 0.29 0.29 0.27 0.24 0.27 0.36 0.38 0.51
0.38 0.47 0.60 0.69 0.80 0.89 1.12 1.34 1.66 1.54 1.17 0.75 0.69 0.62 0.83 0.61 0.57 0.51 0.50 0.47 0.28 0.19 0.25 0.71 0.93 1.16 1.23 1.46 1.17 0.81 1.08 1.02 0.84 0.67 0.45 0.41 0.35 0.32 0.29 0.29 0.27 0.36 0.38 0.39 0.47 0.47 0.53 0.57 0.70 0.81 0.88 0.99 0.82 0.92
0.43 0.60 0.81 0.90 0.97 1.08 1.25 1.43 1.49 0.91 0.55 0.56 0.61 0.72 0.58 0.70 0.62 0.65 0.55 0.40 0.31 0.33 0.46 0.83 0.99 0.91 0.88 1.49 0.88 0.69 0.69 0.67 0.48 0.46 0.47 0.61 0.56 0.51 0.53 0.58 0.62 0.71 0.78 0.86 0.95 0.89 0.97 0.93 0.76 0.92 1.02 0.94 0.76 0.75
0.44 0.87 1.02 0.97 1.02 0.98 1.17 1.15 0.98 0.54 0.50 0.59 0.78 0.72 0.61 0.59 0.61 0.58 0.51 0.44 0.43 0.55 0.63 0.97 1.03 0.72 0.66 0.47 0.45 0.45 0.43 0.48 0.53 0.53 0.64 0.63 0.70 0.83 0.88 0.93 1.01 1.02 0.97 0.96 0.94 0.82 0.77 0.72 0.62 0.65 0.63 0.56 0.55 0.44
0.61 1.16 1.07 0.88 0.80 0.82 0.93 0.69 0.50 0.47 0.62 0.63 0.91 1.01 0.87 0.73 0.79 0.81 0.72 0.59 0.55 0.60 0.74 0.62 0.62 0.63 0.51 0.25 0.23 0.33 0.60 0.82 0.87 0.90 0.85 0.84 0.91 1.02 1.02 0.94 0.93 0.78 0.68 0.65 0.59 0.52 0.49 0.46 0.30 0.18 0.22 0.29 0.20 0.17
0.60 0.61 0.57 0.51 0.51 0.65 0.47 0.21 0.27 0.27 0.40 0.71 0.74 1.01 0.76 0.90 0.88 0.82 0.82 0.72 0.65 0.58 0.59 0.57 0.45 0.41 0.51 0.47 0.54 0.77 0.88 1.02 0.99 0.90 0.92 1.01 0.93 0.90 0.87 0.77 0.78 0.62 0.50 0.47 0.39 0.36 0.31 0.22 0.15 0.19 0.17 0.15 0.09 0.09
0.69 0.57 0.56 0.40 0.33 0.25 0.21 0.14 0.05 0.18 0.61 0.66 0.67 0.54 0.45 0.60 0.60 0.60 0.48 0.42 0.29 0.18 0.15 0.17 0.25 0.43 0.65 0.75 0.80 0.88 0.87 0.67 0.65 0.66 0.70 0.81 0.79 0.76 0.75 0.68 0.61 0.53 0.39 0.32 0.21 0.20 0.21 0.19 0.20 0.18 0.16 0.11 0.13 0.16
0.76 0.62 0.52 0.36 0.25 0.19 0.18 0.12 0.02 0.11 0.47 0.56 0.52 0.29 0.26 0.39 0.28 0.15 0.07 0.03 0.02 0.03 0.11 0.29 0.69 0.86 0.80 0.90 0.70 0.67 0.64 0.55 0.42 0.36 0.50 0.62 0.66 0.54 0.57 0.46 0.42 0.35 0.25 0.23 0.22 0.19 0.17 0.17 0.17 0.13 0.11 0.11 0.11 0.12
0.56 0.35 0.18 0.14 0.11 0.05 0.09 0.08 0.13 0.13 0.26 0.34 0.29 0.13 0.21 0.09 0.07 0.05 0.03 0.01 0.05 0.19 0.56 0.84 0.81 0.91 0.66 0.65 0.58 0.49 0.55 0.49 0.51 0.32 0.32 0.39 0.46 0.31 0.35 0.37 0.30 0.24 0.21 0.24 0.21 0.22 0.18 0.16 0.15 0.11 0.08 0.07 0.07 0.06
0.18 0.12 0.09 0.07 0.01 0.00 0.03 0.02 0.09 0.08 0.05 0.10 0.08 0.04 0.06 0.06 0.04 0.02 0.01 0.05 0.37 0.69 0.70 0.60 0.56 0.42 0.30 0.35 0.36 0.27 0.35 0.28 0.31 0.35 0.36 0.32 0.33 0.32 0.36 0.39 0.27 0.28 0.28 0.26 0.21 0.18 0.13 0.09 0.06 0.04 0.03 0.03 0.02 0.01
0.04 0.04 0.06 0.02 0.01 0.02 0.06 0.05 0.05 0.08 0.04 0.05 0.02 0.03 0.03 0.03 0.02 0.01 0.06 0.21 0.60 0.79 0.51 0.26 0.26 0.18 0.24 0.33 0.20 0.20 0.22 0.19 0.25 0.33 0.36 0.34 0.33 0.33 0.27 0.24 0.21 0.16 0.12 0.11 0.07 0.04 0.03 0.01 0.01 0.00 0.01 0.01 0.02 0.02
0.02 0.03 0.04 0.02 0.00 0.04 0.04 0.04 0.01 0.01 0.02 0.02 0.01 0.04 0.05 0.03 0.00 0.02 0.11 0.27 0.55 0.45 0.27 0.29 0.18 0.15 0.15 0.17 0.20 0.27 0.32 0.25 0.22 0.23 0.23 0.16 0.14 0.13 0.08 0.07 0.04 0.03 0.03 0.01 0.00 0.00 0.00 0.01 0.00 0.01 0.01 0.01 0.02 0.02
0.05 0.04 0.01 0.00 0.00 0.00 0.01 0.02 0.02 0.01 0.03 0.01 0.02 0.05 0.03 0.01 0.03 0.04 0.09 0.30 0.29 0.30 0.32 0.30 0.22 0.20 0.22 0.26 0.26 0.23 0.17 0.10 0.08 0.08 0.10 0.06 0.05 0.03 0.01 0.01 0.00 0.01 0.00 0.02 0.02 0.01 0.01 0.01 0.01 0.01 0.01 0.01 0.01 0.02
0.05 0.06 0.02 0.04 0.03 0.01 0.01 0.02 0.02 0.02 0.02 0.03 0.05 0.06 0.05 0.05 0.05 0.12 0.17 0.26 0.23 0.29 0.34 0.34 0.30 0.21 0.18 0.15 0.11 0.09 0.07 0.03 0.01 0.00 0.02 0.01 0.01 0.01 0.00 0.00 0.01 0.02 0.01 0.01 0.02 0.02 0.02 0.01 0.01 0.00 0.01 0.02 0.02 0.03
0.03 0.04 0.03 0.03 0.05 0.03 0.02 0.02 0.01 0.02 0.06 0.07 0.08 0.06 0.07 0.11 0.11 0.25 0.34 0.25 0.25 0.30 0.26 0.23 0.16 0.12 0.10 0.09 0.06 0.04 0.01 0.00 0.00 0.00 0.00 0.00 0.00 0.00 0.00 0.01 0.01 0.03 0.01 0.01 0.01 0.01 0.02 0.02 0.03 0.02 0.02 0.03 0.05 0.05
0.02 0.02 0.02 0.02 0.01 0.01 0.03 0.03 0.04 0.09 0.12 0.09 0.08 0.06 0.05 0.09 0.25 0.37 0.35 0.35 0.25 0.17 0.12 0.11 0.08 0.04 0.04 0.05 0.07 0.05 0.02 0.02 0.00 0.00 0.01 0.02 0.01 0.00 0.01 0.01 0.01 0.01 0.01 0.01 0.01 0.02 0.03 0.03 0.04 0.04 0.03 0.03 0.02 0.03
0.02 0.02 0.01 0.01 0.01 0.02 0.08 0.10 0.11 0.11 0.11 0.08 0.06 0.10 0.11 0.22 0.32 0.32 0.33 0.27 0.20 0.13 0.09 0.08 0.11 0.06 0.03 0.01 0.01 0.00 0.00 0.01 0.00 0.00 0.01 0.03 0.04 0.04 0.02 0.02 0.02 0.01 0.02 0.02 0.02 0.02 0.05 0.05 0.05 0.03 0.01 0.02 0.04 0.06
0.01 0.01 0.01 0.01 0.03 0.10 0.20 0.14 0.15 0.11 0.04 0.04 0.05 0.11 0.15 0.40 0.61 0.38 0.27 0.23 0.19 0.17 0.13 0.10 0.12 0.08 0.07 0.05 0.02 0.02 0.02 0.01 0.00 0.00 0.01 0.01 0.02 0.03 0.03 0.03 0.02 0.02 0.03 0.02 0.01 0.01 0.02 0.01 0.02 0.01 0.02 0.03 0.03 0.03
0.01 0.01 0.02 0.02 0.11 0.17 0.16 0.10 0.09 0.09 0.07 0.06 0.05 0.07 0.15 0.30 0.32 0.29 0.24 0.23 0.16 0.10 0.08 0.08 0.05 0.03 0.01 0.01 0.01 0.01 0.03 0.01 0.01 0.01 0.01 0.01 0.02 0.03 0.02 0.02 0.03 0.03 0.03 0.02 0.02 0.02 0.01 0.00 0.01 0.01 0.01 0.01 0.01 0.01
0.01 0.01 0.01 0.03 0.15 0.16 0.18 0.16 0.10 0.16 0.14 0.09 0.10 0.07 0.10 0.10 0.12 0.16 0.17 0.19 0.16 0.11 0.08 0.06 0.06 0.05 0.02 0.01 0.00 0.01 0.00 0.00 0.00 0.01 0.01 0.02 0.02 0.02 0.02 0.02 0.02 0.03 0.03 0.02 0.01 0.01 0.01 0.01 0.02 0.01 0.02 0.02 0.01 0.00
0.02 0.01 0.01 0.02 0.07 0.10 0.11 0.09 0.07 0.07 0.08 0.09 0.12 0.12 0.11 0.08 0.10 0.16 0.14 0.14 0.20 0.11 0.06 0.05 0.04 0.03 0.02 0.00 0.00 0.00 0.00 0.00 0.00 0.01 0.02 0.02 0.01 0.01 0.01 0.02 0.02 0.01 0.01 0.01 0.01 0.01 0.01 0.02 0.02 0.01 0.01 0.00 0.00 0.01

GFSWCAN_prec_precacc_090.txt.gz
Total_Precipitation_Accumulation
0.89 0.95 1.05 0.83 0.81 0.76 0.80 0.82 0.88 0.94 0.88 0.71 0.66 0.59 0.76 0.73 0.84 1.22 1.19 1.26 2.02 2.04 0.68 0.47 0.29 0.23 0.25 0.34 0.59 0.58 0.91 0.89 0.64 0.63 0.54 0.61 0.71 0.37 0.61 1.01 0.47 0.46 0.41 0.38 0.52 0.74 0.58 0.07 0.20 0.33 0.39 0.12 0.03 0.01
1.03 1.00 0.83 0.74 0.67 0.68 0.68 0.72 0.83 0.76 0.88 0.72 0.72 0.69 0.78 0.89 1.03 1.25 1.35 1.06 1.50 2.11 1.14 0.47 0.25 0.15 0.07 0.06 0.19 0.44 0.65 0.70 0.76 0.61 0.36 0.35 0.42 0.45 0.56 0.74 0.74 1.20 0.95 0.97 0.63 0.57 0.32 0.16 0.20 0.21 0.10 0.14 0.12 0.28
0.95 0.94 0.79 0.66 0.58 0.56 0.61 0.71 0.70 0.69 0.77 0.64 0.60 0.65 0.89 1.15 1.20 1.38 1.37 1.03 2.43 2.59 1.61 0.68 0.32 0.10 0.04 0.04 0.09 0.39 0.22 0.55 0.89 0.69 0.81 0.51 0.44 0.32 0.33 0.62 0.63 0.51 0.43 0.82 0.76 0.53 0.24 0.32 0.26 0.09 0.06 0.07 0.06 0.12
0.94 0.95 0.80 0.57 0.54 0.52 0.55 0.52 0.50 0.57 0.62 0.66 0.72 0.76 1.03 1.29 1.27 1.75 1.78 1.43 2.67 1.83 1.71 1.04 0.50 0.18 0.13 0.08 0.15 0.18 0.16 0.26 0.51 0.63 0.82 0.69 0.42 0.38 0.33 0.42 0.40 0.35 0.58 0.49 0.80 0.82 0.58 0.51 0.76 0.45 0.23 0.16 0.18 0.20
0.81 0.66 0.64 0.48 0.44 0.44 0.42 0.39 0.43 0.47 0.49 0.61 0.68 0.91 1.28 1.42 1.55 2.39 2.28 2.01 1.81 1.48 1.40 1.25 0.34 0.29 0.21 0.18 0.15 0.31 0.34 0.38 0.66 0.67 0.61 0.34 0.32 0.63 0.58 0.58 0.42 0.37 0.90 0.84 0.78 1.00 1.13 1.12 0.67 0.52 0.61 0.46 0.34 0.17
0.64 0.46 0.50 0.46 0.35 0.32 0.34 0.40 0.47 0.46 0.43 0.54 0.74 1.03 1.18 1.43 2.52 4.18 5.20 3.16 1.71 1.53 1.82 1.53 0.65 0.29 0.39 0.34 0.35 0.25 0.47 0.70 0.82 0.99 0.53 0.19 0.21 0.75 0.69 0.89 0.61 0.43 0.43 0.60 0.90 0.97 1.03 0.90 0.54 0.32 0.22 0.27 0.30 0.21
0.59 0.50 0.50 0.50 0.34 0.33 0.32 0.35 0.42 0.46 0.54 0.72 0.85 0.98 1.02 1.42 2.07 3.12 2.56 1.56 1.22 1.68 2.34 1.63 1.03 0.50 0.45 0.61 0.70 0.83 0.60 1.03 1.44 1.27 0.69 0.32 0.24 0.51 0.69 0.78 0.59 0.39 0.46 0.47 0.64 0.59 0.38 0.30 0.23 0.13 0.05 0.03 0.02 0.02
0.55 0.50 0.49 0.57 0.43 0.44 0.35 0.40 0.49 0.57 0.67 0.83 1.07 1.23 1.40 1.69 2.22 2.05 1.27 1.31 1.16 1.84 1.69 1.36 1.21 1.10 0.82 1.11 1.04 1.01 1.13 1.18 1.33 1.34 0.85 0.54 0.60 0.77 0.81 0.61 0.35 0.25 0.39 0.33 0.32 0.24 0.18 0.11 0.05 0.03 0.01 0.01 0.01 0.00
0.63 0.55 0.50 0.63 0.55 0.46 0.38 0.50 0.62 0.84 0.89 1.27 1.58 2.07 3.07 2.66 2.52 1.74 1.52 1.69 1.37 1.41 1.10 0.60 0.87 1.76 1.65 1.57 1.25 1.03 1.40 1.44 1.07 0.85 0.67 0.78 1.06 1.09 0.72 0.30 0.27 0.22 0.27 0.29 0.17 0.06 0.02 0.02 0.02 0.01 0.00 0.01 0.01 0.01
0.67 0.55 0.46 0.52 0.51 0.62 0.69 0.84 1.04 1.15 1.36 1.71 2.12 2.93 3.08 2.01 1.71 1.93 2.71 2.74 2.32 1.24 0.83 0.56 0.46 1.13 1.75 1.86 1.49 1.25 1.04 0.94 0.94 0.73 0.81 1.08 0.86 0.46 0.19 0.18 0.17 0.13 0.16 0.16 0.14 0.09 0.04 0.04 0.02 0.02 0.03 0.04 0.05 0.09
0.44 0.45 0.47 0.50 0.52 0.57 0.70 0.82 1.31 1.33 1.57 1.46 1.80 2.37 1.87 1.84 1.97 2.17 2.03 1.54 1.35 0.73 0.31 0.41 0.50 0.94 1.16 1.80 1.43 1.06 1.15 0.72 0.49 0.63 0.70 0.97 0.56 0.30 0.09 0.06 0.07 0.12 0.14 0.19 0.21 0.22 0.20 0.19 0.14 0.09 0.13 0.16 0.15 0.15
0.50 0.47 0.48 0.48 0.49 0.62 0.74 0.96 1.17 0.81 0.97 0.90 1.42 1.63 2.09 2.06 1.69 1.30 0.98 0.74 0.55 0.31 0.25 0.38 0.64 1.16 1.07 1.46 1.49 1.29 1.09 0.82 0.63 0.51 0.48 0.63 0.47 0.22 0.15 0.12 0.10 0.14 0.19 0.24 0.22 0.21 0.25 0.25 0.25 0.21 0.21 0.20 0.21 0.25
0.47 0.53 0.58 0.48 0.47 0.58 0.68 0.93 0.96 0.87 1.10 1.18 0.89 1.06 1.19 1.02 0.94 0.71 0.50 0.47 0.43 0.26 0.30 0.41 0.82 1.41 1.11 1.47 1.41 1.03 1.38 1.00 0.68 0.78 0.63 0.44 0.23 0.16 0.16 0.19 0.23 0.25 0.24 0.26 0.30 0.32 0.29 0.29 0.27 0.24 0.27 0.37 0.38 0.51
0.44 0.52 0.70 0.74 0.82 0.90 1.14 1.37 1.69 1.54 1.19 0.82 0.75 0.64 0.89 0.65 0.57 0.52 0.51 0.48 0.29 0.21 0.26 0.72 0.93 1.17 1.24 1.47 1.17 0.81 1.09 1.05 0.95 0.73 0.49 0.42 0.36 0.32 0.29 0.29 0.27 0.36 0.38 0.39 0.47 0.47 0.53 0.57 0.70 0.81 0.88 0.99 0.82 0.92
0.50 0.66 0.87 0.94 1.00 1.10 1.29 1.47 1.50 0.92 0.60 0.71 0.68 0.75 0.58 0.70 0.62 0.65 0.55 0.40 0.31 0.33 0.47 0.83 0.99 0.91 0.88 1.49 0.88 0.69 0.71 0.77 0.62 0.68 0.49 0.63 0.57 0.51 0.53 0.58 0.62 0.71 0.78 0.86 0.95 0.89 0.97 0.94 0.76 0.93 1.02 0.94 0.76 0.75
0.50 0.96 1.06 1.00 1.07 1.03 1.22 1.17 0.99 0.56 0.54 0.76 0.86 0.73 0.61 0.60 0.61 0.59 0.51 0.44 0.43 0.55 0.63 0.97 1.04 0.73 0.66 0.47 0.47 0.47 0.51 0.78 0.59 0.54 0.65 0.64 0.70 0.83 0.88 0.93 1.01 1.02 0.97 0.96 0.94 0.82 0.78 0.72 0.62 0.65 0.63 0.56 0.55 0.44
0.66 1.20 1.12 0.93 0.85 0.86 0.94 0.69 0.51 0.48 0.68 0.68 0.92 1.01 0.87 0.73 0.79 0.81 0.72 0.60 0.55 0.61 0.75 0.63 0.67 0.66 0.58 0.26 0.23 0.33 0.60 0.83 0.87 0.91 0.86 0.84 0.91 1.02 1.02 0.94 0.93 0.78 0.68 0.65 0.60 0.53 0.49 0.46 0.30 0.18 0.22 0.29 0.20 0.17
0.63 0.64 0.60 0.56 0.54 0.67 0.47 0.23 0.33 0.31 0.42 0.71 0.74 1.02 0.76 0.90 0.89 0.82 0.82 0.72 0.65 0.60 0.62 0.63 0.59 0.43 0.51 0.48 0.55 0.78 0.89 1.03 1.00 0.90 0.92 1.01 0.93 0.90 0.87 0.77 0.78 0.63 0.50 0.48 0.39 0.36 0.31 0.22 0.15 0.19 0.17 0.15 0.09 0.09
0.73 0.59 0.57 0.40 0.33 0.29 0.24 0.15 0.13 0.21 0.61 0.66 0.67 0.54 0.45 0.60 0.60 0.61 0.48 0.42 0.29 0.18 0.16 0.17 0.25 0.44 0.66 0.75 0.80 0.88 0.87 0.67 0.66 0.66 0.70 0.81 0.80 0.76 0.76 0.68 0.61 0.53 0.39 0.32 0.21 0.20 0.21 0.19 0.21 0.18 0.16 0.11 0.14 0.16
0.79 0.62 0.52 0.36 0.33 0.30 0.19 0.13 0.02 0.12 0.47 0.56 0.52 0.29 0.26 0.39 0.28 0.15 0.07 0.03 0.02 0.03 0.11 0.29 0.69 0.86 0.81 0.90 0.70 0.67 0.64 0.55 0.42 0.37 0.52 0.64 0.66 0.54 0.58 0.46 0.42 0.35 0.25 0.23 0.22 0.19 0.17 0.17 0.17 0.13 0.11 0.11 0.11 0.12
0.63 0.42 0.21 0.18 0.24 0.10 0.10 0.08 0.13 0.13 0.26 0.35 0.29 0.13 0.21 0.09 0.07 0.06 0.04 0.01 0.06 0.19 0.57 0.84 0.82 0.91 0.66 0.65 0.58 0.49 0.55 0.49 0.51 0.32 0.32 0.39 0.46 0.31 0.35 0.38 0.30 0.24 0.21 0.24 0.21 0.22 0.18 0.16 0.15 0.11 0.08 0.07 0.07 0.06
0.22 0.15 0.13 0.16 0.13 0.02 0.03 0.02 0.09 0.08 0.05 0.10 0.08 0.04 0.06 0.06 0.05 0.02 0.01 0.06 0.38 0.69 0.70 0.60 0.56 0.42 0.30 0.35 0.36 0.27 0.35 0.28 0.31 0.35 0.36 0.32 0.34 0.32 0.37 0.40 0.27 0.28 0.29 0.26 0.22 0.18 0.13 0.09 0.06 0.04 0.03 0.03 0.02 0.01
0.06 0.07 0.07 0.06 0.14 0.04 0.06 0.05 0.05 0.08 0.04 0.05 0.02 0.03 0.04 0.04 0.02 0.01 0.07 0.21 0.61 0.79 0.51 0.26 0.26 0.18 0.24 0.33 0.20 0.20 0.22 0.19 0.25 0.33 0.36 0.34 0.33 0.33 0.27 0.25 0.22 0.16 0.13 0.11 0.07 0.04 0.03 0.01 0.01 0.00 0.01 0.01 0.02 0.02
0.06 0.08 0.08 0.09 0.08 0.06 0.04 0.04 0.01 0.01 0.02 0.02 0.01 0.05 0.06 0.03 0.00 0.02 0.11 0.28 0.55 0.45 0.27 0.29 0.18 0.15 0.15 0.17 0.20 0.27 0.32 0.25 0.22 0.24 0.23 0.16 0.14 0.14 0.08 0.07 0.05 0.04 0.03 0.01 0.00 0.00 0.00 0.01 0.00 0.01 0.01 0.01 0.02 0.02
0.15 0.10 0.08 0.06 0.02 0.01 0.01 0.02 0.02 0.01 0.03 0.01 0.03 0.06 0.04 0.01 0.03 0.04 0.09 0.31 0.29 0.31 0.33 0.30 0.22 0.20 0.22 0.26 0.26 0.23 0.17 0.10 0.08 0.09 0.11 0.06 0.05 0.03 0.01 0.01 0.00 0.01 0.00 0.02 0.02 0.01 0.01 0.01 0.01 0.01 0.01 0.01 0.01 0.02
0.16 0.09 0.03 0.04 0.03 0.01 0.01 0.02 0.02 0.02 0.02 0.03 0.06 0.06 0.05 0.05 0.05 0.12 0.19 0.28 0.23 0.29 0.34 0.35 0.30 0.22 0.20 0.15 0.12 0.10 0.07 0.03 0.01 0.01 0.03 0.01 0.01 0.01 0.00 0.00 0.01 0.02 0.01 0.01 0.02 0.02 0.02 0.01 0.01 0.00 0.01 0.02 0.02 0.03
0.04 0.05 0.03 0.03 0.05 0.03 0.02 0.02 0.01 0.02 0.06 0.07 0.08 0.06 0.07 0.11 0.11 0.26 0.35 0.26 0.26 0.31 0.26 0.24 0.16 0.13 0.11 0.09 0.07 0.05 0.01 0.00 0.00 0.00 0.00 0.00 0.00 0.00 0.00 0.01 0.02 0.03 0.01 0.01 0.01 0.01 0.02 0.02 0.03 0.02 0.02 0.03 0.05 0.05
0.02 0.02 0.02 0.02 0.01 0.01 0.03 0.03 0.04 0.09 0.12 0.09 0.08 0.06 0.05 0.10 0.26 0.38 0.35 0.37 0.28 0.17 0.14 0.14 0.13 0.07 0.04 0.05 0.07 0.05 0.02 0.02 0.00 0.00 0.01 0.02 0.01 0.00 0.01 0.01 0.01 0.01 0.01 0.01 0.01 0.02 0.03 0.03 0.04 0.04 0.03 0.03 0.02 0.03
0.02 0.02 0.01 0.01 0.01 0.02 0.08 0.10 0.11 0.11 0.11 0.08 0.06 0.10 0.12 0.22 0.33 0.32 0.33 0.29 0.23 0.14 0.10 0.10 0.16 0.07 0.04 0.02 0.01 0.00 0.00 0.01 0.00 0.00 0.01 0.03 0.05 0.04 0.02 0.02 0.02 0.01 0.02 0.02 0.02 0.02 0.05 0.05 0.05 0.03 0.01 0.02 0.04 0.07
0.01 0.01 0.01 0.01 0.03 0.10 0.20 0.14 0.16 0.11 0.04 0.04 0.05 0.11 0.15 0.41 0.61 0.38 0.28 0.24 0.20 0.18 0.14 0.11 0.13 0.08 0.08 0.06 0.04 0.04 0.03 0.01 0.00 0.00 0.01 0.01 0.03 0.04 0.03 0.03 0.02 0.02 0.03 0.02 0.01 0.01 0.02 0.01 0.02 0.02 0.03 0.03 0.03 0.03
0.01 0.01 0.02 0.02 0.11 0.19 0.17 0.10 0.09 0.09 0.07 0.06 0.05 0.08 0.15 0.30 0.33 0.29 0.25 0.25 0.19 0.13 0.08 0.09 0.08 0.05 0.02 0.02 0.01 0.01 0.04 0.02 0.01 0.01 0.01 0.01 0.02 0.03 0.02 0.02 0.03 0.03 0.03 0.02 0.02 0.02 0.01 0.00 0.01 0.01 0.01 0.01 0.01 0.01
0.02 0.04 0.02 0.04 0.16 0.16 0.18 0.16 0.10 0.16 0.14 0.09 0.11 0.08 0.11 0.10 0.12 0.16 0.17 0.20 0.18 0.13 0.09 0.07 0.07 0.08 0.03 0.01 0.01 0.01 0.00 0.00 0.00 0.01 0.01 0.02 0.02 0.02 0.02 0.02 0.02 0.03 0.03 0.02 0.01 0.01 0.01 0.01 0.02 0.01 0.02 0.02 0.01 0.00
0.05 0.04 0.03 0.03 0.08 0.10 0.12 0.10 0.08 0.09 0.09 0.09 0.13 0.12 0.11 0.10 0.12 0.16 0.14 0.15 0.23 0.15 0.08 0.07 0.05 0.04 0.03 0.01 0.01 0.00 0.00 0.00 0.00 0.01 0.02 0.02 0.01 0.01 0.01 0.02 0.02 0.01 0.01 0.01 0.01 0.01 0.01 0.02 0.02 0.01 0.01 0.00 0.00 0.01

GFSWCAN_prec_precacc_096.txt.gz
Total_Precipitation_Accumulation
1.34 1.37 1.15 0.87 0.84 0.79 0.89 0.87 0.89 0.94 0.88 0.71 0.66 0.59 0.76 0.73 0.84 1.22 1.19 1.26 2.02 2.04 0.68 0.47 0.29 0.23 0.25 0.34 0.59 0.58 0.91 0.89 0.64 0.63 0.54 0.61 0.71 0.37 0.62 1.09 0.59 0.58 0.48 0.47 0.60 0.85 0.64 0.10 0.28 0.55 0.70 0.33 0.16 0.15
1.45 1.43 0.91 0.78 0.70 0.71 0.76 0.77 0.85 0.76 0.89 0.72 0.72 0.69 0.78 0.89 1.03 1.25 1.35 1.06 1.50 2.11 1.14 0.47 0.25 0.15 0.07 0.06 0.19 0.44 0.65 0.70 0.76 0.61 0.36 0.35 0.42 0.45 0.57 0.78 0.80 1.34 1.09 1.12 0.75 0.69 0.47 0.27 0.37 0.42 0.32 0.28 0.23 0.34
1.32 1.20 0.86 0.70 0.61 0.57 0.63 0.73 0.71 0.69 0.78 0.64 0.60 0.65 0.89 1.15 1.20 1.38 1.37 1.03 2.43 2.59 1.61 0.68 0.32 0.10 0.04 0.04 0.09 0.39 0.22 0.55 0.89 0.69 0.81 0.51 0.44 0.32 0.34 0.64 0.63 0.55 0.51 0.91 0.83 0.62 0.35 0.48 0.39 0.19 0.15 0.14 0.12 0.15
1.21 1.05 0.85 0.61 0.55 0.53 0.56 0.52 0.50 0.57 0.62 0.67 0.72 0.76 1.03 1.29 1.27 1.75 1.78 1.43 2.67 1.83 1.71 1.04 0.50 0.18 0.13 0.08 0.15 0.18 0.16 0.26 0.51 0.63 0.82 0.69 0.42 0.38 0.33 0.47 0.40 0.36 0.58 0.51 0.82 0.86 0.63 0.59 0.88 0.53 0.30 0.21 0.22 0.22
0.93 0.70 0.68 0.50 0.45 0.45 0.43 0.40 0.43 0.47 0.50 0.62 0.68 0.91 1.28 1.42 1.55 2.39 2.28 2.01 1.81 1.48 1.40 1.25 0.34 0.29 0.21 0.18 0.15 0.31 0.34 0.38 0.66 0.67 0.61 0.34 0.32 0.63 0.59 0.60 0.42 0.37 0.90 0.85 0.78 1.01 1.14 1.17 0.74 0.58 0.64 0.49 0.36 0.19
0.72 0.52 0.55 0.48 0.37 0.33 0.34 0.40 0.47 0.47 0.45 0.55 0.74 1.03 1.18 1.43 2.52 4.18 5.20 3.16 1.71 1.53 1.82 1.53 0.65 0.29 0.39 0.34 0.35 0.25 0.47 0.70 0.82 0.99 0.53 0.19 0.21 0.75 0.69 0.89 0.61 0.43 0.44 0.61 0.91 0.99 1.04 0.92 0.56 0.34 0.24 0.29 0.31 0.22
0.70 0.57 0.56 0.52 0.35 0.33 0.32 0.35 0.43 0.48 0.56 0.74 0.85 0.98 1.02 1.42 2.07 3.12 2.57 1.56 1.22 1.68 2.34 1.63 1.03 0.50 0.45 0.61 0.70 0.83 0.60 1.03 1.44 1.27 0.69 0.32 0.24 0.51 0.70 0.78 0.59 0.39 0.46 0.47 0.65 0.59 0.39 0.32 0.25 0.15 0.06 0.04 0.02 0.02
0.66 0.58 0.54 0.59 0.44 0.44 0.35 0.40 0.50 0.60 0.70 0.85 1.07 1.23 1.40 1.69 2.22 2.05 1.28 1.31 1.16 1.84 1.69 1.36 1.21 1.10 0.82 1.11 1.04 1.01 1.13 1.18 1.33 1.34 0.85 0.54 0.60 0.77 0.82 0.61 0.35 0.25 0.39 0.33 0.34 0.25 0.18 0.12 0.05 0.03 0.01 0.01 0.01 0.01
0.73 0.64 0.53 0.64 0.55 0.46 0.38 0.51 0.64 0.87 0.92 1.29 1.58 2.07 3.07 2.66 2.52 1.74 1.52 1.69 1.37 1.41 1.10 0.60 0.87 1.76 1.65 1.57 1.25 1.03 1.40 1.44 1.07 0.85 0.67 0.78 1.06 1.10 0.72 0.30 0.27 0.22 0.28 0.30 0.18 0.06 0.03 0.04 0.03 0.02 0.00 0.01 0.01 0.02
0.75 0.63 0.47 0.52 0.51 0.62 0.69 0.84 1.07 1.18 1.38 1.71 2.12 2.93 3.08 2.01 1.71 1.93 2.71 2.74 2.32 1.24 0.83 0.56 0.46 1.13 1.75 1.86 1.49 1.25 1.04 0.94 0.94 0.73 0.81 1.08 0.87 0.47 0.19 0.18 0.17 0.14 0.17 0.18 0.16 0.10 0.05 0.05 0.03 0.02 0.03 0.04 0.05 0.09
0.51 0.49 0.48 0.51 0.52 0.57 0.70 0.84 1.35 1.35 1.57 1.46 1.80 2.38 1.88 1.85 1.97 2.17 2.03 1.54 1.35 0.73 0.31 0.41 0.50 0.94 1.16 1.80 1.43 1.06 1.15 0.77 0.52 0.66 0.71 0.99 0.56 0.31 0.10 0.06 0.08 0.13 0.17 0.22 0.24 0.24 0.23 0.19 0.14 0.09 0.13 0.16 0.15 0.15
0.54 0.50 0.50 0.49 0.50 0.62 0.75 0.99 1.18 0.81 0.97 0.90 1.42 1.65 2.11 2.07 1.70 1.30 0.98 0.74 0.55 0.31 0.25 0.38 0.64 1.16 1.07 1.46 1.49 1.30 1.13 0.92 0.80 0.60 0.51 0.66 0.48 0.24 0.16 0.13 0.10 0.15 0.21 0.26 0.25 0.24 0.26 0.25 0.25 0.21 0.21 0.20 0.21 0.25
0.50 0.55 0.61 0.49 0.48 0.58 0.71 0.94 0.96 0.87 1.10 1.18 0.89 1.06 1.20 1.03 0.94 0.71 0.51 0.47 0.43 0.26 0.30 0.41 0.82 1.41 1.11 1.47 1.41 1.03 1.49 1.09 0.80 0.96 0.65 0.44 0.24 0.17 0.17 0.19 0.23 0.25 0.24 0.26 0.30 0.32 0.29 0.29 0.27 0.24 0.27 0.37 0.38 0.51
0.46 0.55 0.74 0.76 0.83 0.91 1.15 1.38 1.69 1.54 1.19 0.82 0.75 0.65 0.90 0.66 0.58 0.52 0.51 0.48 0.29 0.21 0.26 0.72 0.93 1.17 1.24 1.47 1.17 0.81 1.09 1.06 0.95 0.74 0.50 0.42 0.37 0.33 0.29 0.29 0.27 0.36 0.38 0.39 0.47 0.47 0.53 0.57 0.70 0.81 0.88 0.99 0.82 0.92
0.51 0.73 0.95 0.97 1.03 1.13 1.32 1.48 1.50 0.92 0.60 0.71 0.70 0.76 0.59 0.71 0.62 0.65 0.55 0.40 0.31 0.33 0.47 0.83 0.99 0.91 0.88 1.49 0.88 0.70 0.73 0.82 0.71 0.73 0.49 0.63 0.57 0.51 0.53 0.58 0.62 0.71 0.78 0.86 0.95 0.89 0.97 0.94 0.76 0.93 1.02 0.94 0.76 0.75
0.55 1.18 1.16 1.05 1.12 1.07 1.23 1.17 0.99 0.56 0.54 0.77 0.91 0.78 0.62 0.60 0.62 0.59 0.52 0.44 0.43 0.55 0.63 0.97 1.04 0.73 0.66 0.47 0.48 0.49 0.56 0.84 0.60 0.54 0.65 0.64 0.71 0.83 0.88 0.93 1.01 1.02 0.97 0.96 0.94 0.82 0.78 0.72 0.62 0.65 0.63 0.56 0.55 0.44
0.85 1.40 1.18 0.98 0.89 0.87 0.94 0.69 0.51 0.48 0.68 0.69 0.93 1.02 0.89 0.73 0.79 0.81 0.72 0.60 0.55 0.61 0.75 0.63 0.68 0.67 0.60 0.27 0.24 0.33 0.60 0.83 0.87 0.91 0.86 0.84 0.91 1.02 1.02 0.94 0.93 0.78 0.68 0.65 0.60 0.53 0.49 0.46 0.30 0.18 0.22 0.29 0.20 0.17
0.71 0.66 0.63 0.58 0.55 0.67 0.47 0.23 0.33 0.31 0.42 0.72 0.74 1.02 0.76 0.90 0.89 0.82 0.82 0.72 0.65 0.60 0.62 0.65 0.66 0.46 0.53 0.48 0.55 0.78 0.89 1.04 1.00 0.91 0.92 1.01 0.93 0.90 0.87 0.77 0.78 0.63 0.50 0.48 0.39 0.36 0.31 0.22 0.15 0.19 0.17 0.15 0.09 0.09
0.76 0.61 0.58 0.40 0.33 0.29 0.24 0.15 0.13 0.22 0.61 0.66 0.67 0.54 0.45 0.60 0.60 0.61 0.49 0.42 0.29 0.18 0.17 0.18 0.25 0.44 0.66 0.75 0.80 0.88 0.88 0.67 0.66 0.67 0.70 0.81 0.80 0.76 0.76 0.68 0.61 0.53 0.39 0.32 0.21 0.20 0.21 0.19 0.21 0.18 0.16 0.11 0.14 0.16
0.80 0.62 0.52 0.36 0.33 0.31 0.19 0.13 0.03 0.13 0.47 0.56 0.52 0.29 0.26 0.39 0.28 0.15 0.07 0.03 0.02 0.03 0.12 0.30 0.69 0.86 0.81 0.90 0.70 0.67 0.64 0.55 0.42 0.37 0.52 0.64 0.66 0.54 0.58 0.46 0.42 0.35 0.25 0.23 0.22 0.19 0.17 0.17 0.17 0.13 0.11 0.11 0.11 0.12
0.71 0.46 0.21 0.18 0.24 0.11 0.14 0.09 0.13 0.14 0.26 0.35 0.29 0.13 0.21 0.09 0.07 0.06 0.04 0.01 0.07 0.20 0.58 0.84 0.82 0.91 0.66 0.65 0.58 0.49 0.55 0.49 0.51 0.32 0.32 0.40 0.46 0.31 0.35 0.38 0.30 0.24 0.21 0.24 0.21 0.22 0.18 0.16 0.15 0.11 0.08 0.07 0.07 0.06
0.32 0.17 0.14 0.17 0.14 0.03 0.10 0.03 0.09 0.08 0.05 0.10 0.08 0.04 0.06 0.06 0.05 0.02 0.03 0.09 0.39 0.69 0.70 0.60 0.56 0.42 0.30 0.35 0.36 0.27 0.35 0.28 0.31 0.35 0.36 0.32 0.34 0.32 0.37 0.40 0.27 0.28 0.29 0.26 0.22 0.18 0.13 0.09 0.06 0.04 0.03 0.03 0.02 0.01
0.06 0.07 0.07 0.06 0.16 0.06 0.11 0.06 0.05 0.08 0.04 0.05 0.03 0.04 0.04 0.04 0.03 0.01 0.07 0.22 0.61 0.79 0.51 0.26 0.26 0.18 0.24 0.33 0.20 0.20 0.22 0.19 0.25 0.33 0.36 0.34 0.33 0.33 0.27 0.25 0.22 0.16 0.13 0.11 0.07 0.04 0.03 0.01 0.01 0.00 0.01 0.01 0.02 0.02
0.06 0.08 0.08 0.11 0.10 0.08 0.07 0.06 0.01 0.02 0.02 0.02 0.01 0.05 0.06 0.04 0.01 0.02 0.12 0.28 0.55 0.45 0.27 0.29 0.18 0.15 0.16 0.17 0.20 0.27 0.32 0.25 0.22 0.24 0.23 0.16 0.14 0.14 0.08 0.07 0.05 0.04 0.03 0.01 0.00 0.01 0.00 0.01 0.00 0.01 0.01 0.01 0.02 0.02
0.16 0.10 0.11 0.15 0.07 0.02 0.02 0.03 0.03 0.02 0.03 0.01 0.03 0.06 0.04 0.02 0.03 0.04 0.09 0.31 0.30 0.31 0.33 0.30 0.22 0.20 0.22 0.26 0.26 0.23 0.17 0.10 0.08 0.09 0.11 0.06 0.05 0.04 0.02 0.01 0.01 0.01 0.00 0.02 0.02 0.01 0.01 0.01 0.01 0.01 0.01 0.01 0.01 0.02
0.19 0.12 0.03 0.06 0.04 0.02 0.01 0.02 0.02 0.02 0.02 0.04 0.06 0.06 0.05 0.05 0.05 0.12 0.19 0.28 0.23 0.29 0.35 0.35 0.30 0.22 0.20 0.15 0.12 0.10 0.07 0.03 0.01 0.01 0.03 0.01 0.01 0.01 0.00 0.00 0.01 0.02 0.01 0.01 0.02 0.02 0.02 0.01 0.01 0.00 0.01 0.02 0.02 0.03
0.07 0.10 0.04 0.03 0.05 0.03 0.02 0.02 0.01 0.02 0.06 0.07 0.09 0.07 0.07 0.11 0.11 0.26 0.35 0.26 0.26 0.31 0.26 0.24 0.16 0.13 0.11 0.09 0.07 0.05 0.01 0.00 0.00 0.00 0.01 0.00 0.00 0.00 0.00 0.01 0.02 0.03 0.01 0.01 0.01 0.01 0.02 0.02 0.03 0.02 0.02 0.03 0.05 0.05
0.03 0.02 0.03 0.02 0.01 0.01 0.03 0.03 0.04 0.09 0.12 0.09 0.08 0.06 0.05 0.10 0.26 0.38 0.35 0.37 0.29 0.18 0.14 0.14 0.13 0.07 0.04 0.05 0.07 0.05 0.03 0.02 0.00 0.00 0.01 0.03 0.02 0.00 0.01 0.01 0.01 0.01 0.01 0.01 0.01 0.02 0.03 0.03 0.04 0.04 0.03 0.03 0.02 0.04
0.03 0.02 0.01 0.02 0.01 0.02 0.08 0.10 0.11 0.11 0.11 0.08 0.06 0.10 0.12 0.22 0.33 0.32 0.33 0.30 0.24 0.14 0.10 0.10 0.17 0.08 0.06 0.05 0.03 0.02 0.01 0.01 0.01 0.01 0.02 0.04 0.06 0.05 0.02 0.02 0.02 0.01 0.02 0.02 0.02 0.02 0.05 0.05 0.05 0.03 0.01 0.02 0.04 0.07
0.01 0.01 0.01 0.01 0.03 0.10 0.20 0.14 0.16 0.11 0.04 0.04 0.05 0.11 0.15 0.41 0.61 0.38 0.28 0.24 0.21 0.18 0.14 0.11 0.13 0.09 0.09 0.07 0.06 0.07 0.06 0.02 0.01 0.01 0.02 0.02 0.03 0.04 0.03 0.03 0.02 0.02 0.03 0.02 0.01 0.01 0.02 0.01 0.02 0.02 0.03 0.03 0.03 0.03
0.01 0.01 0.02 0.02 0.11 0.19 0.17 0.11 0.09 0.09 0.07 0.06 0.05 0.08 0.15 0.30 0.33 0.29 0.25 0.25 0.19 0.14 0.09 0.10 0.09 0.06 0.03 0.02 0.02 0.02 0.05 0.04 0.02 0.01 0.01 0.01 0.02 0.03 0.02 0.02 0.03 0.03 0.03 0.02 0.02 0.02 0.01 0.00 0.01 0.01 0.01 0.01 0.01 0.01
0.05 0.07 0.04 0.05 0.16 0.17 0.19 0.17 0.10 0.16 0.14 0.09 0.11 0.08 0.11 0.10 0.12 0.16 0.17 0.21 0.20 0.14 0.10 0.07 0.08 0.09 0.04 0.02 0.02 0.02 0.01 0.02 0.02 0.01 0.01 0.02 0.02 0.02 0.02 0.02 0.02 0.03 0.03 0.02 0.01 0.01 0.01 0.01 0.02 0.01 0.02 0.02 0.01 0.00
0.14 0.13 0.09 0.06 0.10 0.12 0.13 0.13 0.12 0.10 0.09 0.09 0.13 0.12 0.11 0.10 0.12 0.16 0.15 0.16 0.24 0.15 0.08 0.07 0.05 0.05 0.06 0.04 0.03 0.03 0.02 0.02 0.02 0.01 0.02 0.02 0.01 0.01 0.01 0.02 0.02 0.01 0.01 0.01 0.01 0.01 0.01 0.02 0.02 0.01 0.01 0.00 0.00 0.01

GFSWCAN_prec_precacc_102.txt.gz
Total_Precipitation_Accumulation
1.39 1.43 1.46 1.28 0.91 0.81 0.93 0.91 0.91 0.95 0.88 0.71 0.66 0.59 0.77 0.74 0.84 1.22 1.19 1.26 2.02 2.04 0.68 0.47 0.29 0.23 0.25 0.34 0.59 0.58 0.91 0.89 0.64 0.63 0.54 0.61 0.71 0.37 0.62 1.09 0.61 0.60 0.49 0.49 0.61 0.86 0.65 0.11 0.28 0.58 0.75 0.42 0.29 0.36
1.50 1.56 1.25 1.02 0.73 0.73 0.81 0.80 0.86 0.77 0.89 0.72 0.72 0.69 0.78 0.89 1.03 1.25 1.35 1.06 1.50 2.11 1.14 0.47 0.25 0.15 0.07 0.06 0.19 0.44 0.65 0.70 0.76 0.61 0.36 0.35 0.42 0.45 0.57 0.79 0.81 1.35 1.11 1.13 0.77 0.70 0.48 0.29 0.40 0.47 0.39 0.40 0.42 0.57
1.38 1.58 1.17 0.77 0.63 0.61 0.69 0.76 0.72 0.70 0.78 0.64 0.60 0.65 0.89 1.15 1.20 1.38 1.37 1.03 2.43 2.59 1.61 0.68 0.32 0.10 0.04 0.04 0.09 0.39 0.22 0.55 0.89 0.69 0.81 0.51 0.44 0.32 0.34 0.64 0.64 0.56 0.52 0.93 0.85 0.65 0.38 0.53 0.44 0.25 0.24 0.26 0.28 0.29
1.40 1.63 1.01 0.64 0.59 0.57 0.62 0.55 0.51 0.58 0.62 0.67 0.72 0.76 1.03 1.29 1.27 1.75 1.78 1.43 2.67 1.83 1.71 1.04 0.50 0.18 0.13 0.08 0.15 0.18 0.16 0.26 0.51 0.63 0.82 0.69 0.42 0.38 0.34 0.47 0.40 0.36 0.59 0.52 0.84 0.90 0.66 0.64 0.93 0.59 0.39 0.29 0.29 0.31
1.43 1.20 0.75 0.53 0.47 0.47 0.47 0.41 0.43 0.48 0.50 0.62 0.68 0.91 1.28 1.42 1.55 2.39 2.28 2.01 1.81 1.48 1.40 1.25 0.34 0.29 0.21 0.18 0.15 0.31 0.34 0.38 0.66 0.67 0.61 0.34 0.32 0.63 0.59 0.60 0.42 0.37 0.91 0.85 0.79 1.02 1.16 1.22 0.80 0.64 0.71 0.57 0.42 0.21
1.33 0.79 0.60 0.51 0.39 0.35 0.36 0.41 0.47 0.47 0.46 0.55 0.74 1.03 1.18 1.43 2.52 4.18 5.20 3.16 1.71 1.53 1.82 1.53 0.65 0.29 0.39 0.34 0.35 0.25 0.47 0.70 0.82 0.99 0.53 0.19 0.21 0.75 0.69 0.89 0.61 0.43 0.44 0.61 0.91 0.99 1.04 0.94 0.59 0.36 0.25 0.30 0.31 0.22
1.10 0.69 0.59 0.53 0.36 0.34 0.33 0.36 0.44 0.49 0.57 0.74 0.85 0.98 1.02 1.42 2.07 3.12 2.57 1.56 1.22 1.68 2.34 1.63 1.03 0.50 0.45 0.61 0.70 0.83 0.60 1.03 1.44 1.27 0.69 0.32 0.24 0.51 0.70 0.79 0.60 0.39 0.46 0.47 0.65 0.59 0.40 0.33 0.26 0.15 0.06 0.04 0.02 0.02
0.82 0.63 0.56 0.60 0.44 0.45 0.37 0.42 0.53 0.62 0.70 0.85 1.07 1.23 1.40 1.69 2.22 2.05 1.28 1.31 1.16 1.84 1.69 1.36 1.21 1.10 0.82 1.11 1.04 1.01 1.13 1.18 1.33 1.34 0.85 0.54 0.60 0.77 0.83 0.61 0.36 0.26 0.39 0.34 0.34 0.25 0.18 0.12 0.05 0.03 0.01 0.01 0.01 0.01
0.80 0.66 0.54 0.64 0.55 0.47 0.40 0.53 0.67 0.89 0.92 1.29 1.58 2.07 3.07 2.66 2.52 1.74 1.52 1.69 1.37 1.41 1.10 0.60 0.87 1.76 1.65 1.57 1.25 1.03 1.40 1.44 1.07 0.85 0.67 0.78 1.06 1.10 0.72 0.30 0.27 0.22 0.28 0.30 0.19 0.06 0.03 0.04 0.03 0.02 0.00 0.01 0.01 0.02
0.79 0.64 0.48 0.52 0.51 0.62 0.70 0.86 1.10 1.19 1.38 1.71 2.12 2.93 3.08 2.01 1.71 1.93 2.71 2.74 2.32 1.24 0.83 0.56 0.46 1.13 1.75 1.86 1.49 1.25 1.04 0.94 0.94 0.73 0.81 1.09 0.87 0.47 0.19 0.18 0.17 0.14 0.17 0.18 0.16 0.10 0.06 0.05 0.03 0.02 0.03 0.04 0.05 0.09
0.54 0.50 0.48 0.51 0.52 0.57 0.71 0.86 1.36 1.35 1.57 1.46 1.80 2.38 1.88 1.85 1.97 2.17 2.03 1.54 1.35 0.73 0.31 0.41 0.50 0.94 1.16 1.80 1.43 1.06 1.15 0.77 0.52 0.66 0.72 1.00 0.56 0.31 0.11 0.07 0.09 0.14 0.18 0.22 0.24 0.24 0.23 0.19 0.14 0.09 0.13 0.16 0.15 0.15
0.59 0.51 0.50 0.49 0.51 0.63 0.76 1.00 1.18 0.81 0.97 0.90 1.42 1.65 2.11 2.07 1.70 1.30 0.98 0.74 0.55 0.31 0.25 0.38 0.64 1.16 1.07 1.46 1.49 1.30 1.14 0.95 0.87 0.62 0.51 0.70 0.50 0.25 0.18 0.15 0.12 0.15 0.21 0.28 0.25 0.24 0.26 0.25 0.25 0.21 0.21 0.20 0.21 0.25
0.53 0.55 0.61 0.50 0.50 0.60 0.71 0.94 0.96 0.87 1.10 1.18 0.89 1.06 1.20 1.03 0.94 0.71 0.51 0.47 0.44 0.26 0.30 0.41 0.82 1.41 1.11 1.47 1.41 1.03 1.50 1.17 0.89 1.08 0.68 0.46 0.25 0.19 0.18 0.20 0.23 0.25 0.24 0.29 0.32 0.33 0.29 0.29 0.27 0.24 0.27 0.37 0.38 0.51
0.47 0.55 0.74 0.77 0.84 0.92 1.15 1.38 1.69 1.54 1.19 0.82 0.75 0.65 0.90 0.66 0.58 0.52 0.51 0.48 0.30 0.21 0.26 0.72 0.93 1.17 1.24 1.47 1.17 0.81 1.09 1.06 0.97 0.77 0.51 0.43 0.37 0.33 0.30 0.29 0.27 0.36 0.39 0.41 0.48 0.48 0.53 0.57 0.70 0.81 0.88 0.99 0.82 0.92
0.53 0.74 0.96 0.98 1.05 1.15 1.32 1.48 1.50 0.92 0.60 0.71 0.70 0.77 0.59 0.72 0.65 0.68 0.57 0.41 0.31 0.33 0.47 0.83 0.99 0.91 0.88 1.49 0.88 0.70 0.73 0.82 0.72 0.73 0.49 0.63 0.57 0.51 0.53 0.58 0.62 0.71 0.78 0.86 0.95 0.89 0.97 0.94 0.76 0.93 1.02 0.94 0.76 0.75
0.57 1.19 1.18 1.09 1.15 1.07 1.23 1.17 0.99 0.56 0.54 0.77 0.92 0.80 0.65 0.63 0.65 0.61 0.53 0.45 0.43 0.55 0.63 0.97 1.04 0.73 0.66 0.47 0.48 0.49 0.56 0.84 0.60 0.54 0.65 0.64 0.71 0.83 0.88 0.93 1.01 1.02 0.97 0.96 0.94 0.82 0.78 0.72 0.62 0.65 0.63 0.56 0.55 0.44
0.85 1.41 1.25 1.02 0.89 0.87 0.94 0.69 0.51 0.48 0.68 0.69 0.94 1.04 0.90 0.74 0.80 0.82 0.73 0.60 0.55 0.61 0.75 0.63 0.68 0.67 0.60 0.27 0.24 0.34 0.60 0.83 0.87 0.92 0.87 0.84 0.91 1.02 1.02 0.94 0.93 0.78 0.68 0.65 0.60 0.53 0.49 0.46 0.30 0.18 0.22 0.29 0.20 0.17
0.72 0.69 0.68 0.60 0.55 0.67 0.47 0.23 0.33 0.31 0.42 0.72 0.76 1.03 0.76 0.90 0.90 0.82 0.82 0.72 0.66 0.60 0.62 0.65 0.66 0.46 0.54 0.48 0.55 0.78 0.90 1.04 1.00 0.91 0.93 1.01 0.93 0.90 0.87 0.77 0.78 0.63 0.50 0.48 0.39 0.36 0.31 0.22 0.15 0.19 0.17 0.15 0.09 0.09
0.77 0.63 0.58 0.40 0.33 0.29 0.24 0.15 0.13 0.22 0.62 0.66 0.68 0.54 0.45 0.60 0.61 0.61 0.49 0.44 0.29 0.18 0.17 0.18 0.25 0.45 0.66 0.75 0.80 0.88 0.88 0.67 0.67 0.67 0.71 0.81 0.80 0.76 0.76 0.68 0.61 0.53 0.39 0.32 0.21 0.20 0.21 0.19 0.21 0.18 0.16 0.11 0.14 0.16
0.84 0.64 0.52 0.36 0.33 0.31 0.19 0.13 0.03 0.14 0.47 0.56 0.53 0.29 0.26 0.39 0.28 0.15 0.07 0.04 0.02 0.03 0.12 0.30 0.69 0.86 0.81 0.90 0.70 0.67 0.64 0.55 0.42 0.38 0.53 0.65 0.66 0.54 0.58 0.46 0.42 0.35 0.25 0.23 0.22 0.19 0.17 0.17 0.17 0.13 0.11 0.11 0.11 0.12
0.80 0.50 0.21 0.18 0.24 0.11 0.14 0.09 0.13 0.14 0.26 0.35 0.29 0.13 0.21 0.09 0.08 0.06 0.04 0.01 0.07 0.20 0.58 0.84 0.82 0.91 0.66 0.65 0.58 0.49 0.55 0.49 0.51 0.32 0.32 0.40 0.47 0.31 0.35 0.38 0.30 0.24 0.21 0.24 0.21 0.22 0.18 0.16 0.15 0.11 0.08 0.07 0.07 0.06
0.35 0.17 0.14 0.17 0.14 0.03 0.11 0.03 0.09 0.08 0.05 0.10 0.08 0.04 0.06 0.06 0.05 0.03 0.04 0.10 0.39 0.69 0.70 0.60 0.56 0.42 0.30 0.35 0.36 0.27 0.35 0.28 0.31 0.35 0.36 0.32 0.34 0.33 0.37 0.40 0.27 0.28 0.29 0.26 0.22 0.18 0.13 0.09 0.06 0.04 0.03 0.03 0.02 0.01
0.06 0.07 0.07 0.06 0.16 0.06 0.13 0.07 0.06 0.08 0.04 0.05 0.03 0.04 0.05 0.04 0.03 0.01 0.08 0.22 0.61 0.79 0.51 0.26 0.26 0.18 0.24 0.33 0.20 0.20 0.22 0.19 0.25 0.33 0.36 0.34 0.33 0.33 0.27 0.25 0.22 0.16 0.13 0.11 0.07 0.04 0.03 0.01 0.01 0.00 0.01 0.01 0.02 0.02
0.06 0.08 0.08 0.11 0.10 0.08 0.09 0.09 0.01 0.02 0.03 0.02 0.01 0.05 0.06 0.04 0.01 0.03 0.12 0.28 0.55 0.45 0.27 0.29 0.18 0.15 0.16 0.17 0.20 0.27 0.32 0.25 0.22 0.24 0.23 0.16 0.14 0.14 0.08 0.07 0.05 0.04 0.03 0.01 0.00 0.01 0.00 0.01 0.00 0.01 0.01 0.01 0.02 0.02
0.16 0.10 0.11 0.15 0.07 0.02 0.02 0.04 0.03 0.02 0.03 0.01 0.03 0.06 0.04 0.02 0.03 0.05 0.09 0.31 0.30 0.31 0.33 0.31 0.23 0.20 0.22 0.27 0.26 0.23 0.17 0.10 0.08 0.09 0.11 0.06 0.05 0.04 0.02 0.01 0.01 0.01 0.00 0.02 0.02 0.02 0.01 0.01 0.01 0.01 0.01 0.01 0.01 0.02
0.19 0.12 0.03 0.06 0.05 0.02 0.01 0.03 0.02 0.02 0.02 0.04 0.06 0.06 0.05 0.05 0.06 0.12 0.19 0.28 0.23 0.29 0.35 0.35 0.30 0.22 0.21 0.15 0.12 0.10 0.07 0.03 0.01 0.01 0.04 0.01 0.01 0.01 0.01 0.01 0.01 0.02 0.01 0.01 0.02 0.02 0.03 0.01 0.01 0.00 0.01 0.02 0.02 0.03
0.07 0.10 0.04 0.04 0.05 0.04 0.02 0.02 0.01 0.02 0.06 0.07 0.09 0.07 0.08 0.12 0.11 0.26 0.35 0.26 0.27 0.31 0.26 0.24 0.16 0.13 0.12 0.09 0.08 0.06 0.02 0.00 0.00 0.00 0.01 0.00 0.00 0.00 0.00 0.01 0.02 0.03 0.01 0.01 0.01 0.01 0.02 0.02 0.03 0.02 0.02 0.03 0.05 0.05
0.03 0.02 0.03 0.04 0.03 0.04 0.05 0.04 0.04 0.09 0.12 0.09 0.08 0.06 0.05 0.10 0.26 0.39 0.35 0.37 0.29 0.18 0.14 0.15 0.13 0.07 0.04 0.05 0.07 0.05 0.03 0.02 0.01 0.01 0.01 0.03 0.02 0.01 0.01 0.01 0.01 0.01 0.01 0.01 0.01 0.02 0.03 0.03 0.04 0.04 0.03 0.03 0.02 0.04
0.03 0.02 0.01 0.03 0.04 0.04 0.08 0.10 0.11 0.11 0.11 0.08 0.06 0.10 0.12 0.22 0.33 0.32 0.33 0.30 0.24 0.14 0.10 0.11 0.18 0.08 0.06 0.05 0.04 0.03 0.01 0.01 0.01 0.01 0.02 0.04 0.06 0.06 0.02 0.02 0.02 0.01 0.02 0.02 0.02 0.02 0.05 0.05 0.05 0.03 0.01 0.02 0.04 0.07
0.01 0.01 0.01 0.01 0.03 0.10 0.20 0.14 0.16 0.11 0.04 0.04 0.05 0.11 0.15 0.41 0.61 0.38 0.28 0.25 0.21 0.19 0.14 0.11 0.13 0.09 0.09 0.07 0.07 0.08 0.07 0.02 0.01 0.01 0.02 0.02 0.03 0.04 0.04 0.03 0.02 0.02 0.03 0.02 0.02 0.01 0.02 0.02 0.02 0.02 0.03 0.03 0.03 0.03
0.01 0.02 0.02 0.02 0.11 0.19 0.17 0.11 0.09 0.09 0.07 0.06 0.05 0.08 0.15 0.30 0.33 0.29 0.25 0.25 0.19 0.14 0.09 0.11 0.10 0.06 0.03 0.03 0.02 0.02 0.06 0.05 0.03 0.02 0.01 0.01 0.02 0.04 0.03 0.02 0.03 0.03 0.03 0.02 0.02 0.02 0.01 0.00 0.01 0.01 0.01 0.01 0.01 0.01
0.06 0.09 0.05 0.05 0.16 0.17 0.19 0.17 0.11 0.16 0.14 0.09 0.11 0.08 0.11 0.10 0.12 0.16 0.17 0.21 0.21 0.15 0.10 0.07 0.08 0.09 0.04 0.03 0.03 0.03 0.01 0.03 0.03 0.01 0.01 0.02 0.02 0.03 0.03 0.02 0.02 0.03 0.03 0.02 0.01 0.01 0.01 0.01 0.02 0.01 0.02 0.02 0.01 0.00
0.18 0.18 0.14 0.11 0.13 0.14 0.15 0.18 0.17 0.13 0.10 0.09 0.13 0.12 0.12 0.10 0.12 0.16 0.15 0.16 0.24 0.15 0.08 0.08 0.06 0.06 0.07 0.06 0.05 0.05 0.04 0.04 0.04 0.02 0.02 0.02 0.01 0.01 0.01 0.02 0.02 0.01 0.01 0.01 0.01 0.01 0.01 0.02 0.02 0.01 0.01 0.00 0.00 0.01

GFSWCAN_prec_precacc_105.txt.gz
Total_Precipitation_Accumulation
1.41 1.45 1.47 1.29 0.93 0.89 1.06 1.04 0.94 0.96 0.88 0.71 0.67 0.60 0.77 0.74 0.85 1.26 1.23 1.26 2.03 2.05 0.68 0.47 0.29 0.23 0.25 0.34 0.59 0.58 0.91 0.89 0.64 0.63 0.54 0.61 0.71 0.38 0.62 1.10 0.62 0.61 0.50 0.49 0.62 0.87 0.68 0.11 0.28 0.59 0.78 0.43 0.29 0.37
1.52 1.58 1.26 1.11 0.80 0.76 0.87 0.83 0.87 0.77 0.89 0.72 0.73 0.71 0.80 0.90 1.04 1.28 1.37 1.06 1.50 2.11 1.14 0.47 0.25 0.15 0.07 0.06 0.19 0.44 0.65 0.70 0.76 0.61 0.36 0.35 0.43 0.46 0.58 0.80 0.82 1.36 1.12 1.16 0.79 0.73 0.49 0.29 0.41 0.47 0.40 0.41 0.44 0.59
1.38 1.61 1.25 0.92 0.71 0.64 0.71 0.77 0.73 0.70 0.78 0.65 0.62 0.68 0.91 1.16 1.20 1.38 1.37 1.03 2.43 2.59 1.61 0.68 0.32 0.10 0.04 0.04 0.09 0.39 0.22 0.55 0.89 0.69 0.81 0.51 0.45 0.33 0.36 0.65 0.64 0.56 0.52 0.93 0.86 0.66 0.38 0.53 0.44 0.25 0.25 0.27 0.30 0.31
1.40 1.68 1.15 0.71 0.61 0.59 0.62 0.56 0.51 0.58 0.62 0.68 0.75 0.78 1.04 1.29 1.27 1.75 1.78 1.43 2.67 1.83 1.71 1.04 0.50 0.18 0.13 0.08 0.15 0.18 0.16 0.26 0.51 0.63 0.82 0.70 0.43 0.39 0.35 0.47 0.42 0.36 0.59 0.52 0.85 0.91 0.67 0.64 0.93 0.59 0.40 0.30 0.31 0.32
1.43 1.26 0.81 0.56 0.49 0.48 0.47 0.42 0.43 0.48 0.51 0.64 0.69 0.91 1.28 1.42 1.55 2.39 2.28 2.01 1.81 1.48 1.40 1.25 0.34 0.29 0.21 0.18 0.15 0.31 0.34 0.38 0.66 0.67 0.61 0.34 0.32 0.63 0.60 0.60 0.43 0.37 0.91 0.85 0.79 1.02 1.16 1.22 0.81 0.64 0.72 0.58 0.42 0.21
1.38 0.82 0.62 0.53 0.41 0.36 0.37 0.42 0.47 0.48 0.48 0.58 0.74 1.03 1.18 1.43 2.52 4.18 5.20 3.16 1.71 1.53 1.82 1.53 0.65 0.29 0.39 0.34 0.35 0.25 0.47 0.70 0.82 0.99 0.53 0.19 0.21 0.75 0.70 0.90 0.61 0.43 0.44 0.61 0.91 0.99 1.04 0.94 0.60 0.37 0.26 0.31 0.32 0.22
1.23 0.71 0.61 0.56 0.37 0.34 0.33 0.37 0.44 0.50 0.59 0.75 0.85 0.98 1.02 1.42 2.07 3.12 2.57 1.56 1.22 1.68 2.34 1.63 1.03 0.50 0.45 0.61 0.70 0.83 0.60 1.03 1.44 1.27 0.69 0.32 0.24 0.51 0.70 0.79 0.60 0.39 0.46 0.47 0.65 0.59 0.40 0.33 0.26 0.15 0.06 0.04 0.02 0.02
0.91 0.65 0.57 0.62 0.45 0.45 0.37 0.42 0.53 0.62 0.70 0.85 1.07 1.23 1.40 1.69 2.22 2.05 1.28 1.31 1.16 1.84 1.69 1.36 1.21 1.10 0.82 1.11 1.04 1.01 1.13 1.18 1.33 1.34 0.85 0.54 0.60 0.77 0.83 0.62 0.36 0.26 0.39 0.34 0.34 0.25 0.18 0.12 0.05 0.03 0.01 0.01 0.01 0.01
0.83 0.67 0.55 0.65 0.56 0.47 0.41 0.53 0.67 0.89 0.92 1.29 1.58 2.07 3.07 2.66 2.52 1.74 1.52 1.69 1.37 1.41 1.10 0.60 0.87 1.76 1.65 1.57 1.25 1.03 1.40 1.44 1.07 0.85 0.67 0.78 1.06 1.10 0.72 0.30 0.27 0.22 0.28 0.31 0.19 0.06 0.03 0.04 0.03 0.02 0.00 0.01 0.01 0.02
0.80 0.65 0.48 0.53 0.52 0.63 0.70 0.87 1.10 1.19 1.38 1.71 2.12 2.93 3.08 2.01 1.71 1.93 2.71 2.74 2.32 1.24 0.83 0.56 0.46 1.14 1.76 1.86 1.50 1.26 1.04 0.94 0.94 0.73 0.81 1.09 0.88 0.47 0.19 0.18 0.17 0.14 0.17 0.18 0.16 0.11 0.06 0.05 0.03 0.02 0.03 0.04 0.05 0.09
0.54 0.50 0.48 0.52 0.52 0.57 0.72 0.86 1.36 1.35 1.57 1.46 1.80 2.38 1.88 1.85 1.97 2.17 2.03 1.54 1.35 0.73 0.31 0.41 0.50 0.95 1.16 1.81 1.44 1.06 1.16 0.77 0.53 0.67 0.72 1.01 0.57 0.32 0.11 0.07 0.09 0.14 0.18 0.22 0.24 0.24 0.23 0.19 0.14 0.09 0.13 0.16 0.15 0.15
0.59 0.51 0.50 0.49 0.51 0.63 0.76 1.00 1.18 0.81 0.97 0.90 1.42 1.65 2.11 2.07 1.70 1.30 0.98 0.74 0.55 0.31 0.25 0.38 0.65 1.16 1.07 1.46 1.49 1.30 1.14 0.96 0.90 0.63 0.52 0.73 0.52 0.26 0.18 0.15 0.12 0.15 0.21 0.28 0.25 0.24 0.26 0.25 0.25 0.21 0.21 0.20 0.21 0.25
0.53 0.56 0.61 0.50 0.50 0.60 0.71 0.94 0.96 0.87 1.10 1.18 0.89 1.06 1.20 1.03 0.94 0.71 0.51 0.47 0.44 0.27 0.30 0.41 0.82 1.41 1.11 1.48 1.42 1.03 1.50 1.19 0.91 1.11 0.74 0.50 0.25 0.19 0.19 0.20 0.24 0.25 0.24 0.29 0.33 0.33 0.29 0.29 0.27 0.24 0.27 0.37 0.38 0.51
0.47 0.55 0.75 0.77 0.84 0.92 1.15 1.38 1.69 1.54 1.19 0.82 0.75 0.65 0.90 0.66 0.58 0.52 0.51 0.48 0.30 0.21 0.27 0.72 0.93 1.17 1.24 1.47 1.17 0.82 1.09 1.06 0.99 0.81 0.57 0.43 0.37 0.34 0.30 0.30 0.27 0.36 0.40 0.42 0.49 0.48 0.53 0.58 0.70 0.81 0.88 0.99 0.82 0.92
0.53 0.74 0.96 0.98 1.06 1.15 1.32 1.48 1.50 0.92 0.60 0.71 0.70 0.77 0.60 0.73 0.66 0.69 0.58 0.42 0.31 0.33 0.47 0.84 1.00 0.92 0.89 1.50 0.88 0.70 0.73 0.83 0.74 0.78 0.51 0.63 0.57 0.51 0.54 0.59 0.63 0.72 0.79 0.88 0.96 0.90 0.98 0.94 0.76 0.93 1.02 0.94 0.76 0.75
0.57 1.19 1.19 1.10 1.15 1.07 1.23 1.17 0.99 0.56 0.54 0.77 0.93 0.82 0.66 0.65 0.67 0.63 0.55 0.46 0.44 0.56 0.64 0.98 1.04 0.73 0.67 0.47 0.48 0.49 0.57 0.87 0.62 0.54 0.65 0.64 0.71 0.83 0.89 0.94 1.01 1.03 0.98 0.97 0.95 0.83 0.78 0.72 0.62 0.65 0.63 0.56 0.55 0.44
0.85 1.42 1.25 1.02 0.89 0.87 0.94 0.69 0.51 0.48 0.68 0.70 0.95 1.06 0.93 0.76 0.82 0.83 0.74 0.61 0.56 0.62 0.76 0.63 0.68 0.67 0.61 0.27 0.24 0.34 0.61 0.85 0.87 0.92 0.87 0.84 0.92 1.02 1.02 0.94 0.93 0.78 0.68 0.65 0.60 0.53 0.49 0.46 0.30 0.18 0.22 0.29 0.20 0.17
0.72 0.69 0.68 0.60 0.55 0.67 0.47 0.23 0.33 0.31 0.43 0.75 0.78 1.04 0.77 0.91 0.90 0.83 0.82 0.72 0.66 0.61 0.62 0.65 0.67 0.47 0.54 0.49 0.57 0.78 0.90 1.04 1.00 0.91 0.93 1.02 0.93 0.90 0.87 0.77 0.78 0.63 0.50 0.48 0.39 0.36 0.31 0.22 0.15 0.19 0.17 0.15 0.09 0.09
0.78 0.63 0.58 0.40 0.33 0.29 0.24 0.15 0.13 0.22 0.62 0.67 0.68 0.54 0.46 0.61 0.61 0.61 0.49 0.44 0.29 0.18 0.18 0.18 0.25 0.45 0.66 0.76 0.81 0.88 0.88 0.67 0.67 0.67 0.71 0.81 0.80 0.76 0.76 0.68 0.61 0.53 0.39 0.32 0.21 0.20 0.21 0.19 0.21 0.18 0.16 0.11 0.14 0.16
0.84 0.64 0.52 0.36 0.33 0.31 0.19 0.13 0.03 0.14 0.48 0.57 0.53 0.29 0.27 0.40 0.29 0.15 0.08 0.05 0.03 0.03 0.12 0.30 0.69 0.86 0.81 0.90 0.70 0.67 0.64 0.55 0.42 0.38 0.53 0.65 0.67 0.54 0.58 0.46 0.42 0.35 0.25 0.23 0.22 0.19 0.17 0.17 0.17 0.13 0.11 0.11 0.11 0.12
0.80 0.50 0.21 0.18 0.24 0.11 0.14 0.09 0.13 0.14 0.26 0.35 0.29 0.13 0.21 0.10 0.08 0.07 0.04 0.01 0.08 0.20 0.58 0.84 0.82 0.92 0.66 0.65 0.58 0.49 0.55 0.49 0.51 0.32 0.32 0.40 0.47 0.31 0.35 0.38 0.30 0.24 0.21 0.24 0.21 0.22 0.18 0.16 0.15 0.11 0.09 0.08 0.07 0.07
0.35 0.17 0.14 0.17 0.14 0.03 0.11 0.03 0.09 0.09 0.05 0.11 0.08 0.04 0.07 0.06 0.06 0.03 0.04 0.10 0.39 0.69 0.70 0.60 0.56 0.42 0.30 0.35 0.36 0.27 0.35 0.28 0.31 0.35 0.36 0.32 0.34 0.33 0.37 0.40 0.27 0.28 0.29 0.26 0.22 0.18 0.13 0.09 0.06 0.04 0.03 0.04 0.02 0.01
0.06 0.07 0.07 0.06 0.16 0.06 0.13 0.07 0.06 0.08 0.04 0.06 0.03 0.04 0.05 0.04 0.03 0.01 0.09 0.22 0.61 0.79 0.51 0.26 0.26 0.18 0.24 0.33 0.20 0.20 0.22 0.19 0.25 0.33 0.36 0.34 0.33 0.33 0.27 0.25 0.22 0.17 0.14 0.11 0.07 0.04 0.03 0.01 0.01 0.01 0.01 0.01 0.02 0.03
0.06 0.08 0.08 0.11 0.10 0.08 0.09 0.09 0.01 0.02 0.03 0.02 0.02 0.05 0.06 0.04 0.01 0.03 0.12 0.28 0.55 0.45 0.27 0.29 0.18 0.15 0.16 0.17 0.20 0.27 0.32 0.25 0.22 0.24 0.23 0.16 0.14 0.15 0.08 0.07 0.05 0.04 0.03 0.01 0.00 0.01 0.01 0.01 0.01 0.02 0.01 0.01 0.02 0.03
0.16 0.10 0.11 0.15 0.07 0.02 0.03 0.04 0.03 0.02 0.03 0.01 0.03 0.06 0.05 0.02 0.03 0.05 0.09 0.31 0.30 0.31 0.33 0.31 0.23 0.20 0.23 0.27 0.26 0.23 0.17 0.10 0.08 0.09 0.11 0.06 0.05 0.04 0.02 0.01 0.01 0.01 0.00 0.02 0.03 0.02 0.02 0.01 0.01 0.01 0.01 0.02 0.02 0.02
0.19 0.12 0.03 0.06 0.05 0.02 0.02 0.03 0.03 0.02 0.02 0.04 0.06 0.07 0.06 0.05 0.06 0.12 0.19 0.28 0.23 0.29 0.35 0.36 0.31 0.22 0.21 0.15 0.12 0.10 0.07 0.03 0.01 0.01 0.04 0.01 0.01 0.01 0.01 0.01 0.02 0.03 0.01 0.02 0.02 0.03 0.03 0.02 0.01 0.01 0.02 0.02 0.02 0.03
0.07 0.10 0.04 0.04 0.05 0.04 0.03 0.02 0.02 0.03 0.06 0.07 0.09 0.07 0.08 0.12 0.11 0.26 0.35 0.26 0.27 0.31 0.26 0.24 0.17 0.13 0.12 0.09 0.08 0.06 0.02 0.00 0.00 0.00 0.01 0.00 0.00 0.00 0.00 0.01 0.02 0.03 0.02 0.02 0.02 0.02 0.02 0.03 0.03 0.02 0.03 0.04 0.05 0.05
0.03 0.02 0.03 0.04 0.03 0.04 0.06 0.05 0.04 0.09 0.13 0.09 0.08 0.07 0.05 0.10 0.27 0.39 0.37 0.38 0.29 0.18 0.14 0.15 0.13 0.07 0.04 0.05 0.07 0.05 0.03 0.02 0.01 0.01 0.01 0.03 0.02 0.01 0.01 0.02 0.01 0.01 0.01 0.02 0.02 0.02 0.03 0.03 0.04 0.04 0.03 0.03 0.02 0.04
0.03 0.02 0.01 0.03 0.05 0.04 0.09 0.11 0.12 0.12 0.11 0.08 0.07 0.10 0.12 0.22 0.33 0.32 0.33 0.30 0.24 0.14 0.10 0.11 0.18 0.09 0.06 0.06 0.05 0.03 0.01 0.01 0.01 0.01 0.02 0.05 0.07 0.07 0.03 0.02 0.02 0.01 0.02 0.02 0.02 0.03 0.05 0.06 0.05 0.03 0.01 0.02 0.04 0.07
0.01 0.01 0.01 0.01 0.03 0.11 0.21 0.14 0.17 0.11 0.04 0.04 0.05 0.11 0.15 0.41 0.61 0.38 0.28 0.25 0.21 0.19 0.15 0.11 0.13 0.09 0.09 0.07 0.07 0.09 0.07 0.03 0.01 0.01 0.02 0.02 0.03 0.04 0.04 0.04 0.03 0.02 0.03 0.02 0.02 0.02 0.02 0.02 0.02 0.02 0.03 0.03 0.03 0.03
0.01 0.02 0.02 0.02 0.11 0.19 0.17 0.11 0.09 0.09 0.07 0.06 0.05 0.08 0.15 0.30 0.33 0.29 0.25 0.25 0.19 0.14 0.09 0.11 0.10 0.07 0.03 0.03 0.02 0.02 0.06 0.05 0.03 0.02 0.01 0.02 0.02 0.04 0.04 0.03 0.03 0.03 0.03 0.02 0.02 0.02 0.01 0.00 0.01 0.01 0.01 0.01 0.01 0.01
0.07 0.09 0.05 0.05 0.17 0.17 0.19 0.17 0.11 0.16 0.14 0.10 0.11 0.09 0.11 0.10 0.12 0.16 0.17 0.21 0.21 0.15 0.10 0.08 0.08 0.10 0.05 0.03 0.03 0.03 0.01 0.03 0.03 0.01 0.01 0.02 0.03 0.04 0.04 0.03 0.03 0.03 0.03 0.02 0.01 0.01 0.01 0.01 0.02 0.01 0.02 0.02 0.01 0.00
0.19 0.19 0.16 0.12 0.14 0.14 0.15 0.19 0.18 0.14 0.10 0.10 0.13 0.13 0.12 0.10 0.12 0.16 0.15 0.16 0.25 0.16 0.09 0.09 0.07 0.07 0.07 0.06 0.06 0.05 0.04 0.04 0.04 0.02 0.02 0.02 0.02 0.02 0.02 0.03 0.02 0.01 0.01 0.01 0.01 0.01 0.01 0.02 0.02 0.01 0.01 0.00 0.00 0.01

GFSWCAN_prec_precacc_108.txt.gz
Total_Precipitation_Accumulation
1.42 1.47 1.49 1.29 0.93 0.98 1.20 1.22 1.01 1.04 0.94 0.76 0.71 0.61 0.77 0.74 0.87 1.31 1.27 1.27 2.08 2.22 0.69 0.49 0.30 0.26 0.26 0.35 0.60 0.58 0.91 0.89 0.64 0.63 0.54 0.62 0.72 0.38 0.63 1.10 0.62 0.61 0.50 0.50 0.62 0.88 0.69 0.11 0.28 0.59 0.78 0.43 0.29 0.37
1.53 1.60 1.27 1.11 0.82 0.89 1.08 1.01 0.90 0.82 0.92 0.74 0.75 0.71 0.80 0.90 1.06 1.30 1.45 1.07 1.52 2.18 1.15 0.47 0.25 0.15 0.07 0.06 0.20 0.44 0.65 0.70 0.76 0.61 0.36 0.36 0.43 0.46 0.58 0.81 0.82 1.37 1.14 1.18 0.80 0.74 0.49 0.29 0.41 0.47 0.40 0.41 0.44 0.59
1.39 1.61 1.26 0.96 0.84 0.80 0.80 0.80 0.74 0.71 0.78 0.65 0.62 0.68 0.92 1.18 1.23 1.41 1.48 1.04 2.43 2.60 1.63 0.69 0.32 0.10 0.04 0.04 0.09 0.39 0.22 0.55 0.89 0.69 0.82 0.52 0.47 0.33 0.37 0.67 0.64 0.56 0.53 0.93 0.86 0.66 0.38 0.53 0.44 0.25 0.25 0.28 0.30 0.31
1.41 1.69 1.24 0.88 0.79 0.66 0.64 0.56 0.51 0.58 0.62 0.69 0.76 0.79 1.06 1.31 1.31 1.78 1.83 1.44 2.69 1.85 1.73 1.04 0.50 0.18 0.13 0.08 0.15 0.18 0.16 0.26 0.51 0.63 0.82 0.72 0.45 0.41 0.38 0.48 0.43 0.36 0.59 0.52 0.85 0.91 0.67 0.64 0.93 0.59 0.40 0.30 0.31 0.32
1.44 1.29 1.03 0.73 0.56 0.50 0.48 0.42 0.44 0.48 0.51 0.65 0.71 0.93 1.29 1.44 1.56 2.41 2.31 2.01 1.82 1.51 1.40 1.25 0.34 0.29 0.21 0.18 0.15 0.31 0.34 0.38 0.66 0.67 0.61 0.36 0.33 0.64 0.60 0.61 0.43 0.37 0.91 0.86 0.80 1.02 1.16 1.23 0.81 0.64 0.72 0.58 0.43 0.21
1.38 0.91 0.78 0.59 0.42 0.36 0.37 0.42 0.47 0.48 0.49 0.61 0.76 1.05 1.18 1.43 2.52 4.23 5.23 3.16 1.71 1.54 1.82 1.53 0.65 0.29 0.39 0.34 0.35 0.25 0.47 0.70 0.82 0.99 0.53 0.19 0.22 0.75 0.71 0.91 0.62 0.43 0.44 0.61 0.91 0.99 1.04 0.94 0.60 0.37 0.26 0.31 0.32 0.22
1.23 0.78 0.65 0.58 0.38 0.34 0.33 0.37 0.44 0.51 0.61 0.75 0.85 0.99 1.02 1.42 2.09 3.14 2.58 1.56 1.22 1.68 2.34 1.63 1.03 0.50 0.45 0.61 0.70 0.83 0.60 1.03 1.44 1.27 0.69 0.32 0.24 0.52 0.72 0.80 0.60 0.39 0.46 0.47 0.65 0.59 0.40 0.33 0.26 0.15 0.06 0.04 0.02 0.02
0.94 0.69 0.60 0.63 0.46 0.46 0.37 0.43 0.54 0.64 0.72 0.85 1.07 1.23 1.40 1.69 2.23 2.05 1.28 1.31 1.16 1.85 1.70 1.36 1.21 1.10 0.82 1.11 1.04 1.01 1.13 1.18 1.33 1.34 0.85 0.54 0.60 0.77 0.83 0.62 0.36 0.26 0.39 0.34 0.34 0.25 0.18 0.12 0.05 0.03 0.01 0.01 0.01 0.01
0.88 0.69 0.59 0.66 0.56 0.47 0.41 0.54 0.68 0.91 0.93 1.29 1.58 2.07 3.08 2.67 2.53 1.74 1.52 1.69 1.37 1.41 1.11 0.60 0.87 1.77 1.65 1.57 1.25 1.04 1.40 1.44 1.07 0.86 0.67 0.78 1.07 1.10 0.73 0.30 0.27 0.22 0.28 0.31 0.19 0.06 0.03 0.04 0.03 0.02 0.00 0.01 0.01 0.02
0.82 0.70 0.51 0.53 0.52 0.63 0.71 0.87 1.11 1.19 1.38 1.71 2.13 2.94 3.09 2.02 1.71 1.93 2.71 2.75 2.32 1.24 0.83 0.57 0.47 1.14 1.76 1.87 1.50 1.26 1.04 0.94 0.95 0.74 0.81 1.09 0.89 0.47 0.19 0.18 0.17 0.14 0.17 0.18 0.16 0.11 0.06 0.05 0.03 0.02 0.03 0.04 0.05 0.09
0.57 0.56 0.49 0.52 0.53 0.58 0.72 0.86 1.36 1.35 1.57 1.46 1.80 2.38 1.88 1.85 1.97 2.17 2.03 1.54 1.35 0.73 0.31 0.41 0.50 0.95 1.16 1.81 1.44 1.07 1.16 0.78 0.54 0.69 0.73 1.01 0.59 0.32 0.11 0.07 0.09 0.14 0.18 0.22 0.24 0.24 0.23 0.19 0.14 0.09 0.13 0.16 0.15 0.15
0.61 0.52 0.50 0.50 0.51 0.63 0.76 1.00 1.18 0.81 0.97 0.90 1.42 1.65 2.11 2.07 1.70 1.30 0.98 0.74 0.55 0.31 0.25 0.38 0.65 1.17 1.07 1.46 1.50 1.30 1.14 0.96 0.93 0.65 0.53 0.75 0.53 0.26 0.18 0.15 0.12 0.15 0.21 0.28 0.26 0.24 0.26 0.25 0.25 0.21 0.21 0.20 0.21 0.25
0.53 0.56 0.62 0.50 0.50 0.60 0.71 0.94 0.96 0.87 1.10 1.18 0.89 1.06 1.20 1.03 0.94 0.71 0.51 0.47 0.44 0.27 0.31 0.42 0.83 1.41 1.11 1.48 1.42 1.03 1.51 1.21 0.92 1.13 0.78 0.54 0.26 0.19 0.19 0.21 0.24 0.25 0.24 0.29 0.33 0.33 0.29 0.29 0.27 0.24 0.27 0.37 0.38 0.51
0.47 0.56 0.75 0.78 0.84 0.92 1.15 1.38 1.69 1.54 1.19 0.82 0.75 0.65 0.90 0.66 0.58 0.52 0.52 0.49 0.30 0.21 0.28 0.73 0.94 1.18 1.25 1.48 1.17 0.82 1.10 1.07 0.99 0.85 0.64 0.44 0.37 0.34 0.31 0.30 0.27 0.37 0.40 0.43 0.50 0.48 0.53 0.58 0.70 0.81 0.88 0.99 0.82 0.92
0.53 0.74 0.96 0.98 1.06 1.15 1.32 1.48 1.50 0.92 0.60 0.71 0.70 0.77 0.60 0.73 0.67 0.70 0.58 0.42 0.31 0.34 0.48 0.84 1.00 0.92 0.89 1.50 0.88 0.70 0.74 0.83 0.76 0.85 0.54 0.63 0.57 0.52 0.55 0.60 0.63 0.73 0.80 0.89 0.97 0.90 0.98 0.94 0.77 0.93 1.02 0.94 0.76 0.75
0.57 1.20 1.19 1.10 1.15 1.07 1.23 1.17 0.99 0.56 0.54 0.77 0.93 0.84 0.68 0.66 0.69 0.64 0.56 0.46 0.44 0.57 0.66 0.98 1.05 0.74 0.67 0.47 0.48 0.49 0.58 0.92 0.65 0.55 0.65 0.65 0.71 0.84 0.89 0.94 1.02 1.04 0.99 0.98 0.96 0.83 0.78 0.72 0.62 0.65 0.63 0.56 0.55 0.44
0.86 1.43 1.26 1.02 0.89 0.87 0.94 0.69 0.51 0.48 0.68 0.71 0.96 1.08 0.97 0.77 0.84 0.85 0.76 0.62 0.58 0.65 0.77 0.64 0.68 0.67 0.61 0.27 0.25 0.34 0.63 0.87 0.88 0.92 0.87 0.84 0.92 1.03 1.06 0.98 0.96 0.81 0.70 0.66 0.60 0.53 0.49 0.46 0.30 0.18 0.22 0.29 0.20 0.17
0.72 0.69 0.68 0.60 0.55 0.67 0.47 0.23 0.33 0.31 0.44 0.77 0.79 1.06 0.78 0.92 0.91 0.83 0.83 0.72 0.69 0.62 0.63 0.66 0.67 0.47 0.54 0.50 0.61 0.78 0.90 1.04 1.01 0.91 0.93 1.02 0.94 0.91 0.88 0.78 0.79 0.64 0.50 0.48 0.39 0.36 0.31 0.22 0.15 0.19 0.17 0.15 0.09 0.09
0.78 0.63 0.58 0.40 0.33 0.29 0.24 0.15 0.13 0.22 0.63 0.68 0.70 0.55 0.46 0.61 0.61 0.61 0.49 0.44 0.29 0.19 0.18 0.18 0.26 0.45 0.67 0.78 0.82 0.89 0.88 0.67 0.67 0.67 0.71 0.82 0.80 0.77 0.76 0.68 0.61 0.53 0.39 0.32 0.21 0.20 0.21 0.19 0.21 0.18 0.16 0.11 0.14 0.16
0.84 0.64 0.52 0.36 0.33 0.31 0.19 0.14 0.03 0.14 0.49 0.58 0.54 0.30 0.27 0.40 0.29 0.16 0.08 0.05 0.03 0.04 0.12 0.30 0.70 0.87 0.82 0.91 0.71 0.67 0.64 0.55 0.42 0.38 0.53 0.65 0.67 0.55 0.58 0.46 0.42 0.36 0.25 0.23 0.22 0.19 0.17 0.17 0.17 0.13 0.11 0.11 0.11 0.12
0.80 0.50 0.21 0.18 0.24 0.11 0.14 0.10 0.13 0.14 0.26 0.35 0.30 0.13 0.21 0.10 0.08 0.07 0.05 0.02 0.08 0.20 0.58 0.85 0.82 0.92 0.66 0.65 0.58 0.49 0.55 0.49 0.51 0.32 0.33 0.40 0.47 0.31 0.35 0.38 0.30 0.24 0.21 0.24 0.21 0.22 0.18 0.16 0.15 0.11 0.09 0.08 0.07 0.07
0.35 0.17 0.14 0.17 0.14 0.03 0.11 0.03 0.09 0.09 0.05 0.11 0.09 0.04 0.07 0.07 0.06 0.03 0.04 0.10 0.39 0.70 0.71 0.60 0.56 0.42 0.30 0.35 0.36 0.27 0.35 0.28 0.31 0.35 0.36 0.32 0.34 0.33 0.38 0.40 0.27 0.28 0.29 0.26 0.22 0.18 0.14 0.09 0.06 0.04 0.04 0.04 0.02 0.01
0.06 0.07 0.07 0.06 0.16 0.06 0.13 0.07 0.06 0.08 0.04 0.06 0.03 0.04 0.05 0.04 0.03 0.01 0.09 0.22 0.61 0.79 0.51 0.26 0.26 0.18 0.24 0.33 0.20 0.20 0.22 0.19 0.25 0.33 0.36 0.34 0.33 0.33 0.27 0.25 0.22 0.17 0.14 0.12 0.07 0.05 0.04 0.01 0.01 0.01 0.01 0.01 0.02 0.03
0.06 0.08 0.08 0.11 0.10 0.08 0.09 0.09 0.01 0.02 0.03 0.02 0.02 0.05 0.06 0.04 0.01 0.03 0.12 0.28 0.56 0.45 0.27 0.29 0.18 0.15 0.16 0.17 0.20 0.27 0.32 0.25 0.22 0.24 0.23 0.16 0.15 0.15 0.08 0.07 0.05 0.04 0.03 0.02 0.00 0.02 0.01 0.02 0.01 0.02 0.02 0.02 0.03 0.03
0.16 0.10 0.11 0.15 0.08 0.02 0.03 0.05 0.03 0.02 0.03 0.02 0.04 0.06 0.05 0.02 0.03 0.05 0.10 0.31 0.30 0.31 0.33 0.31 0.23 0.20 0.23 0.27 0.26 0.23 0.17 0.10 0.08 0.09 0.11 0.06 0.05 0.04 0.02 0.01 0.01 0.02 0.01 0.03 0.04 0.03 0.02 0.02 0.02 0.02 0.02 0.02 0.02 0.02
0.19 0.12 0.03 0.06 0.05 0.03 0.02 0.03 0.03 0.02 0.02 0.04 0.06 0.07 0.06 0.05 0.06 0.12 0.19 0.28 0.23 0.30 0.35 0.36 0.31 0.23 0.21 0.15 0.13 0.10 0.07 0.03 0.01 0.01 0.04 0.01 0.01 0.01 0.01 0.01 0.03 0.04 0.01 0.02 0.03 0.03 0.04 0.02 0.02 0.01 0.02 0.02 0.02 0.03
0.07 0.10 0.04 0.04 0.06 0.04 0.03 0.03 0.02 0.03 0.06 0.08 0.09 0.07 0.08 0.12 0.12 0.26 0.35 0.26 0.27 0.31 0.26 0.24 0.17 0.14 0.12 0.10 0.08 0.06 0.02 0.00 0.00 0.00 0.01 0.00 0.00 0.01 0.01 0.01 0.02 0.03 0.02 0.03 0.02 0.02 0.02 0.03 0.04 0.03 0.03 0.04 0.05 0.05
0.03 0.02 0.04 0.04 0.04 0.05 0.07 0.06 0.05 0.10 0.13 0.10 0.08 0.07 0.06 0.10 0.29 0.40 0.38 0.38 0.29 0.18 0.14 0.15 0.13 0.07 0.04 0.05 0.07 0.06 0.04 0.02 0.01 0.01 0.01 0.04 0.03 0.02 0.02 0.02 0.01 0.01 0.02 0.03 0.03 0.02 0.03 0.04 0.04 0.04 0.03 0.03 0.02 0.04
0.03 0.02 0.01 0.03 0.05 0.05 0.10 0.13 0.15 0.14 0.11 0.08 0.07 0.12 0.13 0.22 0.33 0.32 0.33 0.30 0.24 0.15 0.11 0.11 0.18 0.09 0.07 0.06 0.05 0.03 0.01 0.01 0.01 0.02 0.02 0.05 0.08 0.08 0.03 0.03 0.03 0.02 0.03 0.04 0.04 0.03 0.05 0.06 0.05 0.03 0.01 0.02 0.04 0.07
0.01 0.02 0.01 0.01 0.04 0.12 0.22 0.16 0.18 0.12 0.04 0.04 0.05 0.11 0.15 0.41 0.61 0.38 0.28 0.25 0.21 0.19 0.15 0.11 0.14 0.09 0.09 0.08 0.08 0.09 0.08 0.03 0.01 0.01 0.02 0.03 0.04 0.05 0.05 0.05 0.03 0.03 0.03 0.03 0.03 0.03 0.03 0.02 0.02 0.02 0.03 0.03 0.03 0.03
0.02 0.02 0.02 0.02 0.12 0.20 0.18 0.11 0.10 0.10 0.07 0.06 0.05 0.08 0.16 0.30 0.33 0.29 0.25 0.25 0.20 0.14 0.10 0.11 0.10 0.07 0.04 0.03 0.02 0.02 0.07 0.06 0.03 0.02 0.02 0.02 0.02 0.04 0.04 0.04 0.04 0.04 0.04 0.03 0.02 0.02 0.01 0.00 0.01 0.01 0.01 0.01 0.01 0.01
0.07 0.09 0.05 0.06 0.17 0.18 0.19 0.17 0.11 0.16 0.14 0.10 0.11 0.09 0.11 0.10 0.12 0.16 0.17 0.21 0.21 0.16 0.11 0.08 0.09 0.10 0.05 0.03 0.03 0.03 0.01 0.03 0.03 0.01 0.01 0.02 0.03 0.04 0.05 0.04 0.03 0.04 0.03 0.02 0.01 0.01 0.01 0.01 0.02 0.01 0.02 0.02 0.01 0.00
0.20 0.20 0.16 0.13 0.14 0.14 0.15 0.19 0.18 0.14 0.10 0.10 0.13 0.13 0.12 0.10 0.12 0.17 0.16 0.16 0.25 0.17 0.11 0.10 0.09 0.08 0.08 0.07 0.06 0.06 0.05 0.05 0.04 0.03 0.02 0.02 0.02 0.02 0.03 0.04 0.03 0.02 0.01 0.01 0.01 0.01 0.01 0.02 0.02 0.01 0.01 0.00 0.00 0.01

GFSWCAN_prec_precacc_111.txt.gz
Total_Precipitation_Accumulation
1.42 1.48 1.53 1.35 0.95 0.99 1.22 1.24 1.02 1.05 0.94 0.77 0.73 0.67 0.86 0.81 0.91 1.33 1.31 1.30 2.13 2.45 0.96 0.55 0.33 0.35 0.33 0.40 0.64 0.58 0.91 0.89 0.64 0.63 0.55 0.63 0.74 0.38 0.63 1.10 0.62 0.61 0.50 0.50 0.62 0.88 0.70 0.11 0.28 0.59 0.79 0.43 0.29 0.37
1.53 1.61 1.29 1.12 0.83 0.90 1.12 1.07 0.94 0.83 0.93 0.75 0.78 0.77 0.86 0.93 1.07 1.32 1.49 1.09 1.59 2.40 1.23 0.51 0.27 0.21 0.11 0.08 0.20 0.44 0.65 0.70 0.76 0.61 0.36 0.36 0.44 0.47 0.59 0.81 0.82 1.37 1.14 1.18 0.80 0.74 0.49 0.29 0.41 0.47 0.40 0.41 0.44 0.59
1.39 1.62 1.27 0.97 0.91 0.92 1.03 0.94 0.80 0.74 0.81 0.68 0.66 0.73 0.93 1.18 1.24 1.42 1.51 1.09 2.52 2.64 1.64 0.70 0.32 0.10 0.05 0.04 0.09 0.39 0.22 0.55 0.89 0.70 0.83 0.53 0.47 0.33 0.38 0.68 0.64 0.56 0.53 0.93 0.87 0.66 0.38 0.53 0.44 0.25 0.25 0.28 0.30 0.31
1.41 1.69 1.25 0.95 1.11 0.96 0.88 0.63 0.54 0.60 0.66 0.71 0.78 0.80 1.06 1.31 1.31 1.81 1.88 1.47 2.76 1.89 1.76 1.04 0.50 0.18 0.13 0.08 0.15 0.18 0.16 0.26 0.51 0.63 0.83 0.74 0.47 0.42 0.38 0.49 0.43 0.36 0.59 0.52 0.86 0.91 0.67 0.64 0.93 0.59 0.40 0.30 0.31 0.32
1.44 1.30 1.08 1.11 0.94 0.59 0.51 0.43 0.45 0.49 0.52 0.65 0.72 0.93 1.30 1.46 1.58 2.46 2.34 2.07 1.88 1.54 1.41 1.25 0.34 0.29 0.21 0.18 0.15 0.31 0.34 0.38 0.66 0.67 0.61 0.37 0.34 0.64 0.60 0.61 0.43 0.37 0.91 0.86 0.80 1.02 1.16 1.23 0.81 0.64 0.72 0.58 0.43 0.21
1.39 0.96 1.10 0.96 0.56 0.37 0.37 0.42 0.47 0.48 0.49 0.61 0.76 1.06 1.20 1.46 2.58 4.33 5.34 3.20 1.72 1.54 1.83 1.53 0.65 0.29 0.39 0.34 0.35 0.25 0.47 0.70 0.82 0.99 0.54 0.20 0.22 0.75 0.71 0.91 0.62 0.43 0.44 0.61 0.91 0.99 1.04 0.94 0.60 0.37 0.26 0.31 0.32 0.22
1.24 0.99 0.87 0.69 0.40 0.35 0.33 0.37 0.44 0.51 0.62 0.76 0.86 0.99 1.03 1.44 2.13 3.16 2.60 1.57 1.22 1.69 2.35 1.63 1.03 0.50 0.45 0.61 0.70 0.83 0.60 1.03 1.44 1.27 0.69 0.32 0.24 0.52 0.72 0.80 0.60 0.39 0.46 0.47 0.65 0.59 0.40 0.33 0.26 0.15 0.06 0.04 0.02 0.02
0.98 0.90 0.69 0.65 0.46 0.46 0.37 0.43 0.54 0.64 0.72 0.85 1.08 1.23 1.41 1.71 2.26 2.05 1.28 1.31 1.17 1.87 1.70 1.36 1.21 1.10 0.82 1.11 1.04 1.01 1.13 1.18 1.33 1.34 0.85 0.54 0.60 0.77 0.83 0.62 0.36 0.26 0.39 0.34 0.34 0.25 0.18 0.12 0.05 0.03 0.01 0.01 0.01 0.01
1.00 0.80 0.61 0.66 0.56 0.47 0.41 0.55 0.69 0.91 0.93 1.29 1.58 2.07 3.09 2.70 2.54 1.74 1.52 1.69 1.37 1.42 1.11 0.60 0.87 1.77 1.65 1.57 1.25 1.04 1.40 1.44 1.07 0.86 0.67 0.78 1.07 1.10 0.73 0.30 0.27 0.22 0.28 0.31 0.19 0.06 0.03 0.04 0.03 0.02 0.00 0.01 0.01 0.02
0.92 0.72 0.51 0.53 0.52 0.63 0.72 0.88 1.12 1.20 1.38 1.71 2.13 2.96 3.12 2.02 1.71 1.93 2.72 2.75 2.32 1.24 0.83 0.57 0.47 1.14 1.76 1.87 1.50 1.26 1.04 0.94 0.95 0.74 0.81 1.09 0.89 0.47 0.19 0.18 0.17 0.14 0.17 0.18 0.16 0.11 0.06 0.05 0.03 0.02 0.03 0.04 0.05 0.09
0.61 0.58 0.49 0.52 0.53 0.59 0.73 0.87 1.37 1.35 1.57 1.47 1.82 2.39 1.88 1.85 1.98 2.18 2.03 1.55 1.35 0.73 0.31 0.42 0.50 0.95 1.16 1.81 1.44 1.07 1.16 0.78 0.54 0.70 0.73 1.02 0.59 0.32 0.11 0.07 0.09 0.14 0.18 0.22 0.24 0.24 0.23 0.19 0.14 0.09 0.13 0.16 0.15 0.15
0.69 0.53 0.50 0.50 0.52 0.64 0.76 1.00 1.18 0.81 0.97 0.90 1.42 1.65 2.11 2.08 1.70 1.30 0.98 0.74 0.55 0.31 0.25 0.38 0.65 1.17 1.07 1.46 1.50 1.30 1.14 0.96 0.93 0.65 0.53 0.75 0.54 0.26 0.18 0.15 0.12 0.15 0.21 0.28 0.26 0.24 0.26 0.25 0.25 0.21 0.21 0.20 0.21 0.25
0.56 0.56 0.62 0.50 0.50 0.60 0.71 0.94 0.96 0.87 1.10 1.19 0.90 1.07 1.20 1.03 0.94 0.71 0.51 0.47 0.44 0.27 0.31 0.42 0.83 1.42 1.12 1.49 1.42 1.03 1.51 1.21 0.92 1.13 0.78 0.54 0.26 0.19 0.19 0.21 0.24 0.25 0.24 0.29 0.33 0.33 0.29 0.29 0.27 0.25 0.27 0.37 0.38 0.51
0.47 0.56 0.75 0.78 0.84 0.92 1.15 1.38 1.69 1.55 1.19 0.82 0.75 0.65 0.90 0.66 0.58 0.53 0.52 0.49 0.30 0.22 0.28 0.73 0.94 1.18 1.26 1.48 1.17 0.82 1.10 1.07 1.00 0.86 0.68 0.44 0.38 0.34 0.31 0.30 0.27 0.38 0.41 0.43 0.50 0.48 0.53 0.58 0.70 0.82 0.88 0.99 0.82 0.92
0.53 0.75 0.97 0.98 1.06 1.15 1.32 1.48 1.50 0.92 0.60 0.71 0.70 0.77 0.61 0.74 0.67 0.70 0.58 0.42 0.31 0.35 0.48 0.85 1.01 0.92 0.89 1.50 0.88 0.70 0.74 0.83 0.77 0.92 0.57 0.63 0.58 0.53 0.56 0.61 0.64 0.74 0.80 0.89 0.97 0.90 0.98 0.94 0.77 0.93 1.02 0.94 0.76 0.75
0.57 1.20 1.19 1.10 1.15 1.07 1.23 1.17 0.99 0.56 0.54 0.77 0.93 0.84 0.68 0.66 0.70 0.65 0.56 0.46 0.44 0.58 0.66 0.99 1.05 0.74 0.67 0.47 0.48 0.49 0.59 0.94 0.67 0.55 0.65 0.65 0.72 0.85 0.90 0.95 1.03 1.05 1.00 0.98 0.96 0.84 0.78 0.72 0.62 0.65 0.63 0.56 0.55 0.44
0.86 1.43 1.26 1.02 0.89 0.87 0.94 0.69 0.51 0.48 0.68 0.71 0.97 1.10 0.99 0.78 0.86 0.86 0.76 0.62 0.59 0.67 0.77 0.64 0.68 0.67 0.61 0.27 0.25 0.35 0.64 0.87 0.88 0.92 0.87 0.84 0.92 1.04 1.07 0.99 0.97 0.82 0.71 0.67 0.61 0.54 0.50 0.47 0.30 0.18 0.22 0.29 0.20 0.17
0.72 0.69 0.68 0.60 0.55 0.67 0.47 0.23 0.33 0.31 0.45 0.78 0.80 1.08 0.78 0.92 0.92 0.83 0.83 0.72 0.70 0.63 0.63 0.66 0.67 0.47 0.54 0.51 0.63 0.79 0.90 1.05 1.01 0.91 0.93 1.02 0.94 0.92 0.90 0.80 0.82 0.66 0.51 0.48 0.39 0.36 0.31 0.22 0.15 0.19 0.17 0.15 0.09 0.09
0.78 0.63 0.58 0.40 0.33 0.29 0.24 0.15 0.13 0.22 0.64 0.69 0.71 0.56 0.46 0.61 0.61 0.61 0.49 0.44 0.29 0.19 0.18 0.18 0.26 0.46 0.68 0.78 0.82 0.89 0.88 0.67 0.67 0.68 0.72 0.82 0.80 0.77 0.76 0.68 0.62 0.54 0.40 0.32 0.22 0.20 0.21 0.19 0.21 0.18 0.16 0.11 0.14 0.16
0.84 0.64 0.52 0.36 0.33 0.31 0.19 0.14 0.03 0.14 0.50 0.58 0.54 0.30 0.27 0.41 0.29 0.16 0.08 0.05 0.03 0.04 0.12 0.30 0.70 0.88 0.82 0.91 0.71 0.67 0.64 0.55 0.42 0.38 0.54 0.66 0.67 0.55 0.58 0.46 0.42 0.36 0.25 0.23 0.22 0.19 0.17 0.17 0.17 0.13 0.11 0.11 0.11 0.12
0.80 0.50 0.21 0.18 0.24 0.11 0.14 0.10 0.13 0.14 0.26 0.35 0.30 0.13 0.21 0.10 0.08 0.07 0.05 0.02 0.08 0.20 0.59 0.85 0.82 0.92 0.67 0.65 0.58 0.49 0.55 0.49 0.51 0.32 0.33 0.41 0.47 0.31 0.35 0.38 0.30 0.24 0.21 0.24 0.21 0.22 0.18 0.16 0.15 0.11 0.09 0.08 0.07 0.07
0.35 0.17 0.14 0.17 0.14 0.03 0.11 0.03 0.09 0.09 0.05 0.11 0.09 0.05 0.07 0.07 0.06 0.03 0.04 0.10 0.40 0.70 0.71 0.60 0.56 0.42 0.30 0.35 0.36 0.27 0.35 0.28 0.31 0.35 0.36 0.32 0.35 0.33 0.38 0.40 0.27 0.28 0.29 0.26 0.22 0.18 0.14 0.09 0.06 0.04 0.04 0.04 0.02 0.01
0.06 0.07 0.07 0.06 0.16 0.06 0.14 0.08 0.07 0.08 0.05 0.06 0.03 0.04 0.05 0.04 0.03 0.01 0.09 0.22 0.61 0.79 0.51 0.26 0.26 0.18 0.24 0.33 0.20 0.20 0.22 0.19 0.25 0.33 0.36 0.34 0.33 0.33 0.27 0.25 0.22 0.17 0.14 0.12 0.07 0.05 0.04 0.01 0.01 0.01 0.01 0.01 0.02 0.03
0.06 0.08 0.08 0.11 0.10 0.08 0.09 0.09 0.01 0.02 0.03 0.02 0.02 0.06 0.06 0.04 0.01 0.03 0.12 0.29 0.56 0.45 0.27 0.29 0.18 0.15 0.16 0.17 0.20 0.27 0.32 0.25 0.22 0.24 0.23 0.16 0.15 0.15 0.08 0.07 0.05 0.04 0.03 0.02 0.00 0.03 0.02 0.02 0.01 0.02 0.02 0.02 0.03 0.03
0.16 0.10 0.11 0.15 0.08 0.02 0.03 0.05 0.03 0.02 0.03 0.02 0.04 0.06 0.05 0.02 0.03 0.05 0.10 0.31 0.30 0.31 0.33 0.31 0.23 0.20 0.23 0.27 0.26 0.23 0.17 0.10 0.08 0.09 0.11 0.06 0.05 0.05 0.03 0.01 0.01 0.02 0.01 0.03 0.04 0.04 0.03 0.02 0.02 0.02 0.02 0.02 0.02 0.02
0.19 0.12 0.03 0.06 0.05 0.03 0.03 0.03 0.03 0.02 0.02 0.04 0.06 0.07 0.06 0.05 0.06 0.13 0.20 0.28 0.23 0.30 0.35 0.36 0.31 0.23 0.21 0.16 0.13 0.10 0.07 0.03 0.01 0.01 0.04 0.01 0.01 0.01 0.01 0.02 0.03 0.05 0.01 0.03 0.03 0.04 0.04 0.02 0.02 0.01 0.03 0.02 0.02 0.03
0.07 0.10 0.04 0.04 0.06 0.04 0.03 0.03 0.02 0.03 0.06 0.08 0.09 0.07 0.08 0.12 0.13 0.27 0.35 0.26 0.27 0.31 0.26 0.24 0.17 0.14 0.13 0.10 0.08 0.06 0.02 0.00 0.00 0.00 0.01 0.00 0.00 0.01 0.01 0.01 0.02 0.04 0.02 0.03 0.02 0.02 0.02 0.04 0.04 0.03 0.04 0.04 0.05 0.05
0.03 0.02 0.04 0.04 0.04 0.05 0.08 0.07 0.05 0.10 0.13 0.10 0.08 0.07 0.06 0.10 0.32 0.40 0.38 0.38 0.29 0.18 0.14 0.15 0.13 0.07 0.04 0.05 0.07 0.06 0.04 0.02 0.01 0.01 0.01 0.04 0.03 0.02 0.02 0.02 0.01 0.01 0.02 0.03 0.03 0.02 0.03 0.04 0.04 0.04 0.03 0.03 0.02 0.04
0.03 0.02 0.01 0.03 0.06 0.06 0.10 0.14 0.17 0.15 0.12 0.09 0.08 0.13 0.13 0.22 0.34 0.32 0.33 0.30 0.24 0.15 0.11 0.11 0.18 0.09 0.07 0.06 0.05 0.03 0.01 0.01 0.01 0.02 0.02 0.06 0.08 0.09 0.05 0.04 0.04 0.02 0.04 0.06 0.05 0.04 0.06 0.06 0.05 0.03 0.01 0.02 0.04 0.07
0.01 0.02 0.01 0.01 0.04 0.12 0.23 0.16 0.20 0.12 0.04 0.04 0.05 0.11 0.15 0.41 0.61 0.38 0.28 0.25 0.21 0.19 0.15 0.11 0.14 0.10 0.10 0.08 0.08 0.10 0.08 0.03 0.02 0.02 0.03 0.03 0.04 0.05 0.07 0.06 0.04 0.04 0.04 0.04 0.04 0.05 0.03 0.02 0.02 0.02 0.03 0.03 0.03 0.03
0.02 0.02 0.02 0.02 0.12 0.20 0.18 0.11 0.10 0.10 0.07 0.06 0.05 0.08 0.16 0.31 0.33 0.29 0.25 0.26 0.20 0.14 0.10 0.11 0.11 0.07 0.04 0.03 0.02 0.02 0.07 0.06 0.03 0.02 0.02 0.02 0.02 0.04 0.05 0.04 0.04 0.04 0.04 0.03 0.02 0.02 0.01 0.00 0.01 0.01 0.01 0.01 0.01 0.01
0.07 0.09 0.06 0.06 0.18 0.18 0.19 0.17 0.11 0.16 0.14 0.10 0.11 0.09 0.11 0.10 0.12 0.17 0.18 0.22 0.21 0.16 0.11 0.08 0.09 0.10 0.05 0.04 0.04 0.03 0.01 0.03 0.03 0.02 0.01 0.02 0.03 0.05 0.05 0.04 0.03 0.04 0.03 0.02 0.02 0.01 0.01 0.01 0.02 0.01 0.02 0.02 0.01 0.00
0.21 0.21 0.17 0.13 0.14 0.14 0.15 0.19 0.18 0.14 0.11 0.10 0.14 0.13 0.12 0.10 0.13 0.18 0.16 0.17 0.26 0.18 0.12 0.12 0.10 0.09 0.08 0.08 0.07 0.06 0.05 0.05 0.04 0.03 0.02 0.02 0.02 0.03 0.03 0.04 0.03 0.02 0.01 0.01 0.01 0.01 0.01 0.02 0.02 0.01 0.01 0.00 0.00 0.01

GFSWCAN_prec_precacc_114.txt.gz
Total_Precipitation_Accumulation
1.42 1.48 1.55 1.41 1.06 1.05 1.26 1.28 1.07 1.08 0.97 0.80 0.76 0.69 0.89 0.87 0.96 1.47 1.36 1.31 2.14 2.48 1.01 0.73 0.36 0.36 0.36 0.42 0.67 0.62 0.97 0.92 0.64 0.63 0.55 0.63 0.75 0.39 0.63 1.10 0.62 0.61 0.50 0.50 0.62 0.88 0.70 0.11 0.28 0.59 0.79 0.43 0.29 0.37
1.53 1.61 1.31 1.16 0.86 0.92 1.15 1.10 0.96 0.84 0.94 0.77 0.79 0.79 0.94 1.09 1.16 1.38 1.54 1.13 1.61 2.43 1.35 0.72 0.40 0.23 0.13 0.12 0.21 0.44 0.65 0.70 0.76 0.61 0.36 0.36 0.45 0.47 0.59 0.81 0.82 1.37 1.14 1.18 0.80 0.74 0.49 0.29 0.41 0.47 0.40 0.41 0.44 0.59
1.39 1.63 1.28 0.98 0.92 0.93 1.03 0.94 0.81 0.74 0.81 0.68 0.67 0.76 1.07 1.39 1.31 1.43 1.53 1.12 2.55 2.68 1.71 0.84 0.40 0.16 0.09 0.07 0.10 0.39 0.22 0.55 0.89 0.70 0.83 0.54 0.48 0.34 0.38 0.68 0.64 0.56 0.53 0.93 0.87 0.66 0.38 0.53 0.44 0.25 0.25 0.28 0.30 0.31
1.41 1.70 1.26 0.96 1.13 1.02 1.00 0.66 0.56 0.61 0.66 0.71 0.79 0.85 1.14 1.39 1.33 1.82 1.88 1.51 2.81 1.92 1.77 1.08 0.51 0.20 0.17 0.09 0.15 0.18 0.16 0.26 0.51 0.63 0.83 0.75 0.48 0.43 0.39 0.49 0.43 0.36 0.59 0.52 0.86 0.92 0.67 0.64 0.93 0.59 0.40 0.30 0.31 0.32
1.44 1.32 1.09 1.23 1.18 0.80 0.74 0.46 0.46 0.50 0.53 0.67 0.74 0.97 1.33 1.47 1.59 2.47 2.35 2.10 1.92 1.55 1.41 1.25 0.34 0.29 0.21 0.18 0.15 0.31 0.34 0.38 0.66 0.67 0.61 0.37 0.34 0.64 0.60 0.61 0.43 0.37 0.91 0.86 0.80 1.02 1.16 1.23 0.81 0.64 0.72 0.58 0.43 0.21
1.40 0.97 1.27 1.36 0.78 0.52 0.45 0.44 0.49 0.49 0.50 0.62 0.78 1.06 1.20 1.47 2.63 4.34 5.45 3.27 1.73 1.54 1.83 1.53 0.65 0.29 0.39 0.34 0.35 0.25 0.47 0.70 0.82 0.99 0.54 0.20 0.22 0.75 0.71 0.91 0.62 0.43 0.44 0.61 0.91 0.99 1.04 0.94 0.60 0.37 0.26 0.31 0.32 0.22
1.27 1.19 1.18 0.90 0.44 0.37 0.34 0.37 0.45 0.51 0.62 0.76 0.86 1.00 1.07 1.50 2.14 3.16 2.64 1.61 1.22 1.69 2.35 1.63 1.03 0.50 0.45 0.61 0.70 0.83 0.60 1.03 1.44 1.27 0.69 0.32 0.24 0.52 0.72 0.80 0.60 0.39 0.46 0.47 0.65 0.59 0.40 0.33 0.27 0.15 0.06 0.04 0.02 0.02
1.19 1.16 0.81 0.67 0.46 0.46 0.37 0.43 0.54 0.65 0.73 0.86 1.09 1.26 1.47 1.73 2.26 2.05 1.28 1.31 1.17 1.87 1.70 1.36 1.21 1.10 0.82 1.11 1.04 1.01 1.13 1.18 1.33 1.34 0.85 0.54 0.60 0.77 0.83 0.62 0.36 0.26 0.39 0.34 0.34 0.25 0.18 0.12 0.05 0.03 0.01 0.01 0.01 0.01
1.21 0.91 0.63 0.67 0.57 0.47 0.42 0.55 0.70 0.92 0.94 1.30 1.61 2.13 3.13 2.71 2.54 1.74 1.52 1.69 1.37 1.42 1.11 0.60 0.87 1.77 1.65 1.57 1.25 1.04 1.40 1.44 1.07 0.86 0.67 0.78 1.07 1.10 0.73 0.30 0.27 0.22 0.28 0.31 0.19 0.06 0.03 0.04 0.03 0.02 0.00 0.01 0.01 0.02
1.03 0.74 0.52 0.54 0.52 0.64 0.72 0.89 1.13 1.20 1.39 1.72 2.16 3.00 3.17 2.03 1.71 1.93 2.72 2.75 2.32 1.24 0.83 0.57 0.47 1.14 1.76 1.87 1.50 1.26 1.04 0.94 0.95 0.74 0.81 1.09 0.89 0.47 0.19 0.18 0.17 0.14 0.17 0.18 0.16 0.11 0.06 0.05 0.03 0.02 0.03 0.04 0.05 0.09
0.64 0.58 0.49 0.52 0.54 0.60 0.74 0.87 1.37 1.36 1.57 1.48 1.83 2.39 1.88 1.85 1.98 2.18 2.03 1.55 1.35 0.73 0.31 0.42 0.50 0.95 1.16 1.81 1.44 1.07 1.16 0.78 0.54 0.70 0.73 1.02 0.59 0.32 0.11 0.07 0.09 0.14 0.18 0.22 0.24 0.24 0.23 0.19 0.14 0.09 0.13 0.16 0.15 0.15
0.69 0.53 0.51 0.51 0.53 0.65 0.77 1.00 1.18 0.81 0.97 0.90 1.42 1.65 2.11 2.08 1.70 1.30 0.98 0.74 0.55 0.31 0.25 0.38 0.65 1.17 1.07 1.46 1.50 1.30 1.14 0.96 0.93 0.65 0.53 0.75 0.54 0.26 0.18 0.15 0.12 0.15 0.21 0.28 0.26 0.24 0.26 0.25 0.25 0.21 0.21 0.20 0.21 0.25
0.56 0.56 0.62 0.51 0.50 0.60 0.71 0.94 0.96 0.87 1.10 1.19 0.90 1.07 1.20 1.03 0.94 0.71 0.51 0.47 0.44 0.27 0.31 0.42 0.83 1.42 1.12 1.49 1.42 1.03 1.51 1.21 0.92 1.13 0.78 0.54 0.26 0.20 0.19 0.21 0.24 0.25 0.24 0.29 0.33 0.33 0.29 0.29 0.27 0.26 0.28 0.37 0.38 0.51
0.48 0.56 0.75 0.78 0.84 0.92 1.15 1.38 1.70 1.55 1.19 0.82 0.75 0.65 0.90 0.66 0.59 0.53 0.52 0.49 0.30 0.22 0.28 0.73 0.94 1.18 1.26 1.48 1.17 0.82 1.10 1.07 1.00 0.86 0.68 0.44 0.38 0.35 0.31 0.30 0.27 0.38 0.41 0.43 0.50 0.48 0.53 0.58 0.73 0.86 0.90 1.00 0.82 0.92
0.53 0.75 0.97 0.98 1.06 1.15 1.32 1.48 1.50 0.92 0.60 0.71 0.70 0.77 0.61 0.74 0.67 0.70 0.58 0.42 0.31 0.35 0.48 0.85 1.01 0.92 0.89 1.50 0.88 0.70 0.74 0.83 0.77 0.93 0.58 0.63 0.58 0.54 0.56 0.61 0.64 0.74 0.81 0.89 0.97 0.90 0.98 0.94 0.78 0.96 1.06 0.96 0.76 0.75
0.57 1.20 1.19 1.10 1.15 1.07 1.23 1.17 0.99 0.56 0.54 0.77 0.93 0.84 0.68 0.66 0.70 0.65 0.56 0.46 0.44 0.58 0.66 0.99 1.05 0.74 0.67 0.47 0.48 0.49 0.59 0.94 0.68 0.55 0.66 0.65 0.72 0.86 0.91 0.95 1.03 1.05 1.00 0.99 0.97 0.85 0.81 0.74 0.63 0.67 0.65 0.57 0.56 0.44
0.86 1.43 1.26 1.02 0.89 0.87 0.94 0.69 0.51 0.48 0.68 0.71 0.98 1.12 1.00 0.78 0.87 0.88 0.76 0.62 0.59 0.67 0.77 0.64 0.68 0.67 0.61 0.27 0.25 0.35 0.64 0.87 0.88 0.92 0.87 0.85 0.92 1.05 1.08 1.00 0.98 0.82 0.71 0.68 0.63 0.57 0.54 0.49 0.32 0.19 0.22 0.29 0.20 0.17
0.72 0.69 0.68 0.60 0.55 0.67 0.47 0.23 0.33 0.31 0.45 0.80 0.83 1.09 0.78 0.93 0.92 0.83 0.83 0.72 0.70 0.63 0.63 0.66 0.67 0.47 0.54 0.51 0.63 0.79 0.90 1.05 1.01 0.91 0.93 1.03 0.94 0.92 0.91 0.81 0.83 0.67 0.53 0.50 0.41 0.38 0.33 0.24 0.16 0.20 0.17 0.15 0.09 0.09
0.78 0.63 0.58 0.40 0.33 0.29 0.24 0.15 0.13 0.23 0.66 0.70 0.71 0.56 0.46 0.61 0.61 0.61 0.49 0.44 0.29 0.19 0.18 0.18 0.26 0.47 0.69 0.78 0.82 0.89 0.88 0.68 0.67 0.68 0.72 0.82 0.80 0.77 0.76 0.69 0.62 0.55 0.41 0.34 0.22 0.21 0.22 0.20 0.21 0.18 0.16 0.11 0.14 0.16
0.84 0.64 0.52 0.36 0.33 0.31 0.19 0.14 0.03 0.14 0.50 0.58 0.54 0.30 0.27 0.41 0.29 0.16 0.08 0.05 0.03 0.04 0.12 0.30 0.70 0.88 0.82 0.91 0.71 0.67 0.64 0.55 0.42 0.39 0.55 0.67 0.67 0.55 0.58 0.46 0.42 0.36 0.26 0.24 0.23 0.19 0.17 0.17 0.17 0.13 0.11 0.11 0.11 0.12
0.80 0.50 0.21 0.18 0.24 0.11 0.14 0.10 0.13 0.14 0.26 0.35 0.30 0.13 0.21 0.10 0.08 0.07 0.05 0.02 0.08 0.20 0.59 0.85 0.82 0.92 0.67 0.65 0.58 0.49 0.55 0.49 0.51 0.32 0.33 0.41 0.47 0.31 0.35 0.38 0.30 0.24 0.21 0.24 0.21 0.22 0.18 0.16 0.15 0.11 0.09 0.08 0.07 0.07
0.35 0.17 0.14 0.17 0.14 0.03 0.11 0.03 0.09 0.09 0.05 0.11 0.09 0.05 0.07 0.07 0.06 0.03 0.04 0.10 0.40 0.70 0.71 0.60 0.57 0.42 0.30 0.35 0.36 0.27 0.35 0.28 0.31 0.35 0.36 0.32 0.35 0.33 0.38 0.40 0.27 0.28 0.29 0.26 0.22 0.18 0.14 0.09 0.06 0.04 0.04 0.04 0.02 0.01
0.06 0.07 0.07 0.06 0.16 0.06 0.14 0.08 0.07 0.09 0.05 0.06 0.03 0.04 0.05 0.04 0.03 0.01 0.09 0.22 0.61 0.79 0.51 0.26 0.26 0.18 0.24 0.33 0.20 0.20 0.22 0.19 0.25 0.33 0.36 0.34 0.33 0.33 0.27 0.25 0.22 0.17 0.14 0.12 0.07 0.05 0.04 0.01 0.01 0.01 0.01 0.01 0.02 0.03
0.06 0.08 0.08 0.11 0.10 0.08 0.09 0.09 0.01 0.02 0.03 0.02 0.02 0.06 0.06 0.04 0.01 0.03 0.12 0.30 0.56 0.45 0.27 0.29 0.18 0.15 0.16 0.17 0.20 0.27 0.32 0.25 0.22 0.24 0.23 0.16 0.15 0.15 0.08 0.07 0.05 0.04 0.03 0.02 0.00 0.03 0.02 0.02 0.01 0.02 0.02 0.02 0.03 0.03
0.16 0.10 0.11 0.15 0.08 0.02 0.03 0.05 0.03 0.02 0.03 0.02 0.04 0.06 0.05 0.02 0.03 0.05 0.10 0.32 0.30 0.31 0.33 0.31 0.23 0.20 0.23 0.27 0.26 0.23 0.17 0.10 0.08 0.09 0.11 0.06 0.05 0.05 0.03 0.02 0.02 0.02 0.01 0.03 0.04 0.05 0.04 0.02 0.03 0.02 0.02 0.02 0.02 0.02
0.19 0.12 0.03 0.06 0.05 0.03 0.03 0.03 0.03 0.02 0.02 0.04 0.06 0.07 0.06 0.05 0.06 0.13 0.20 0.28 0.23 0.30 0.35 0.36 0.31 0.23 0.22 0.16 0.13 0.10 0.07 0.03 0.01 0.01 0.04 0.01 0.01 0.01 0.02 0.02 0.04 0.07 0.02 0.03 0.03 0.04 0.05 0.03 0.03 0.02 0.03 0.02 0.02 0.03
0.07 0.10 0.04 0.04 0.06 0.04 0.03 0.03 0.02 0.03 0.06 0.08 0.09 0.07 0.08 0.12 0.13 0.27 0.35 0.26 0.27 0.31 0.26 0.24 0.17 0.14 0.13 0.10 0.08 0.06 0.02 0.00 0.00 0.00 0.01 0.00 0.00 0.01 0.01 0.01 0.02 0.04 0.02 0.03 0.02 0.02 0.03 0.04 0.05 0.04 0.04 0.04 0.05 0.05
0.03 0.02 0.04 0.04 0.04 0.05 0.08 0.07 0.05 0.10 0.13 0.10 0.08 0.07 0.06 0.11 0.33 0.40 0.38 0.38 0.29 0.18 0.14 0.15 0.13 0.07 0.04 0.05 0.07 0.06 0.04 0.02 0.01 0.01 0.01 0.04 0.04 0.02 0.02 0.02 0.01 0.01 0.02 0.03 0.03 0.03 0.04 0.04 0.05 0.05 0.04 0.03 0.03 0.04
0.03 0.02 0.01 0.03 0.06 0.06 0.10 0.14 0.18 0.15 0.12 0.09 0.08 0.13 0.14 0.22 0.34 0.33 0.34 0.30 0.24 0.15 0.11 0.11 0.18 0.09 0.07 0.06 0.05 0.03 0.01 0.01 0.01 0.02 0.02 0.06 0.09 0.10 0.05 0.04 0.04 0.03 0.04 0.07 0.07 0.05 0.06 0.06 0.06 0.03 0.02 0.03 0.04 0.07
0.01 0.02 0.01 0.01 0.04 0.12 0.23 0.16 0.20 0.13 0.04 0.04 0.06 0.11 0.15 0.41 0.62 0.38 0.28 0.25 0.22 0.19 0.15 0.11 0.14 0.10 0.10 0.08 0.09 0.10 0.08 0.03 0.02 0.02 0.03 0.03 0.04 0.06 0.08 0.06 0.05 0.04 0.05 0.05 0.07 0.08 0.05 0.03 0.04 0.03 0.03 0.03 0.03 0.03
0.02 0.02 0.02 0.02 0.12 0.20 0.18 0.11 0.10 0.10 0.07 0.06 0.05 0.09 0.17 0.31 0.33 0.29 0.26 0.26 0.20 0.15 0.10 0.12 0.11 0.07 0.04 0.03 0.02 0.02 0.08 0.07 0.04 0.02 0.03 0.02 0.02 0.04 0.05 0.04 0.04 0.04 0.04 0.03 0.02 0.02 0.02 0.01 0.02 0.02 0.01 0.01 0.01 0.01
0.07 0.10 0.06 0.06 0.18 0.18 0.19 0.17 0.11 0.16 0.14 0.10 0.11 0.09 0.11 0.10 0.13 0.17 0.18 0.22 0.22 0.16 0.12 0.09 0.09 0.10 0.05 0.04 0.04 0.03 0.01 0.03 0.03 0.02 0.01 0.02 0.03 0.05 0.05 0.05 0.04 0.04 0.04 0.03 0.02 0.02 0.02 0.02 0.02 0.01 0.02 0.02 0.01 0.00
0.21 0.21 0.18 0.14 0.15 0.14 0.15 0.19 0.18 0.14 0.11 0.10 0.14 0.13 0.12 0.10 0.13 0.19 0.16 0.17 0.26 0.18 0.13 0.13 0.11 0.10 0.09 0.08 0.08 0.07 0.05 0.05 0.05 0.03 0.02 0.02 0.02 0.03 0.03 0.04 0.03 0.02 0.02 0.02 0.02 0.02 0.02 0.02 0.02 0.01 0.01 0.00 0.00 0.01

GFSWCAN_prec_precacc_117.txt.gz
Total_Precipitation_Accumulation
1.42 1.48 1.55 1.41 1.19 1.24 1.34 1.31 1.09 1.09 0.97 0.80 0.76 0.69 0.90 0.89 1.02 1.53 1.40 1.35 2.26 2.60 1.02 0.73 0.36 0.37 0.36 0.42 0.67 0.62 0.99 1.02 0.84 0.81 0.58 0.65 0.75 0.39 0.63 1.10 0.62 0.61 0.50 0.50 0.62 0.88 0.70 0.11 0.28 0.59 0.79 0.43 0.29 0.37
1.53 1.61 1.31 1.17 0.92 1.09 1.22 1.15 1.02 0.87 0.96 0.79 0.81 0.79 0.95 1.12 1.21 1.47 1.63 1.18 1.68 2.50 1.36 0.73 0.42 0.25 0.13 0.12 0.21 0.44 0.67 0.71 0.80 0.65 0.37 0.37 0.45 0.47 0.59 0.81 0.82 1.37 1.14 1.18 0.80 0.74 0.49 0.29 0.41 0.47 0.40 0.41 0.44 0.59
1.39 1.63 1.28 0.99 0.93 0.94 1.04 0.96 0.88 0.78 0.84 0.71 0.69 0.78 1.10 1.42 1.37 1.56 1.60 1.23 2.60 2.70 1.72 0.87 0.52 0.20 0.09 0.08 0.10 0.39 0.22 0.55 0.89 0.70 0.83 0.54 0.48 0.34 0.38 0.68 0.64 0.56 0.53 0.93 0.87 0.66 0.38 0.53 0.44 0.25 0.25 0.28 0.30 0.31
1.41 1.70 1.26 0.96 1.13 1.02 1.00 0.66 0.57 0.62 0.68 0.74 0.83 0.90 1.23 1.58 1.41 1.92 1.96 1.59 2.85 1.92 1.78 1.17 0.57 0.30 0.22 0.10 0.16 0.18 0.16 0.26 0.51 0.63 0.83 0.75 0.48 0.43 0.39 0.49 0.43 0.36 0.59 0.52 0.86 0.92 0.67 0.65 0.93 0.59 0.40 0.30 0.31 0.32
1.45 1.32 1.10 1.24 1.20 0.81 0.75 0.47 0.46 0.51 0.54 0.69 0.76 1.03 1.48 1.72 1.67 2.50 2.41 2.13 1.93 1.55 1.41 1.32 0.41 0.38 0.27 0.18 0.16 0.31 0.34 0.38 0.66 0.67 0.61 0.37 0.35 0.65 0.60 0.61 0.43 0.37 0.91 0.86 0.80 1.02 1.16 1.23 0.81 0.64 0.72 0.58 0.43 0.21
1.41 0.98 1.30 1.54 1.07 0.72 0.48 0.45 0.49 0.50 0.50 0.63 0.81 1.15 1.41 1.63 2.68 4.37 5.50 3.28 1.74 1.54 1.83 1.54 0.67 0.31 0.39 0.34 0.35 0.25 0.47 0.70 0.82 0.99 0.54 0.20 0.22 0.76 0.71 0.91 0.62 0.43 0.44 0.61 0.91 0.99 1.04 0.94 0.60 0.37 0.26 0.31 0.32 0.22
1.30 1.36 1.46 1.21 0.71 0.45 0.36 0.38 0.45 0.52 0.63 0.79 0.93 1.10 1.17 1.53 2.15 3.16 2.65 1.61 1.22 1.69 2.35 1.63 1.03 0.50 0.45 0.61 0.70 0.83 0.60 1.03 1.44 1.27 0.69 0.32 0.24 0.52 0.72 0.80 0.60 0.39 0.46 0.47 0.65 0.59 0.40 0.33 0.27 0.15 0.06 0.04 0.02 0.02
1.39 1.28 0.88 0.74 0.51 0.47 0.38 0.44 0.56 0.66 0.75 0.92 1.13 1.30 1.49 1.74 2.26 2.05 1.28 1.31 1.17 1.87 1.70 1.36 1.21 1.10 0.82 1.11 1.04 1.01 1.13 1.18 1.33 1.34 0.85 0.54 0.60 0.77 0.83 0.62 0.36 0.26 0.39 0.34 0.34 0.25 0.18 0.12 0.05 0.03 0.01 0.01 0.01 0.01
1.30 0.93 0.64 0.68 0.58 0.48 0.43 0.57 0.71 0.93 0.95 1.32 1.65 2.21 3.20 2.74 2.56 1.77 1.52 1.69 1.37 1.42 1.11 0.60 0.87 1.77 1.65 1.57 1.25 1.04 1.40 1.44 1.07 0.86 0.67 0.78 1.07 1.10 0.73 0.30 0.27 0.22 0.28 0.31 0.19 0.06 0.03 0.04 0.03 0.02 0.00 0.01 0.01 0.02
1.04 0.75 0.53 0.55 0.53 0.64 0.73 0.90 1.13 1.21 1.41 1.76 2.22 3.03 3.21 2.04 1.72 1.93 2.72 2.75 2.32 1.24 0.83 0.57 0.47 1.14 1.76 1.87 1.50 1.26 1.04 0.94 0.95 0.74 0.81 1.09 0.89 0.47 0.19 0.18 0.17 0.14 0.17 0.18 0.16 0.11 0.06 0.05 0.03 0.02 0.03 0.04 0.05 0.09
0.64 0.59 0.50 0.53 0.55 0.60 0.74 0.88 1.40 1.38 1.61 1.51 1.84 2.40 1.90 1.87 1.98 2.18 2.03 1.55 1.35 0.73 0.31 0.42 0.50 0.95 1.16 1.81 1.44 1.07 1.16 0.78 0.54 0.70 0.73 1.02 0.59 0.32 0.11 0.07 0.09 0.14 0.18 0.22 0.24 0.24 0.23 0.19 0.14 0.09 0.13 0.16 0.15 0.15
0.70 0.54 0.52 0.52 0.53 0.65 0.77 1.02 1.19 0.83 0.99 0.90 1.42 1.65 2.11 2.08 1.70 1.30 0.98 0.74 0.55 0.31 0.25 0.38 0.65 1.17 1.07 1.46 1.50 1.30 1.14 0.96 0.93 0.65 0.53 0.75 0.54 0.26 0.18 0.15 0.12 0.15 0.21 0.28 0.26 0.24 0.26 0.25 0.25 0.21 0.21 0.20 0.21 0.25
0.57 0.58 0.64 0.51 0.50 0.60 0.71 0.94 0.96 0.87 1.10 1.19 0.90 1.07 1.20 1.03 0.94 0.71 0.51 0.47 0.44 0.27 0.31 0.42 0.83 1.42 1.12 1.49 1.42 1.03 1.51 1.21 0.92 1.13 0.78 0.54 0.26 0.20 0.19 0.21 0.24 0.25 0.24 0.29 0.33 0.33 0.29 0.29 0.27 0.26 0.28 0.37 0.38 0.51
0.48 0.56 0.75 0.78 0.84 0.92 1.15 1.38 1.70 1.55 1.19 0.82 0.75 0.65 0.90 0.66 0.59 0.53 0.52 0.49 0.30 0.22 0.28 0.73 0.94 1.18 1.26 1.48 1.17 0.82 1.10 1.07 1.00 0.86 0.68 0.44 0.38 0.35 0.31 0.30 0.27 0.38 0.41 0.43 0.50 0.48 0.53 0.58 0.74 0.88 0.93 1.01 0.82 0.92
0.53 0.75 0.97 0.98 1.06 1.15 1.32 1.48 1.50 0.92 0.60 0.71 0.70 0.77 0.61 0.75 0.68 0.70 0.58 0.42 0.31 0.35 0.48 0.85 1.01 0.92 0.89 1.50 0.88 0.70 0.74 0.83 0.77 0.93 0.58 0.63 0.58 0.54 0.56 0.61 0.64 0.74 0.81 0.89 0.97 0.90 0.99 0.95 0.80 1.00 1.11 0.99 0.78 0.76
0.57 1.20 1.19 1.10 1.15 1.07 1.23 1.17 0.99 0.56 0.54 0.77 0.93 0.85 0.69 0.67 0.71 0.66 0.56 0.46 0.44 0.58 0.66 0.99 1.05 0.74 0.67 0.47 0.48 0.49 0.59 0.94 0.68 0.55 0.66 0.65 0.72 0.86 0.91 0.95 1.03 1.05 1.00 0.99 0.97 0.86 0.84 0.79 0.67 0.72 0.71 0.63 0.60 0.45
0.86 1.43 1.26 1.02 0.89 0.87 0.94 0.69 0.51 0.48 0.68 0.71 1.00 1.13 1.00 0.79 0.90 0.90 0.77 0.62 0.59 0.67 0.77 0.64 0.68 0.67 0.61 0.27 0.25 0.35 0.64 0.87 0.88 0.92 0.87 0.85 0.92 1.05 1.08 1.01 0.98 0.82 0.72 0.69 0.64 0.60 0.60 0.56 0.37 0.23 0.26 0.33 0.24 0.18
0.72 0.69 0.68 0.60 0.55 0.67 0.47 0.23 0.33 0.31 0.45 0.82 0.84 1.10 0.78 0.94 0.95 0.85 0.83 0.72 0.70 0.63 0.63 0.66 0.67 0.47 0.54 0.51 0.63 0.79 0.90 1.05 1.01 0.91 0.93 1.03 0.94 0.93 0.92 0.81 0.84 0.67 0.53 0.51 0.42 0.40 0.36 0.28 0.20 0.23 0.20 0.16 0.10 0.09
0.78 0.63 0.58 0.40 0.33 0.29 0.24 0.15 0.13 0.23 0.67 0.71 0.72 0.57 0.46 0.62 0.62 0.62 0.49 0.44 0.29 0.19 0.18 0.18 0.26 0.47 0.69 0.78 0.82 0.89 0.88 0.68 0.68 0.68 0.72 0.83 0.80 0.77 0.77 0.69 0.63 0.56 0.42 0.35 0.24 0.23 0.24 0.23 0.25 0.21 0.18 0.12 0.14 0.16
0.84 0.64 0.52 0.36 0.33 0.31 0.19 0.14 0.03 0.14 0.50 0.58 0.54 0.30 0.27 0.41 0.29 0.16 0.08 0.05 0.03 0.04 0.12 0.30 0.70 0.88 0.82 0.91 0.71 0.67 0.64 0.55 0.42 0.39 0.55 0.67 0.68 0.55 0.59 0.47 0.43 0.36 0.27 0.26 0.25 0.22 0.19 0.19 0.19 0.15 0.13 0.12 0.11 0.12
0.80 0.50 0.21 0.18 0.24 0.11 0.14 0.10 0.13 0.14 0.26 0.35 0.30 0.13 0.21 0.10 0.08 0.07 0.05 0.02 0.08 0.20 0.59 0.85 0.82 0.92 0.67 0.65 0.58 0.49 0.55 0.49 0.51 0.32 0.33 0.41 0.47 0.31 0.35 0.38 0.30 0.24 0.21 0.25 0.22 0.23 0.19 0.18 0.15 0.11 0.09 0.08 0.07 0.07
0.35 0.17 0.14 0.17 0.14 0.03 0.11 0.03 0.09 0.09 0.05 0.11 0.09 0.05 0.07 0.07 0.06 0.03 0.04 0.10 0.40 0.70 0.71 0.60 0.57 0.42 0.30 0.35 0.36 0.27 0.35 0.28 0.31 0.35 0.36 0.32 0.35 0.33 0.39 0.41 0.27 0.28 0.29 0.26 0.22 0.18 0.14 0.10 0.06 0.04 0.04 0.04 0.02 0.01
0.06 0.07 0.07 0.06 0.16 0.06 0.14 0.08 0.07 0.09 0.05 0.06 0.03 0.04 0.05 0.04 0.03 0.01 0.09 0.22 0.61 0.79 0.51 0.26 0.26 0.18 0.24 0.33 0.20 0.20 0.22 0.19 0.25 0.33 0.36 0.34 0.33 0.33 0.27 0.25 0.22 0.17 0.14 0.12 0.07 0.05 0.04 0.01 0.01 0.01 0.01 0.01 0.02 0.03
0.06 0.08 0.08 0.11 0.10 0.08 0.09 0.09 0.01 0.02 0.03 0.03 0.02 0.06 0.06 0.04 0.01 0.03 0.12 0.30 0.56 0.45 0.27 0.29 0.18 0.15 0.16 0.17 0.20 0.27 0.32 0.25 0.22 0.24 0.23 0.16 0.15 0.15 0.08 0.07 0.05 0.04 0.03 0.02 0.00 0.03 0.02 0.02 0.01 0.02 0.02 0.02 0.03 0.03
0.16 0.10 0.11 0.15 0.08 0.02 0.03 0.05 0.03 0.02 0.03 0.02 0.04 0.07 0.05 0.02 0.03 0.05 0.10 0.32 0.30 0.31 0.33 0.31 0.23 0.20 0.23 0.27 0.26 0.23 0.17 0.10 0.08 0.09 0.11 0.06 0.05 0.05 0.04 0.02 0.02 0.02 0.01 0.03 0.04 0.05 0.04 0.02 0.03 0.02 0.02 0.03 0.03 0.03
0.19 0.12 0.03 0.06 0.05 0.03 0.03 0.03 0.03 0.02 0.02 0.04 0.06 0.07 0.06 0.05 0.06 0.13 0.21 0.28 0.23 0.30 0.35 0.36 0.31 0.23 0.22 0.16 0.13 0.10 0.07 0.03 0.01 0.01 0.04 0.01 0.01 0.01 0.02 0.03 0.05 0.07 0.02 0.03 0.03 0.04 0.05 0.04 0.03 0.02 0.04 0.04 0.03 0.04
0.07 0.10 0.04 0.04 0.06 0.04 0.03 0.03 0.02 0.03 0.06 0.08 0.09 0.07 0.08 0.12 0.13 0.27 0.35 0.26 0.27 0.31 0.26 0.24 0.17 0.14 0.13 0.10 0.08 0.06 0.02 0.00 0.00 0.00 0.01 0.00 0.00 0.01 0.01 0.01 0.02 0.04 0.02 0.03 0.02 0.02 0.03 0.05 0.06 0.05 0.06 0.06 0.06 0.06
0.03 0.02 0.04 0.04 0.04 0.05 0.08 0.07 0.05 0.10 0.13 0.10 0.08 0.07 0.06 0.11 0.33 0.41 0.38 0.38 0.29 0.18 0.14 0.15 0.13 0.07 0.04 0.05 0.07 0.06 0.04 0.03 0.01 0.01 0.02 0.05 0.04 0.02 0.02 0.02 0.01 0.01 0.02 0.03 0.03 0.03 0.04 0.04 0.06 0.06 0.05 0.05 0.04 0.05
0.03 0.02 0.01 0.03 0.06 0.06 0.10 0.14 0.18 0.15 0.12 0.09 0.08 0.13 0.14 0.23 0.34 0.33 0.34 0.30 0.24 0.15 0.11 0.11 0.19 0.09 0.07 0.06 0.05 0.03 0.01 0.02 0.01 0.03 0.03 0.06 0.09 0.10 0.05 0.04 0.04 0.03 0.04 0.07 0.08 0.05 0.07 0.07 0.07 0.04 0.03 0.04 0.05 0.08
0.01 0.02 0.01 0.01 0.04 0.12 0.23 0.16 0.21 0.14 0.05 0.04 0.06 0.11 0.15 0.41 0.62 0.38 0.29 0.25 0.22 0.19 0.15 0.11 0.14 0.10 0.10 0.08 0.09 0.10 0.08 0.04 0.02 0.02 0.03 0.03 0.04 0.06 0.08 0.07 0.05 0.05 0.06 0.06 0.09 0.12 0.08 0.06 0.06 0.06 0.05 0.05 0.05 0.04
0.02 0.02 0.02 0.02 0.12 0.20 0.18 0.11 0.10 0.10 0.07 0.06 0.06 0.09 0.17 0.31 0.34 0.30 0.26 0.26 0.20 0.15 0.10 0.12 0.11 0.07 0.04 0.03 0.02 0.02 0.08 0.07 0.04 0.02 0.03 0.02 0.02 0.04 0.05 0.04 0.05 0.04 0.04 0.03 0.02 0.02 0.02 0.02 0.03 0.03 0.02 0.02 0.01 0.01
0.07 0.10 0.06 0.06 0.19 0.18 0.19 0.17 0.11 0.16 0.14 0.10 0.11 0.09 0.11 0.11 0.13 0.17 0.18 0.22 0.22 0.17 0.12 0.09 0.10 0.10 0.05 0.04 0.04 0.03 0.01 0.03 0.03 0.02 0.01 0.02 0.03 0.05 0.05 0.05 0.05 0.05 0.04 0.03 0.03 0.03 0.02 0.02 0.02 0.02 0.02 0.02 0.01 0.00
0.21 0.21 0.18 0.15 0.15 0.15 0.16 0.19 0.18 0.14 0.11 0.10 0.14 0.13 0.12 0.10 0.13 0.19 0.16 0.17 0.27 0.19 0.13 0.13 0.11 0.10 0.09 0.08 0.08 0.07 0.05 0.05 0.05 0.03 0.02 0.02 0.02 0.03 0.03 0.04 0.04 0.03 0.02 0.02 0.03 0.03 0.03 0.03 0.02 0.02 0.01 0.00 0.00 0.01